<?xml version="1.0" encoding="UTF-8" standalone="no" ?>
<gpx xmlns="http://www.topografix.com/GPX/1/1" xmlns:xsi="http://www.w3.org/2001/XMLSchema-instance" xsi:schemaLocation="http://www.topografix.com/GPX/1/1 http://www.topografix.com/GPX/1/1/gpx.xsd" version="1.1" creator="VisuGPX - https://www.visugpx.com">
  <metadata>
    <name>Gréolières - Pont du Loup</name>
    <desc><![CDATA[Ride After Taf 1001sentiers ]]></desc>
  </metadata>
  <trk>
    <name><![CDATA[RaT]]></name>
    <cmt><![CDATA[Sortie 1001 présidée par Sergi.
Superbe parcours avec une compil de belles descentes.
A refaire !!!]]></cmt>
    <trkseg>
      <trkpt lat="43.82957" lon="6.94559">
        <ele>1433.6278076172</ele>
        <time>2012-07-04T16:05:38Z</time>
      </trkpt>
      <trkpt lat="43.82961" lon="6.94563">
        <ele>1433.2364501953</ele>
        <time>2012-07-04T16:05:42Z</time>
      </trkpt>
      <trkpt lat="43.82961" lon="6.94566">
        <ele>1432.8759765625</ele>
        <time>2012-07-04T16:05:43Z</time>
      </trkpt>
      <trkpt lat="43.82954" lon="6.94571">
        <ele>1432.2939453125</ele>
        <time>2012-07-04T16:05:46Z</time>
      </trkpt>
      <trkpt lat="43.82942" lon="6.94575">
        <ele>1431.9283447266</ele>
        <time>2012-07-04T16:05:50Z</time>
      </trkpt>
      <trkpt lat="43.8294" lon="6.94576">
        <ele>1431.8304443359</ele>
        <time>2012-07-04T16:05:51Z</time>
      </trkpt>
      <trkpt lat="43.82923" lon="6.9458">
        <ele>1431.3155517578</ele>
        <time>2012-07-04T16:05:58Z</time>
      </trkpt>
      <trkpt lat="43.82907" lon="6.94586">
        <ele>1430.7778320312</ele>
        <time>2012-07-04T16:06:05Z</time>
      </trkpt>
      <trkpt lat="43.82891" lon="6.94595">
        <ele>1430.0909423828</ele>
        <time>2012-07-04T16:06:10Z</time>
      </trkpt>
      <trkpt lat="43.82879" lon="6.94601">
        <ele>1429.7237548828</ele>
        <time>2012-07-04T16:06:15Z</time>
      </trkpt>
      <trkpt lat="43.82869" lon="6.94606">
        <ele>1429.3358154297</ele>
        <time>2012-07-04T16:06:20Z</time>
      </trkpt>
      <trkpt lat="43.82866" lon="6.94598">
        <ele>1429.9296875</ele>
        <time>2012-07-04T16:06:23Z</time>
      </trkpt>
      <trkpt lat="43.82866" lon="6.94596">
        <ele>1430.0671386719</ele>
        <time>2012-07-04T16:06:24Z</time>
      </trkpt>
      <trkpt lat="43.82865" lon="6.94595">
        <ele>1430.142578125</ele>
        <time>2012-07-04T16:06:25Z</time>
      </trkpt>
      <trkpt lat="43.82862" lon="6.94594">
        <ele>1430.2215576172</ele>
        <time>2012-07-04T16:06:27Z</time>
      </trkpt>
      <trkpt lat="43.82857" lon="6.94594">
        <ele>1430.3889160156</ele>
        <time>2012-07-04T16:06:30Z</time>
      </trkpt>
      <trkpt lat="43.8285" lon="6.94593">
        <ele>1430.7185058594</ele>
        <time>2012-07-04T16:06:34Z</time>
      </trkpt>
      <trkpt lat="43.82839" lon="6.9459">
        <ele>1431.3500976562</ele>
        <time>2012-07-04T16:06:40Z</time>
      </trkpt>
      <trkpt lat="43.82829" lon="6.94586">
        <ele>1432.1276855469</ele>
        <time>2012-07-04T16:06:46Z</time>
      </trkpt>
      <trkpt lat="43.82817" lon="6.94588">
        <ele>1432.8760986328</ele>
        <time>2012-07-04T16:06:53Z</time>
      </trkpt>
      <trkpt lat="43.82804" lon="6.94588">
        <ele>1433.8935546875</ele>
        <time>2012-07-04T16:07:00Z</time>
      </trkpt>
      <trkpt lat="43.82794" lon="6.94585">
        <ele>1435.6066894531</ele>
        <time>2012-07-04T16:07:06Z</time>
      </trkpt>
      <trkpt lat="43.82783" lon="6.94587">
        <ele>1437.0006103516</ele>
        <time>2012-07-04T16:07:13Z</time>
      </trkpt>
      <trkpt lat="43.82772" lon="6.94586">
        <ele>1438.2531738281</ele>
        <time>2012-07-04T16:07:20Z</time>
      </trkpt>
      <trkpt lat="43.82763" lon="6.94587">
        <ele>1438.9018554688</ele>
        <time>2012-07-04T16:07:26Z</time>
      </trkpt>
      <trkpt lat="43.8275" lon="6.94584">
        <ele>1440.0323486328</ele>
        <time>2012-07-04T16:07:34Z</time>
      </trkpt>
      <trkpt lat="43.82742" lon="6.9458">
        <ele>1441.1507568359</ele>
        <time>2012-07-04T16:07:40Z</time>
      </trkpt>
      <trkpt lat="43.82727" lon="6.94576">
        <ele>1443.0665283203</ele>
        <time>2012-07-04T16:07:49Z</time>
      </trkpt>
      <trkpt lat="43.82711" lon="6.94571">
        <ele>1445.0715332031</ele>
        <time>2012-07-04T16:07:58Z</time>
      </trkpt>
      <trkpt lat="43.82698" lon="6.94565">
        <ele>1446.9460449219</ele>
        <time>2012-07-04T16:08:05Z</time>
      </trkpt>
      <trkpt lat="43.82688" lon="6.94563">
        <ele>1448.6667480469</ele>
        <time>2012-07-04T16:08:11Z</time>
      </trkpt>
      <trkpt lat="43.82687" lon="6.94562">
        <ele>1448.9792480469</ele>
        <time>2012-07-04T16:08:12Z</time>
      </trkpt>
      <trkpt lat="43.82679" lon="6.94557">
        <ele>1450.685546875</ele>
        <time>2012-07-04T16:08:16Z</time>
      </trkpt>
      <trkpt lat="43.82677" lon="6.94556">
        <ele>1451.0975341797</ele>
        <time>2012-07-04T16:08:17Z</time>
      </trkpt>
      <trkpt lat="43.82665" lon="6.94555">
        <ele>1453.3291015625</ele>
        <time>2012-07-04T16:08:23Z</time>
      </trkpt>
      <trkpt lat="43.82651" lon="6.94549">
        <ele>1456.28515625</ele>
        <time>2012-07-04T16:08:30Z</time>
      </trkpt>
      <trkpt lat="43.8264" lon="6.94546">
        <ele>1458.5167236328</ele>
        <time>2012-07-04T16:08:37Z</time>
      </trkpt>
      <trkpt lat="43.82631" lon="6.94547">
        <ele>1459.3610839844</ele>
        <time>2012-07-04T16:08:42Z</time>
      </trkpt>
      <trkpt lat="43.82621" lon="6.94551">
        <ele>1460.1274414062</ele>
        <time>2012-07-04T16:08:48Z</time>
      </trkpt>
      <trkpt lat="43.8262" lon="6.94553">
        <ele>1460.1527099609</ele>
        <time>2012-07-04T16:08:49Z</time>
      </trkpt>
      <trkpt lat="43.82615" lon="6.94558">
        <ele>1460.3679199219</ele>
        <time>2012-07-04T16:08:52Z</time>
      </trkpt>
      <trkpt lat="43.82607" lon="6.9457">
        <ele>1460.3483886719</ele>
        <time>2012-07-04T16:08:59Z</time>
      </trkpt>
      <trkpt lat="43.82605" lon="6.94573">
        <ele>1460.3344726562</ele>
        <time>2012-07-04T16:09:01Z</time>
      </trkpt>
      <trkpt lat="43.82602" lon="6.94579">
        <ele>1460.2790527344</ele>
        <time>2012-07-04T16:09:05Z</time>
      </trkpt>
      <trkpt lat="43.82599" lon="6.9458">
        <ele>1460.4887695312</ele>
        <time>2012-07-04T16:09:13Z</time>
      </trkpt>
      <trkpt lat="43.82596" lon="6.94584">
        <ele>1460.5931396484</ele>
        <time>2012-07-04T16:09:20Z</time>
      </trkpt>
      <trkpt lat="43.82593" lon="6.94586">
        <ele>1460.7646484375</ele>
        <time>2012-07-04T16:09:24Z</time>
      </trkpt>
      <trkpt lat="43.82589" lon="6.94588">
        <ele>1461.0627441406</ele>
        <time>2012-07-04T16:09:28Z</time>
      </trkpt>
      <trkpt lat="43.82586" lon="6.94588">
        <ele>1461.4322509766</ele>
        <time>2012-07-04T16:09:30Z</time>
      </trkpt>
      <trkpt lat="43.82571" lon="6.94584">
        <ele>1462.8901367188</ele>
        <time>2012-07-04T16:09:36Z</time>
      </trkpt>
      <trkpt lat="43.82553" lon="6.94577">
        <ele>1464.5402832031</ele>
        <time>2012-07-04T16:09:42Z</time>
      </trkpt>
      <trkpt lat="43.82545" lon="6.94575">
        <ele>1465.3728027344</ele>
        <time>2012-07-04T16:09:46Z</time>
      </trkpt>
      <trkpt lat="43.82533" lon="6.9457">
        <ele>1466.916015625</ele>
        <time>2012-07-04T16:09:51Z</time>
      </trkpt>
      <trkpt lat="43.82524" lon="6.94572">
        <ele>1467.6336669922</ele>
        <time>2012-07-04T16:09:56Z</time>
      </trkpt>
      <trkpt lat="43.8252" lon="6.94576">
        <ele>1467.8499755859</ele>
        <time>2012-07-04T16:10:01Z</time>
      </trkpt>
      <trkpt lat="43.82514" lon="6.94577">
        <ele>1468.2087402344</ele>
        <time>2012-07-04T16:10:06Z</time>
      </trkpt>
      <trkpt lat="43.82508" lon="6.94577">
        <ele>1468.6619873047</ele>
        <time>2012-07-04T16:10:11Z</time>
      </trkpt>
      <trkpt lat="43.82505" lon="6.94576">
        <ele>1468.9194335938</ele>
        <time>2012-07-04T16:10:13Z</time>
      </trkpt>
      <trkpt lat="43.82502" lon="6.94575">
        <ele>1469.1546630859</ele>
        <time>2012-07-04T16:10:15Z</time>
      </trkpt>
      <trkpt lat="43.825" lon="6.94575">
        <ele>1469.2626953125</ele>
        <time>2012-07-04T16:10:19Z</time>
      </trkpt>
      <trkpt lat="43.82494" lon="6.94573">
        <ele>1469.8189697266</ele>
        <time>2012-07-04T16:10:23Z</time>
      </trkpt>
      <trkpt lat="43.82483" lon="6.94572">
        <ele>1470.6463623047</ele>
        <time>2012-07-04T16:10:28Z</time>
      </trkpt>
      <trkpt lat="43.82471" lon="6.94574">
        <ele>1471.4873046875</ele>
        <time>2012-07-04T16:10:34Z</time>
      </trkpt>
      <trkpt lat="43.82462" lon="6.94582">
        <ele>1472.216796875</ele>
        <time>2012-07-04T16:10:40Z</time>
      </trkpt>
      <trkpt lat="43.82453" lon="6.9459">
        <ele>1472.8502197266</ele>
        <time>2012-07-04T16:10:46Z</time>
      </trkpt>
      <trkpt lat="43.82443" lon="6.94594">
        <ele>1474.1444091797</ele>
        <time>2012-07-04T16:10:52Z</time>
      </trkpt>
      <trkpt lat="43.82438" lon="6.94598">
        <ele>1475.4764404297</ele>
        <time>2012-07-04T16:10:57Z</time>
      </trkpt>
      <trkpt lat="43.82432" lon="6.94609">
        <ele>1477.1586914062</ele>
        <time>2012-07-04T16:11:04Z</time>
      </trkpt>
      <trkpt lat="43.82428" lon="6.94612">
        <ele>1478.3349609375</ele>
        <time>2012-07-04T16:11:09Z</time>
      </trkpt>
      <trkpt lat="43.82423" lon="6.94616">
        <ele>1480.0653076172</ele>
        <time>2012-07-04T16:11:19Z</time>
      </trkpt>
      <trkpt lat="43.82417" lon="6.94619">
        <ele>1482.0190429688</ele>
        <time>2012-07-04T16:11:26Z</time>
      </trkpt>
      <trkpt lat="43.82412" lon="6.9462">
        <ele>1482.6232910156</ele>
        <time>2012-07-04T16:11:34Z</time>
      </trkpt>
      <trkpt lat="43.82405" lon="6.94624">
        <ele>1483.6120605469</ele>
        <time>2012-07-04T16:11:43Z</time>
      </trkpt>
      <trkpt lat="43.82401" lon="6.94625">
        <ele>1484.2163085938</ele>
        <time>2012-07-04T16:11:48Z</time>
      </trkpt>
      <trkpt lat="43.824" lon="6.94625">
        <ele>1484.3811035156</ele>
        <time>2012-07-04T16:11:50Z</time>
      </trkpt>
      <trkpt lat="43.82399" lon="6.94627">
        <ele>1484.4909667969</ele>
        <time>2012-07-04T16:11:52Z</time>
      </trkpt>
      <trkpt lat="43.82399" lon="6.94628">
        <ele>1484.5458984375</ele>
        <time>2012-07-04T16:11:54Z</time>
      </trkpt>
      <trkpt lat="43.82396" lon="6.94632">
        <ele>1484.9853515625</ele>
        <time>2012-07-04T16:12:00Z</time>
      </trkpt>
      <trkpt lat="43.8239" lon="6.94638">
        <ele>1485.8642578125</ele>
        <time>2012-07-04T16:12:08Z</time>
      </trkpt>
      <trkpt lat="43.82382" lon="6.94641">
        <ele>1487.1201171875</ele>
        <time>2012-07-04T16:12:16Z</time>
      </trkpt>
      <trkpt lat="43.82376" lon="6.94643">
        <ele>1488.2204589844</ele>
        <time>2012-07-04T16:12:24Z</time>
      </trkpt>
      <trkpt lat="43.82375" lon="6.94644">
        <ele>1488.3251953125</ele>
        <time>2012-07-04T16:12:25Z</time>
      </trkpt>
      <trkpt lat="43.8237" lon="6.94649">
        <ele>1489.041015625</ele>
        <time>2012-07-04T16:12:31Z</time>
      </trkpt>
      <trkpt lat="43.82369" lon="6.9465">
        <ele>1489.154296875</ele>
        <time>2012-07-04T16:12:32Z</time>
      </trkpt>
      <trkpt lat="43.82364" lon="6.94653">
        <ele>1490.0074462891</ele>
        <time>2012-07-04T16:12:38Z</time>
      </trkpt>
      <trkpt lat="43.82362" lon="6.94653">
        <ele>1490.4194335938</ele>
        <time>2012-07-04T16:12:40Z</time>
      </trkpt>
      <trkpt lat="43.82355" lon="6.94655">
        <ele>1491.2834472656</ele>
        <time>2012-07-04T16:12:47Z</time>
      </trkpt>
      <trkpt lat="43.82354" lon="6.94656">
        <ele>1491.3435058594</ele>
        <time>2012-07-04T16:12:49Z</time>
      </trkpt>
      <trkpt lat="43.82351" lon="6.94658">
        <ele>1491.7863769531</ele>
        <time>2012-07-04T16:12:52Z</time>
      </trkpt>
      <trkpt lat="43.82349" lon="6.94658">
        <ele>1491.9992675781</ele>
        <time>2012-07-04T16:12:53Z</time>
      </trkpt>
      <trkpt lat="43.82348" lon="6.94657">
        <ele>1492.2481689453</ele>
        <time>2012-07-04T16:12:54Z</time>
      </trkpt>
      <trkpt lat="43.82345" lon="6.94655">
        <ele>1492.7562255859</ele>
        <time>2012-07-04T16:12:57Z</time>
      </trkpt>
      <trkpt lat="43.82341" lon="6.94655">
        <ele>1493.3776855469</ele>
        <time>2012-07-04T16:13:01Z</time>
      </trkpt>
      <trkpt lat="43.82338" lon="6.94654">
        <ele>1493.7296142578</ele>
        <time>2012-07-04T16:13:03Z</time>
      </trkpt>
      <trkpt lat="43.82337" lon="6.94655">
        <ele>1493.9338378906</ele>
        <time>2012-07-04T16:13:04Z</time>
      </trkpt>
      <trkpt lat="43.82335" lon="6.94656">
        <ele>1494.1741943359</ele>
        <time>2012-07-04T16:13:06Z</time>
      </trkpt>
      <trkpt lat="43.82335" lon="6.94656">
        <ele>1494.2188720703</ele>
        <time>2012-07-04T16:13:08Z</time>
      </trkpt>
      <trkpt lat="43.82331" lon="6.94655">
        <ele>1494.7846679688</ele>
        <time>2012-07-04T16:13:14Z</time>
      </trkpt>
      <trkpt lat="43.82327" lon="6.94653">
        <ele>1495.5355224609</ele>
        <time>2012-07-04T16:13:22Z</time>
      </trkpt>
      <trkpt lat="43.82322" lon="6.94655">
        <ele>1496.3054199219</ele>
        <time>2012-07-04T16:13:28Z</time>
      </trkpt>
      <trkpt lat="43.8231" lon="6.94653">
        <ele>1498.2598876953</ele>
        <time>2012-07-04T16:13:34Z</time>
      </trkpt>
      <trkpt lat="43.82298" lon="6.94653">
        <ele>1499</ele>
        <time>2012-07-04T16:13:40Z</time>
      </trkpt>
      <trkpt lat="43.82287" lon="6.94657">
        <ele>1499</ele>
        <time>2012-07-04T16:13:46Z</time>
      </trkpt>
      <trkpt lat="43.82279" lon="6.94665">
        <ele>1499</ele>
        <time>2012-07-04T16:13:52Z</time>
      </trkpt>
      <trkpt lat="43.82276" lon="6.94666">
        <ele>1499</ele>
        <time>2012-07-04T16:13:57Z</time>
      </trkpt>
      <trkpt lat="43.82273" lon="6.94665">
        <ele>1499</ele>
        <time>2012-07-04T16:14:02Z</time>
      </trkpt>
      <trkpt lat="43.82272" lon="6.9466">
        <ele>1499</ele>
        <time>2012-07-04T16:14:09Z</time>
      </trkpt>
      <trkpt lat="43.82268" lon="6.94662">
        <ele>1499</ele>
        <time>2012-07-04T16:14:16Z</time>
      </trkpt>
      <trkpt lat="43.82266" lon="6.94662">
        <ele>1499</ele>
        <time>2012-07-04T16:14:22Z</time>
      </trkpt>
      <trkpt lat="43.82267" lon="6.94662">
        <ele>1499</ele>
        <time>2012-07-04T16:14:49Z</time>
      </trkpt>
      <trkpt lat="43.82261" lon="6.94665">
        <ele>1499</ele>
        <time>2012-07-04T16:15:43Z</time>
      </trkpt>
      <trkpt lat="43.82244" lon="6.94671">
        <ele>1498.8521728516</ele>
        <time>2012-07-04T16:15:50Z</time>
      </trkpt>
      <trkpt lat="43.82225" lon="6.94675">
        <ele>1498.7062988281</ele>
        <time>2012-07-04T16:15:59Z</time>
      </trkpt>
      <trkpt lat="43.82208" lon="6.94687">
        <ele>1498.2530517578</ele>
        <time>2012-07-04T16:16:08Z</time>
      </trkpt>
      <trkpt lat="43.82192" lon="6.94697">
        <ele>1498</ele>
        <time>2012-07-04T16:16:16Z</time>
      </trkpt>
      <trkpt lat="43.82178" lon="6.94696">
        <ele>1498</ele>
        <time>2012-07-04T16:16:22Z</time>
      </trkpt>
      <trkpt lat="43.82156" lon="6.9469">
        <ele>1498.1604003906</ele>
        <time>2012-07-04T16:16:29Z</time>
      </trkpt>
      <trkpt lat="43.82132" lon="6.9469">
        <ele>1498.1638183594</ele>
        <time>2012-07-04T16:16:36Z</time>
      </trkpt>
      <trkpt lat="43.82112" lon="6.94694">
        <ele>1498.0281982422</ele>
        <time>2012-07-04T16:16:43Z</time>
      </trkpt>
      <trkpt lat="43.82087" lon="6.94693">
        <ele>1498.0659179688</ele>
        <time>2012-07-04T16:16:51Z</time>
      </trkpt>
      <trkpt lat="43.82064" lon="6.94684">
        <ele>1498.3629150391</ele>
        <time>2012-07-04T16:16:59Z</time>
      </trkpt>
      <trkpt lat="43.82045" lon="6.94674">
        <ele>1498.7371826172</ele>
        <time>2012-07-04T16:17:07Z</time>
      </trkpt>
      <trkpt lat="43.82037" lon="6.94672">
        <ele>1498.7904052734</ele>
        <time>2012-07-04T16:17:11Z</time>
      </trkpt>
      <trkpt lat="43.82034" lon="6.94675">
        <ele>1498.6890869141</ele>
        <time>2012-07-04T16:17:13Z</time>
      </trkpt>
      <trkpt lat="43.82029" lon="6.94676">
        <ele>1498.6701660156</ele>
        <time>2012-07-04T16:17:17Z</time>
      </trkpt>
      <trkpt lat="43.82027" lon="6.94676">
        <ele>1498.6667480469</ele>
        <time>2012-07-04T16:17:18Z</time>
      </trkpt>
      <trkpt lat="43.82023" lon="6.94678">
        <ele>1498.5826416016</ele>
        <time>2012-07-04T16:17:22Z</time>
      </trkpt>
      <trkpt lat="43.82021" lon="6.94678">
        <ele>1498.5913085938</ele>
        <time>2012-07-04T16:17:24Z</time>
      </trkpt>
      <trkpt lat="43.82015" lon="6.94678">
        <ele>1498.5809326172</ele>
        <time>2012-07-04T16:17:27Z</time>
      </trkpt>
      <trkpt lat="43.82012" lon="6.94677">
        <ele>1498.64453125</ele>
        <time>2012-07-04T16:17:28Z</time>
      </trkpt>
      <trkpt lat="43.82009" lon="6.94675">
        <ele>1498.6890869141</ele>
        <time>2012-07-04T16:17:29Z</time>
      </trkpt>
      <trkpt lat="43.81995" lon="6.94668">
        <ele>1498.9744873047</ele>
        <time>2012-07-04T16:17:34Z</time>
      </trkpt>
      <trkpt lat="43.8198" lon="6.9467">
        <ele>1498.9637451172</ele>
        <time>2012-07-04T16:17:39Z</time>
      </trkpt>
      <trkpt lat="43.8197" lon="6.94671">
        <ele>1499.0145263672</ele>
        <time>2012-07-04T16:17:44Z</time>
      </trkpt>
      <trkpt lat="43.81968" lon="6.94673">
        <ele>1499.0373535156</ele>
        <time>2012-07-04T16:17:48Z</time>
      </trkpt>
      <trkpt lat="43.81961" lon="6.94671">
        <ele>1499.0656738281</ele>
        <time>2012-07-04T16:17:52Z</time>
      </trkpt>
      <trkpt lat="43.81956" lon="6.9467">
        <ele>1499.0623779297</ele>
        <time>2012-07-04T16:17:54Z</time>
      </trkpt>
      <trkpt lat="43.81952" lon="6.94667">
        <ele>1499.013671875</ele>
        <time>2012-07-04T16:17:56Z</time>
      </trkpt>
      <trkpt lat="43.81945" lon="6.94663">
        <ele>1499</ele>
        <time>2012-07-04T16:18:01Z</time>
      </trkpt>
      <trkpt lat="43.81942" lon="6.9466">
        <ele>1499</ele>
        <time>2012-07-04T16:18:09Z</time>
      </trkpt>
      <trkpt lat="43.81931" lon="6.94656">
        <ele>1499</ele>
        <time>2012-07-04T16:18:13Z</time>
      </trkpt>
      <trkpt lat="43.81929" lon="6.94656">
        <ele>1499</ele>
        <time>2012-07-04T16:18:14Z</time>
      </trkpt>
      <trkpt lat="43.81923" lon="6.94657">
        <ele>1499</ele>
        <time>2012-07-04T16:18:19Z</time>
      </trkpt>
      <trkpt lat="43.81916" lon="6.94653">
        <ele>1499.0546875</ele>
        <time>2012-07-04T16:18:26Z</time>
      </trkpt>
      <trkpt lat="43.81913" lon="6.94651">
        <ele>1499.15234375</ele>
        <time>2012-07-04T16:18:28Z</time>
      </trkpt>
      <trkpt lat="43.8191" lon="6.94648">
        <ele>1499.2438964844</ele>
        <time>2012-07-04T16:18:31Z</time>
      </trkpt>
      <trkpt lat="43.81909" lon="6.94647">
        <ele>1499.2341308594</ele>
        <time>2012-07-04T16:18:32Z</time>
      </trkpt>
      <trkpt lat="43.81905" lon="6.94644">
        <ele>1499.2497558594</ele>
        <time>2012-07-04T16:18:37Z</time>
      </trkpt>
      <trkpt lat="43.81902" lon="6.94643">
        <ele>1499.2199707031</ele>
        <time>2012-07-04T16:18:39Z</time>
      </trkpt>
      <trkpt lat="43.81897" lon="6.94636">
        <ele>1498.9033203125</ele>
        <time>2012-07-04T16:18:46Z</time>
      </trkpt>
      <trkpt lat="43.81896" lon="6.94635">
        <ele>1498.8706054688</ele>
        <time>2012-07-04T16:18:47Z</time>
      </trkpt>
      <trkpt lat="43.81893" lon="6.94631">
        <ele>1498.7041015625</ele>
        <time>2012-07-04T16:18:54Z</time>
      </trkpt>
      <trkpt lat="43.81891" lon="6.94621">
        <ele>1498.3642578125</ele>
        <time>2012-07-04T16:19:01Z</time>
      </trkpt>
      <trkpt lat="43.81891" lon="6.94614">
        <ele>1498.0964355469</ele>
        <time>2012-07-04T16:19:08Z</time>
      </trkpt>
      <trkpt lat="43.81891" lon="6.9461">
        <ele>1498</ele>
        <time>2012-07-04T16:19:13Z</time>
      </trkpt>
      <trkpt lat="43.81888" lon="6.94608">
        <ele>1497.9970703125</ele>
        <time>2012-07-04T16:19:17Z</time>
      </trkpt>
      <trkpt lat="43.81884" lon="6.946">
        <ele>1497.9362792969</ele>
        <time>2012-07-04T16:19:25Z</time>
      </trkpt>
      <trkpt lat="43.81883" lon="6.94596">
        <ele>1497.8823242188</ele>
        <time>2012-07-04T16:19:32Z</time>
      </trkpt>
      <trkpt lat="43.81883" lon="6.94592">
        <ele>1497.8487548828</ele>
        <time>2012-07-04T16:19:35Z</time>
      </trkpt>
      <trkpt lat="43.81882" lon="6.94586">
        <ele>1497.7779541016</ele>
        <time>2012-07-04T16:19:40Z</time>
      </trkpt>
      <trkpt lat="43.81882" lon="6.94585">
        <ele>1497.7700195312</ele>
        <time>2012-07-04T16:19:41Z</time>
      </trkpt>
      <trkpt lat="43.81879" lon="6.94578">
        <ele>1497.4528808594</ele>
        <time>2012-07-04T16:19:49Z</time>
      </trkpt>
      <trkpt lat="43.81877" lon="6.94577">
        <ele>1497.3430175781</ele>
        <time>2012-07-04T16:19:56Z</time>
      </trkpt>
      <trkpt lat="43.81875" lon="6.94581">
        <ele>1497.4167480469</ele>
        <time>2012-07-04T16:20:03Z</time>
      </trkpt>
      <trkpt lat="43.81871" lon="6.94581">
        <ele>1497.2794189453</ele>
        <time>2012-07-04T16:20:11Z</time>
      </trkpt>
      <trkpt lat="43.81874" lon="6.94573">
        <ele>1497.0786132812</ele>
        <time>2012-07-04T16:20:17Z</time>
      </trkpt>
      <trkpt lat="43.81874" lon="6.94571">
        <ele>1497.0545654297</ele>
        <time>2012-07-04T16:20:18Z</time>
      </trkpt>
      <trkpt lat="43.81872" lon="6.94564">
        <ele>1496.6787109375</ele>
        <time>2012-07-04T16:20:24Z</time>
      </trkpt>
      <trkpt lat="43.8187" lon="6.94558">
        <ele>1496.3919677734</ele>
        <time>2012-07-04T16:20:31Z</time>
      </trkpt>
      <trkpt lat="43.81869" lon="6.94557">
        <ele>1496.3284912109</ele>
        <time>2012-07-04T16:20:32Z</time>
      </trkpt>
      <trkpt lat="43.81867" lon="6.94555">
        <ele>1496.2158203125</ele>
        <time>2012-07-04T16:20:36Z</time>
      </trkpt>
      <trkpt lat="43.81866" lon="6.94551">
        <ele>1496.1384277344</ele>
        <time>2012-07-04T16:20:43Z</time>
      </trkpt>
      <trkpt lat="43.81855" lon="6.94553">
        <ele>1496</ele>
        <time>2012-07-04T16:21:11Z</time>
      </trkpt>
      <trkpt lat="43.81852" lon="6.94554">
        <ele>1496</ele>
        <time>2012-07-04T16:21:13Z</time>
      </trkpt>
      <trkpt lat="43.81848" lon="6.94554">
        <ele>1496</ele>
        <time>2012-07-04T16:21:15Z</time>
      </trkpt>
      <trkpt lat="43.81845" lon="6.94557">
        <ele>1496.0908203125</ele>
        <time>2012-07-04T16:21:19Z</time>
      </trkpt>
      <trkpt lat="43.81843" lon="6.94559">
        <ele>1496.2200927734</ele>
        <time>2012-07-04T16:21:23Z</time>
      </trkpt>
      <trkpt lat="43.81842" lon="6.9456">
        <ele>1496.2879638672</ele>
        <time>2012-07-04T16:21:24Z</time>
      </trkpt>
      <trkpt lat="43.81841" lon="6.94561">
        <ele>1496.3597412109</ele>
        <time>2012-07-04T16:21:27Z</time>
      </trkpt>
      <trkpt lat="43.81839" lon="6.94561">
        <ele>1496.3581542969</ele>
        <time>2012-07-04T16:21:30Z</time>
      </trkpt>
      <trkpt lat="43.81836" lon="6.94555">
        <ele>1496</ele>
        <time>2012-07-04T16:21:37Z</time>
      </trkpt>
      <trkpt lat="43.81833" lon="6.94554">
        <ele>1496.0155029297</ele>
        <time>2012-07-04T16:21:43Z</time>
      </trkpt>
      <trkpt lat="43.8183" lon="6.94553">
        <ele>1496.1037597656</ele>
        <time>2012-07-04T16:21:48Z</time>
      </trkpt>
      <trkpt lat="43.81825" lon="6.94548">
        <ele>1496.2194824219</ele>
        <time>2012-07-04T16:21:54Z</time>
      </trkpt>
      <trkpt lat="43.81822" lon="6.94547">
        <ele>1496.2722167969</ele>
        <time>2012-07-04T16:21:55Z</time>
      </trkpt>
      <trkpt lat="43.81814" lon="6.94545">
        <ele>1496.4256591797</ele>
        <time>2012-07-04T16:21:58Z</time>
      </trkpt>
      <trkpt lat="43.81811" lon="6.94543">
        <ele>1496.4572753906</ele>
        <time>2012-07-04T16:21:59Z</time>
      </trkpt>
      <trkpt lat="43.81793" lon="6.94537">
        <ele>1492.4616699219</ele>
        <time>2012-07-04T16:22:03Z</time>
      </trkpt>
      <trkpt lat="43.81782" lon="6.94524">
        <ele>1486.8902587891</ele>
        <time>2012-07-04T16:22:07Z</time>
      </trkpt>
      <trkpt lat="43.81773" lon="6.94511">
        <ele>1482.5955810547</ele>
        <time>2012-07-04T16:22:12Z</time>
      </trkpt>
      <trkpt lat="43.81776" lon="6.94503">
        <ele>1480.7364501953</ele>
        <time>2012-07-04T16:22:15Z</time>
      </trkpt>
      <trkpt lat="43.81777" lon="6.94499">
        <ele>1479.9038085938</ele>
        <time>2012-07-04T16:22:19Z</time>
      </trkpt>
      <trkpt lat="43.81776" lon="6.94498">
        <ele>1479.8598632812</ele>
        <time>2012-07-04T16:22:25Z</time>
      </trkpt>
      <trkpt lat="43.81769" lon="6.94496">
        <ele>1479.5328369141</ele>
        <time>2012-07-04T16:22:30Z</time>
      </trkpt>
      <trkpt lat="43.81765" lon="6.94498">
        <ele>1479.7117919922</ele>
        <time>2012-07-04T16:22:32Z</time>
      </trkpt>
      <trkpt lat="43.8176" lon="6.945">
        <ele>1479.9620361328</ele>
        <time>2012-07-04T16:22:34Z</time>
      </trkpt>
      <trkpt lat="43.81749" lon="6.945">
        <ele>1479.9895019531</ele>
        <time>2012-07-04T16:22:39Z</time>
      </trkpt>
      <trkpt lat="43.81742" lon="6.94501">
        <ele>1480.7305908203</ele>
        <time>2012-07-04T16:22:42Z</time>
      </trkpt>
      <trkpt lat="43.8174" lon="6.94501">
        <ele>1480.9975585938</ele>
        <time>2012-07-04T16:22:43Z</time>
      </trkpt>
      <trkpt lat="43.81737" lon="6.94498">
        <ele>1480.5681152344</ele>
        <time>2012-07-04T16:22:46Z</time>
      </trkpt>
      <trkpt lat="43.81736" lon="6.94498">
        <ele>1480.5</ele>
        <time>2012-07-04T16:22:47Z</time>
      </trkpt>
      <trkpt lat="43.81733" lon="6.94496">
        <ele>1480.1492919922</ele>
        <time>2012-07-04T16:22:52Z</time>
      </trkpt>
      <trkpt lat="43.81736" lon="6.94491">
        <ele>1478.9075927734</ele>
        <time>2012-07-04T16:22:58Z</time>
      </trkpt>
      <trkpt lat="43.81739" lon="6.94484">
        <ele>1477.2369384766</ele>
        <time>2012-07-04T16:23:00Z</time>
      </trkpt>
      <trkpt lat="43.81739" lon="6.94476">
        <ele>1475.4135742188</ele>
        <time>2012-07-04T16:23:05Z</time>
      </trkpt>
      <trkpt lat="43.81732" lon="6.94477">
        <ele>1475.623046875</ele>
        <time>2012-07-04T16:23:09Z</time>
      </trkpt>
      <trkpt lat="43.8173" lon="6.94471">
        <ele>1474.0887451172</ele>
        <time>2012-07-04T16:23:13Z</time>
      </trkpt>
      <trkpt lat="43.81729" lon="6.94472">
        <ele>1474.2025146484</ele>
        <time>2012-07-04T16:23:18Z</time>
      </trkpt>
      <trkpt lat="43.81727" lon="6.94473">
        <ele>1474.4868164062</ele>
        <time>2012-07-04T16:23:24Z</time>
      </trkpt>
      <trkpt lat="43.81723" lon="6.94483">
        <ele>1477.1112060547</ele>
        <time>2012-07-04T16:23:29Z</time>
      </trkpt>
      <trkpt lat="43.81721" lon="6.94484">
        <ele>1477.3846435547</ele>
        <time>2012-07-04T16:23:30Z</time>
      </trkpt>
      <trkpt lat="43.81713" lon="6.94487">
        <ele>1477.9506835938</ele>
        <time>2012-07-04T16:23:33Z</time>
      </trkpt>
      <trkpt lat="43.81709" lon="6.94488">
        <ele>1478.2531738281</ele>
        <time>2012-07-04T16:23:34Z</time>
      </trkpt>
      <trkpt lat="43.81693" lon="6.94492">
        <ele>1478.9421386719</ele>
        <time>2012-07-04T16:23:37Z</time>
      </trkpt>
      <trkpt lat="43.81676" lon="6.94498">
        <ele>1481.3641357422</ele>
        <time>2012-07-04T16:23:41Z</time>
      </trkpt>
      <trkpt lat="43.8167" lon="6.94498">
        <ele>1481.2419433594</ele>
        <time>2012-07-04T16:23:43Z</time>
      </trkpt>
      <trkpt lat="43.81664" lon="6.94497">
        <ele>1480.7302246094</ele>
        <time>2012-07-04T16:23:45Z</time>
      </trkpt>
      <trkpt lat="43.81647" lon="6.94492">
        <ele>1478.361328125</ele>
        <time>2012-07-04T16:23:50Z</time>
      </trkpt>
      <trkpt lat="43.81642" lon="6.94482">
        <ele>1474.1590576172</ele>
        <time>2012-07-04T16:23:53Z</time>
      </trkpt>
      <trkpt lat="43.81641" lon="6.94475">
        <ele>1471.1309814453</ele>
        <time>2012-07-04T16:23:55Z</time>
      </trkpt>
      <trkpt lat="43.8163" lon="6.94469">
        <ele>1468.8138427734</ele>
        <time>2012-07-04T16:23:58Z</time>
      </trkpt>
      <trkpt lat="43.81622" lon="6.94465">
        <ele>1467.3547363281</ele>
        <time>2012-07-04T16:24:00Z</time>
      </trkpt>
      <trkpt lat="43.81615" lon="6.94461">
        <ele>1465.8441162109</ele>
        <time>2012-07-04T16:24:02Z</time>
      </trkpt>
      <trkpt lat="43.81605" lon="6.94453">
        <ele>1463.1318359375</ele>
        <time>2012-07-04T16:24:06Z</time>
      </trkpt>
      <trkpt lat="43.81587" lon="6.94443">
        <ele>1459.6300048828</ele>
        <time>2012-07-04T16:24:10Z</time>
      </trkpt>
      <trkpt lat="43.81574" lon="6.94444">
        <ele>1458.6534423828</ele>
        <time>2012-07-04T16:24:14Z</time>
      </trkpt>
      <trkpt lat="43.81564" lon="6.94446">
        <ele>1458.4743652344</ele>
        <time>2012-07-04T16:24:18Z</time>
      </trkpt>
      <trkpt lat="43.81561" lon="6.94447">
        <ele>1458.1733398438</ele>
        <time>2012-07-04T16:24:19Z</time>
      </trkpt>
      <trkpt lat="43.81557" lon="6.94445">
        <ele>1457.2822265625</ele>
        <time>2012-07-04T16:24:20Z</time>
      </trkpt>
      <trkpt lat="43.81547" lon="6.9444">
        <ele>1454.9094238281</ele>
        <time>2012-07-04T16:24:23Z</time>
      </trkpt>
      <trkpt lat="43.81533" lon="6.94418">
        <ele>1447.681640625</ele>
        <time>2012-07-04T16:24:27Z</time>
      </trkpt>
      <trkpt lat="43.81526" lon="6.94404">
        <ele>1444.6604003906</ele>
        <time>2012-07-04T16:24:30Z</time>
      </trkpt>
      <trkpt lat="43.81524" lon="6.944">
        <ele>1443.7591552734</ele>
        <time>2012-07-04T16:24:31Z</time>
      </trkpt>
      <trkpt lat="43.8152" lon="6.94393">
        <ele>1442.1352539062</ele>
        <time>2012-07-04T16:24:33Z</time>
      </trkpt>
      <trkpt lat="43.81516" lon="6.94387">
        <ele>1440.9445800781</ele>
        <time>2012-07-04T16:24:35Z</time>
      </trkpt>
      <trkpt lat="43.81507" lon="6.94383">
        <ele>1439.8015136719</ele>
        <time>2012-07-04T16:24:38Z</time>
      </trkpt>
      <trkpt lat="43.81505" lon="6.94381">
        <ele>1439.4692382812</ele>
        <time>2012-07-04T16:24:39Z</time>
      </trkpt>
      <trkpt lat="43.81501" lon="6.94375">
        <ele>1438.6002197266</ele>
        <time>2012-07-04T16:24:41Z</time>
      </trkpt>
      <trkpt lat="43.81496" lon="6.94372">
        <ele>1437.9427490234</ele>
        <time>2012-07-04T16:24:43Z</time>
      </trkpt>
      <trkpt lat="43.81487" lon="6.94361">
        <ele>1436.5771484375</ele>
        <time>2012-07-04T16:24:47Z</time>
      </trkpt>
      <trkpt lat="43.81477" lon="6.94354">
        <ele>1436.1160888672</ele>
        <time>2012-07-04T16:24:51Z</time>
      </trkpt>
      <trkpt lat="43.81475" lon="6.94354">
        <ele>1436.0749511719</ele>
        <time>2012-07-04T16:24:54Z</time>
      </trkpt>
      <trkpt lat="43.81478" lon="6.94357">
        <ele>1436.1809082031</ele>
        <time>2012-07-04T16:25:46Z</time>
      </trkpt>
      <trkpt lat="43.81478" lon="6.94357">
        <ele>1436.1831054688</ele>
        <time>2012-07-04T16:25:49Z</time>
      </trkpt>
      <trkpt lat="43.81469" lon="6.94364">
        <ele>1435.9495849609</ele>
        <time>2012-07-04T16:28:17Z</time>
      </trkpt>
      <trkpt lat="43.81459" lon="6.94364">
        <ele>1435.1372070312</ele>
        <time>2012-07-04T16:28:21Z</time>
      </trkpt>
      <trkpt lat="43.81453" lon="6.94361">
        <ele>1434.5843505859</ele>
        <time>2012-07-04T16:28:24Z</time>
      </trkpt>
      <trkpt lat="43.81451" lon="6.94357">
        <ele>1434.4744873047</ele>
        <time>2012-07-04T16:28:25Z</time>
      </trkpt>
      <trkpt lat="43.8145" lon="6.94349">
        <ele>1434.3646240234</ele>
        <time>2012-07-04T16:28:29Z</time>
      </trkpt>
      <trkpt lat="43.81445" lon="6.94346">
        <ele>1434.0075683594</ele>
        <time>2012-07-04T16:28:35Z</time>
      </trkpt>
      <trkpt lat="43.81442" lon="6.94348">
        <ele>1433.4876708984</ele>
        <time>2012-07-04T16:28:41Z</time>
      </trkpt>
      <trkpt lat="43.81438" lon="6.94344">
        <ele>1432.4444580078</ele>
        <time>2012-07-04T16:28:46Z</time>
      </trkpt>
      <trkpt lat="43.8143" lon="6.94334">
        <ele>1430.95703125</ele>
        <time>2012-07-04T16:28:51Z</time>
      </trkpt>
      <trkpt lat="43.81424" lon="6.94324">
        <ele>1429.4908447266</ele>
        <time>2012-07-04T16:28:55Z</time>
      </trkpt>
      <trkpt lat="43.8142" lon="6.94311">
        <ele>1428.6668701172</ele>
        <time>2012-07-04T16:29:00Z</time>
      </trkpt>
      <trkpt lat="43.81417" lon="6.94304">
        <ele>1428.0588378906</ele>
        <time>2012-07-04T16:29:05Z</time>
      </trkpt>
      <trkpt lat="43.81414" lon="6.94299">
        <ele>1427.7778320312</ele>
        <time>2012-07-04T16:29:10Z</time>
      </trkpt>
      <trkpt lat="43.8141" lon="6.94292">
        <ele>1427.2628173828</ele>
        <time>2012-07-04T16:29:15Z</time>
      </trkpt>
      <trkpt lat="43.81409" lon="6.94292">
        <ele>1427.1306152344</ele>
        <time>2012-07-04T16:29:16Z</time>
      </trkpt>
      <trkpt lat="43.81408" lon="6.94288">
        <ele>1426.9985351562</ele>
        <time>2012-07-04T16:29:19Z</time>
      </trkpt>
      <trkpt lat="43.81405" lon="6.94273">
        <ele>1427.0101318359</ele>
        <time>2012-07-04T16:29:24Z</time>
      </trkpt>
      <trkpt lat="43.81402" lon="6.9426">
        <ele>1426.6680908203</ele>
        <time>2012-07-04T16:29:29Z</time>
      </trkpt>
      <trkpt lat="43.81401" lon="6.94258">
        <ele>1426.6514892578</ele>
        <time>2012-07-04T16:29:30Z</time>
      </trkpt>
      <trkpt lat="43.81402" lon="6.94252">
        <ele>1426.8295898438</ele>
        <time>2012-07-04T16:29:35Z</time>
      </trkpt>
      <trkpt lat="43.81401" lon="6.94245">
        <ele>1426.8726806641</ele>
        <time>2012-07-04T16:29:40Z</time>
      </trkpt>
      <trkpt lat="43.81401" lon="6.94235">
        <ele>1427.2932128906</ele>
        <time>2012-07-04T16:29:47Z</time>
      </trkpt>
      <trkpt lat="43.814" lon="6.94231">
        <ele>1427.28125</ele>
        <time>2012-07-04T16:29:53Z</time>
      </trkpt>
      <trkpt lat="43.81394" lon="6.94228">
        <ele>1426.5568847656</ele>
        <time>2012-07-04T16:29:58Z</time>
      </trkpt>
      <trkpt lat="43.81393" lon="6.94229">
        <ele>1426.3559570312</ele>
        <time>2012-07-04T16:29:59Z</time>
      </trkpt>
      <trkpt lat="43.81388" lon="6.94236">
        <ele>1425.3497314453</ele>
        <time>2012-07-04T16:30:03Z</time>
      </trkpt>
      <trkpt lat="43.81384" lon="6.9423">
        <ele>1424.6013183594</ele>
        <time>2012-07-04T16:30:07Z</time>
      </trkpt>
      <trkpt lat="43.8138" lon="6.9424">
        <ele>1423.6710205078</ele>
        <time>2012-07-04T16:30:11Z</time>
      </trkpt>
      <trkpt lat="43.81374" lon="6.94239">
        <ele>1422.5654296875</ele>
        <time>2012-07-04T16:30:14Z</time>
      </trkpt>
      <trkpt lat="43.81365" lon="6.94227">
        <ele>1420.8590087891</ele>
        <time>2012-07-04T16:30:17Z</time>
      </trkpt>
      <trkpt lat="43.81352" lon="6.94217">
        <ele>1417.6667480469</ele>
        <time>2012-07-04T16:30:20Z</time>
      </trkpt>
      <trkpt lat="43.81348" lon="6.94216">
        <ele>1416.7055664062</ele>
        <time>2012-07-04T16:30:21Z</time>
      </trkpt>
      <trkpt lat="43.81336" lon="6.94216">
        <ele>1413.7254638672</ele>
        <time>2012-07-04T16:30:25Z</time>
      </trkpt>
      <trkpt lat="43.81334" lon="6.94215">
        <ele>1413.0524902344</ele>
        <time>2012-07-04T16:30:26Z</time>
      </trkpt>
      <trkpt lat="43.81323" lon="6.94214">
        <ele>1410.8454589844</ele>
        <time>2012-07-04T16:30:29Z</time>
      </trkpt>
      <trkpt lat="43.81308" lon="6.94218">
        <ele>1407.7537841797</ele>
        <time>2012-07-04T16:30:32Z</time>
      </trkpt>
      <trkpt lat="43.81304" lon="6.94218">
        <ele>1406.7044677734</ele>
        <time>2012-07-04T16:30:33Z</time>
      </trkpt>
      <trkpt lat="43.81287" lon="6.94224">
        <ele>1402.3941650391</ele>
        <time>2012-07-04T16:30:37Z</time>
      </trkpt>
      <trkpt lat="43.81281" lon="6.94227">
        <ele>1400.671875</ele>
        <time>2012-07-04T16:30:39Z</time>
      </trkpt>
      <trkpt lat="43.81275" lon="6.94233">
        <ele>1399.7852783203</ele>
        <time>2012-07-04T16:30:42Z</time>
      </trkpt>
      <trkpt lat="43.81273" lon="6.94233">
        <ele>1399.6754150391</ele>
        <time>2012-07-04T16:30:43Z</time>
      </trkpt>
      <trkpt lat="43.81271" lon="6.94232">
        <ele>1399.5380859375</ele>
        <time>2012-07-04T16:30:46Z</time>
      </trkpt>
      <trkpt lat="43.81269" lon="6.94231">
        <ele>1399.3732910156</ele>
        <time>2012-07-04T16:30:50Z</time>
      </trkpt>
      <trkpt lat="43.81264" lon="6.94228">
        <ele>1399.0437011719</ele>
        <time>2012-07-04T16:30:57Z</time>
      </trkpt>
      <trkpt lat="43.81259" lon="6.94223">
        <ele>1398.6591796875</ele>
        <time>2012-07-04T16:31:03Z</time>
      </trkpt>
      <trkpt lat="43.81248" lon="6.94219">
        <ele>1397.8626708984</ele>
        <time>2012-07-04T16:31:08Z</time>
      </trkpt>
      <trkpt lat="43.81234" lon="6.94205">
        <ele>1396.8464355469</ele>
        <time>2012-07-04T16:31:13Z</time>
      </trkpt>
      <trkpt lat="43.81223" lon="6.94198">
        <ele>1396.0499267578</ele>
        <time>2012-07-04T16:31:16Z</time>
      </trkpt>
      <trkpt lat="43.81217" lon="6.94183">
        <ele>1395.0042724609</ele>
        <time>2012-07-04T16:31:20Z</time>
      </trkpt>
      <trkpt lat="43.81212" lon="6.94166">
        <ele>1393.873046875</ele>
        <time>2012-07-04T16:31:24Z</time>
      </trkpt>
      <trkpt lat="43.81211" lon="6.94156">
        <ele>1393.5935058594</ele>
        <time>2012-07-04T16:31:27Z</time>
      </trkpt>
      <trkpt lat="43.81212" lon="6.94152">
        <ele>1393.6877441406</ele>
        <time>2012-07-04T16:31:28Z</time>
      </trkpt>
      <trkpt lat="43.81215" lon="6.9414">
        <ele>1393.9582519531</ele>
        <time>2012-07-04T16:31:31Z</time>
      </trkpt>
      <trkpt lat="43.81215" lon="6.94133">
        <ele>1393.4876708984</ele>
        <time>2012-07-04T16:31:33Z</time>
      </trkpt>
      <trkpt lat="43.81209" lon="6.94112">
        <ele>1391.1771240234</ele>
        <time>2012-07-04T16:31:38Z</time>
      </trkpt>
      <trkpt lat="43.81199" lon="6.94101">
        <ele>1389.216796875</ele>
        <time>2012-07-04T16:31:42Z</time>
      </trkpt>
      <trkpt lat="43.81178" lon="6.94102">
        <ele>1386.64453125</ele>
        <time>2012-07-04T16:31:47Z</time>
      </trkpt>
      <trkpt lat="43.81161" lon="6.94106">
        <ele>1385.0983886719</ele>
        <time>2012-07-04T16:31:51Z</time>
      </trkpt>
      <trkpt lat="43.81153" lon="6.94105">
        <ele>1384.1268310547</ele>
        <time>2012-07-04T16:31:53Z</time>
      </trkpt>
      <trkpt lat="43.81148" lon="6.941">
        <ele>1383.1689453125</ele>
        <time>2012-07-04T16:31:55Z</time>
      </trkpt>
      <trkpt lat="43.81136" lon="6.94093">
        <ele>1381.5891113281</ele>
        <time>2012-07-04T16:32:00Z</time>
      </trkpt>
      <trkpt lat="43.81127" lon="6.94097">
        <ele>1381.5856933594</ele>
        <time>2012-07-04T16:32:03Z</time>
      </trkpt>
      <trkpt lat="43.81116" lon="6.94099">
        <ele>1381.2938232422</ele>
        <time>2012-07-04T16:32:07Z</time>
      </trkpt>
      <trkpt lat="43.81111" lon="6.94101">
        <ele>1381.2525634766</ele>
        <time>2012-07-04T16:32:09Z</time>
      </trkpt>
      <trkpt lat="43.81109" lon="6.94103">
        <ele>1381.4299316406</ele>
        <time>2012-07-04T16:32:10Z</time>
      </trkpt>
      <trkpt lat="43.81105" lon="6.94105">
        <ele>1381.5500488281</ele>
        <time>2012-07-04T16:32:11Z</time>
      </trkpt>
      <trkpt lat="43.81095" lon="6.94114">
        <ele>1382.1783447266</ele>
        <time>2012-07-04T16:32:15Z</time>
      </trkpt>
      <trkpt lat="43.81094" lon="6.94115">
        <ele>1382.2813720703</ele>
        <time>2012-07-04T16:32:16Z</time>
      </trkpt>
      <trkpt lat="43.81092" lon="6.94115">
        <ele>1382.3054199219</ele>
        <time>2012-07-04T16:32:17Z</time>
      </trkpt>
      <trkpt lat="43.81084" lon="6.94116">
        <ele>1382.3671875</ele>
        <time>2012-07-04T16:32:20Z</time>
      </trkpt>
      <trkpt lat="43.81069" lon="6.94121">
        <ele>1383.5886230469</ele>
        <time>2012-07-04T16:32:26Z</time>
      </trkpt>
      <trkpt lat="43.81064" lon="6.94126">
        <ele>1384.0830078125</ele>
        <time>2012-07-04T16:32:29Z</time>
      </trkpt>
      <trkpt lat="43.8106" lon="6.94129">
        <ele>1384.4372558594</ele>
        <time>2012-07-04T16:32:31Z</time>
      </trkpt>
      <trkpt lat="43.81057" lon="6.9413">
        <ele>1384.5958251953</ele>
        <time>2012-07-04T16:32:32Z</time>
      </trkpt>
      <trkpt lat="43.81052" lon="6.94128">
        <ele>1384.7418212891</ele>
        <time>2012-07-04T16:32:35Z</time>
      </trkpt>
      <trkpt lat="43.81048" lon="6.9413">
        <ele>1384.9581298828</ele>
        <time>2012-07-04T16:32:37Z</time>
      </trkpt>
      <trkpt lat="43.8104" lon="6.94132">
        <ele>1385.3186035156</ele>
        <time>2012-07-04T16:32:40Z</time>
      </trkpt>
      <trkpt lat="43.81028" lon="6.94134">
        <ele>1385.8529052734</ele>
        <time>2012-07-04T16:32:44Z</time>
      </trkpt>
      <trkpt lat="43.81024" lon="6.94137">
        <ele>1386.1901855469</ele>
        <time>2012-07-04T16:32:45Z</time>
      </trkpt>
      <trkpt lat="43.81011" lon="6.94141">
        <ele>1387.2210693359</ele>
        <time>2012-07-04T16:32:49Z</time>
      </trkpt>
      <trkpt lat="43.80999" lon="6.94145">
        <ele>1388.0397949219</ele>
        <time>2012-07-04T16:32:53Z</time>
      </trkpt>
      <trkpt lat="43.80986" lon="6.94145">
        <ele>1388.9118652344</ele>
        <time>2012-07-04T16:32:58Z</time>
      </trkpt>
      <trkpt lat="43.80976" lon="6.94148">
        <ele>1389.4652099609</ele>
        <time>2012-07-04T16:33:03Z</time>
      </trkpt>
      <trkpt lat="43.80967" lon="6.94151">
        <ele>1389.7410888672</ele>
        <time>2012-07-04T16:33:08Z</time>
      </trkpt>
      <trkpt lat="43.80953" lon="6.94154">
        <ele>1390.1513671875</ele>
        <time>2012-07-04T16:33:15Z</time>
      </trkpt>
      <trkpt lat="43.80944" lon="6.94155">
        <ele>1390.5155029297</ele>
        <time>2012-07-04T16:33:19Z</time>
      </trkpt>
      <trkpt lat="43.80942" lon="6.94154">
        <ele>1391.0358886719</ele>
        <time>2012-07-04T16:33:20Z</time>
      </trkpt>
      <trkpt lat="43.80939" lon="6.94152">
        <ele>1391.6726074219</ele>
        <time>2012-07-04T16:33:22Z</time>
      </trkpt>
      <trkpt lat="43.80933" lon="6.94152">
        <ele>1392.9635009766</ele>
        <time>2012-07-04T16:33:24Z</time>
      </trkpt>
      <trkpt lat="43.80922" lon="6.94148">
        <ele>1395.7885742188</ele>
        <time>2012-07-04T16:33:29Z</time>
      </trkpt>
      <trkpt lat="43.8092" lon="6.94145">
        <ele>1396.4975585938</ele>
        <time>2012-07-04T16:33:30Z</time>
      </trkpt>
      <trkpt lat="43.80916" lon="6.94142">
        <ele>1397.6932373047</ele>
        <time>2012-07-04T16:33:32Z</time>
      </trkpt>
      <trkpt lat="43.80909" lon="6.94142">
        <ele>1397.4116210938</ele>
        <time>2012-07-04T16:33:36Z</time>
      </trkpt>
      <trkpt lat="43.80897" lon="6.94143">
        <ele>1396.8571777344</ele>
        <time>2012-07-04T16:33:41Z</time>
      </trkpt>
      <trkpt lat="43.80885" lon="6.94146">
        <ele>1396.2666015625</ele>
        <time>2012-07-04T16:33:46Z</time>
      </trkpt>
      <trkpt lat="43.80874" lon="6.94151">
        <ele>1395.7053222656</ele>
        <time>2012-07-04T16:33:51Z</time>
      </trkpt>
      <trkpt lat="43.80863" lon="6.94158">
        <ele>1394.9895019531</ele>
        <time>2012-07-04T16:33:57Z</time>
      </trkpt>
      <trkpt lat="43.80854" lon="6.94167">
        <ele>1393.3955078125</ele>
        <time>2012-07-04T16:34:02Z</time>
      </trkpt>
      <trkpt lat="43.8085" lon="6.94173">
        <ele>1391.8355712891</ele>
        <time>2012-07-04T16:34:05Z</time>
      </trkpt>
      <trkpt lat="43.80849" lon="6.94176">
        <ele>1391.3247070312</ele>
        <time>2012-07-04T16:34:06Z</time>
      </trkpt>
      <trkpt lat="43.80846" lon="6.9418">
        <ele>1390.3179931641</ele>
        <time>2012-07-04T16:34:08Z</time>
      </trkpt>
      <trkpt lat="43.80842" lon="6.94184">
        <ele>1389.3345947266</ele>
        <time>2012-07-04T16:34:11Z</time>
      </trkpt>
      <trkpt lat="43.80838" lon="6.94198">
        <ele>1386.5854492188</ele>
        <time>2012-07-04T16:34:15Z</time>
      </trkpt>
      <trkpt lat="43.80829" lon="6.94206">
        <ele>1383.9543457031</ele>
        <time>2012-07-04T16:34:18Z</time>
      </trkpt>
      <trkpt lat="43.80826" lon="6.94209">
        <ele>1382.7971191406</ele>
        <time>2012-07-04T16:34:19Z</time>
      </trkpt>
      <trkpt lat="43.8081" lon="6.94217">
        <ele>1378.4830322266</ele>
        <time>2012-07-04T16:34:24Z</time>
      </trkpt>
      <trkpt lat="43.80805" lon="6.94222">
        <ele>1376.9748535156</ele>
        <time>2012-07-04T16:34:26Z</time>
      </trkpt>
      <trkpt lat="43.80804" lon="6.94227">
        <ele>1376.1964111328</ele>
        <time>2012-07-04T16:34:28Z</time>
      </trkpt>
      <trkpt lat="43.80803" lon="6.94234">
        <ele>1375.6218261719</ele>
        <time>2012-07-04T16:34:31Z</time>
      </trkpt>
      <trkpt lat="43.80803" lon="6.94237">
        <ele>1375.2592773438</ele>
        <time>2012-07-04T16:34:33Z</time>
      </trkpt>
      <trkpt lat="43.80803" lon="6.94237">
        <ele>1375.3287353516</ele>
        <time>2012-07-04T16:34:34Z</time>
      </trkpt>
      <trkpt lat="43.80802" lon="6.94235">
        <ele>1375.1676025391</ele>
        <time>2012-07-04T16:35:03Z</time>
      </trkpt>
      <trkpt lat="43.80794" lon="6.9424">
        <ele>1373.0145263672</ele>
        <time>2012-07-04T16:37:57Z</time>
      </trkpt>
      <trkpt lat="43.80783" lon="6.9425">
        <ele>1370.0914306641</ele>
        <time>2012-07-04T16:38:02Z</time>
      </trkpt>
      <trkpt lat="43.8077" lon="6.9426">
        <ele>1367.7049560547</ele>
        <time>2012-07-04T16:38:07Z</time>
      </trkpt>
      <trkpt lat="43.80758" lon="6.94264">
        <ele>1364.7347412109</ele>
        <time>2012-07-04T16:38:12Z</time>
      </trkpt>
      <trkpt lat="43.80759" lon="6.94257">
        <ele>1364.5291748047</ele>
        <time>2012-07-04T16:38:15Z</time>
      </trkpt>
      <trkpt lat="43.80754" lon="6.94259">
        <ele>1363.4838867188</ele>
        <time>2012-07-04T16:38:18Z</time>
      </trkpt>
      <trkpt lat="43.80746" lon="6.94266">
        <ele>1361.0632324219</ele>
        <time>2012-07-04T16:38:21Z</time>
      </trkpt>
      <trkpt lat="43.80743" lon="6.94268">
        <ele>1360.2895507812</ele>
        <time>2012-07-04T16:38:22Z</time>
      </trkpt>
      <trkpt lat="43.80739" lon="6.9427">
        <ele>1358.7760009766</ele>
        <time>2012-07-04T16:38:24Z</time>
      </trkpt>
      <trkpt lat="43.80739" lon="6.94265">
        <ele>1358.6687011719</ele>
        <time>2012-07-04T16:38:26Z</time>
      </trkpt>
      <trkpt lat="43.8074" lon="6.94256">
        <ele>1358.9754638672</ele>
        <time>2012-07-04T16:38:30Z</time>
      </trkpt>
      <trkpt lat="43.80735" lon="6.94262">
        <ele>1357.4114990234</ele>
        <time>2012-07-04T16:38:34Z</time>
      </trkpt>
      <trkpt lat="43.80723" lon="6.94273">
        <ele>1352.595703125</ele>
        <time>2012-07-04T16:38:39Z</time>
      </trkpt>
      <trkpt lat="43.8072" lon="6.94276">
        <ele>1351.4129638672</ele>
        <time>2012-07-04T16:38:42Z</time>
      </trkpt>
      <trkpt lat="43.8072" lon="6.94276">
        <ele>1351.4067382812</ele>
        <time>2012-07-04T16:38:43Z</time>
      </trkpt>
      <trkpt lat="43.80717" lon="6.94277">
        <ele>1350.6573486328</ele>
        <time>2012-07-04T16:38:49Z</time>
      </trkpt>
      <trkpt lat="43.80717" lon="6.94276">
        <ele>1350.5</ele>
        <time>2012-07-04T16:38:57Z</time>
      </trkpt>
      <trkpt lat="43.80716" lon="6.94275">
        <ele>1350.4724121094</ele>
        <time>2012-07-04T16:39:02Z</time>
      </trkpt>
      <trkpt lat="43.80718" lon="6.94268">
        <ele>1351.4805908203</ele>
        <time>2012-07-04T16:39:06Z</time>
      </trkpt>
      <trkpt lat="43.8072" lon="6.94248">
        <ele>1353.2401123047</ele>
        <time>2012-07-04T16:39:11Z</time>
      </trkpt>
      <trkpt lat="43.80721" lon="6.94237">
        <ele>1354.4295654297</ele>
        <time>2012-07-04T16:39:15Z</time>
      </trkpt>
      <trkpt lat="43.80721" lon="6.94232">
        <ele>1354.9216308594</ele>
        <time>2012-07-04T16:39:18Z</time>
      </trkpt>
      <trkpt lat="43.80721" lon="6.94232">
        <ele>1354.7761230469</ele>
        <time>2012-07-04T16:39:20Z</time>
      </trkpt>
      <trkpt lat="43.80718" lon="6.94239">
        <ele>1353.1195068359</ele>
        <time>2012-07-04T16:39:25Z</time>
      </trkpt>
      <trkpt lat="43.80715" lon="6.94242">
        <ele>1351.8791503906</ele>
        <time>2012-07-04T16:39:27Z</time>
      </trkpt>
      <trkpt lat="43.80714" lon="6.94241">
        <ele>1351.3824462891</ele>
        <time>2012-07-04T16:39:29Z</time>
      </trkpt>
      <trkpt lat="43.80716" lon="6.9423">
        <ele>1352.7235107422</ele>
        <time>2012-07-04T16:39:33Z</time>
      </trkpt>
      <trkpt lat="43.80716" lon="6.94224">
        <ele>1353.2053222656</ele>
        <time>2012-07-04T16:39:36Z</time>
      </trkpt>
      <trkpt lat="43.80715" lon="6.94224">
        <ele>1352.8709716797</ele>
        <time>2012-07-04T16:39:37Z</time>
      </trkpt>
      <trkpt lat="43.80713" lon="6.9423">
        <ele>1351.4538574219</ele>
        <time>2012-07-04T16:39:41Z</time>
      </trkpt>
      <trkpt lat="43.8071" lon="6.94223">
        <ele>1350.6203613281</ele>
        <time>2012-07-04T16:39:45Z</time>
      </trkpt>
      <trkpt lat="43.80708" lon="6.94229">
        <ele>1349.7532958984</ele>
        <time>2012-07-04T16:39:48Z</time>
      </trkpt>
      <trkpt lat="43.80703" lon="6.94238">
        <ele>1347.1832275391</ele>
        <time>2012-07-04T16:39:53Z</time>
      </trkpt>
      <trkpt lat="43.80701" lon="6.94243">
        <ele>1346.3592529297</ele>
        <time>2012-07-04T16:39:57Z</time>
      </trkpt>
      <trkpt lat="43.80698" lon="6.94241">
        <ele>1345.3645019531</ele>
        <time>2012-07-04T16:40:03Z</time>
      </trkpt>
      <trkpt lat="43.80697" lon="6.94234">
        <ele>1345.1262207031</ele>
        <time>2012-07-04T16:40:07Z</time>
      </trkpt>
      <trkpt lat="43.80698" lon="6.94231">
        <ele>1345.3033447266</ele>
        <time>2012-07-04T16:40:08Z</time>
      </trkpt>
      <trkpt lat="43.80697" lon="6.94225">
        <ele>1345.1951904297</ele>
        <time>2012-07-04T16:40:11Z</time>
      </trkpt>
      <trkpt lat="43.80695" lon="6.9422">
        <ele>1344.7885742188</ele>
        <time>2012-07-04T16:40:13Z</time>
      </trkpt>
      <trkpt lat="43.80692" lon="6.94216">
        <ele>1343.912109375</ele>
        <time>2012-07-04T16:40:15Z</time>
      </trkpt>
      <trkpt lat="43.80689" lon="6.94218">
        <ele>1341.8900146484</ele>
        <time>2012-07-04T16:40:18Z</time>
      </trkpt>
      <trkpt lat="43.80692" lon="6.94229">
        <ele>1342.7775878906</ele>
        <time>2012-07-04T16:40:22Z</time>
      </trkpt>
      <trkpt lat="43.80687" lon="6.94224">
        <ele>1339.9163818359</ele>
        <time>2012-07-04T16:40:25Z</time>
      </trkpt>
      <trkpt lat="43.80685" lon="6.94228">
        <ele>1338.6492919922</ele>
        <time>2012-07-04T16:40:28Z</time>
      </trkpt>
      <trkpt lat="43.80679" lon="6.9424">
        <ele>1335.6356201172</ele>
        <time>2012-07-04T16:40:32Z</time>
      </trkpt>
      <trkpt lat="43.80676" lon="6.94236">
        <ele>1333.8623046875</ele>
        <time>2012-07-04T16:40:35Z</time>
      </trkpt>
      <trkpt lat="43.80676" lon="6.94227">
        <ele>1333.2097167969</ele>
        <time>2012-07-04T16:40:39Z</time>
      </trkpt>
      <trkpt lat="43.80673" lon="6.94226">
        <ele>1331.6695556641</ele>
        <time>2012-07-04T16:40:42Z</time>
      </trkpt>
      <trkpt lat="43.8067" lon="6.94231">
        <ele>1330.0881347656</ele>
        <time>2012-07-04T16:40:46Z</time>
      </trkpt>
      <trkpt lat="43.80667" lon="6.94238">
        <ele>1329.0284423828</ele>
        <time>2012-07-04T16:40:48Z</time>
      </trkpt>
      <trkpt lat="43.80665" lon="6.94239">
        <ele>1327.7786865234</ele>
        <time>2012-07-04T16:40:49Z</time>
      </trkpt>
      <trkpt lat="43.80664" lon="6.94238">
        <ele>1327.3073730469</ele>
        <time>2012-07-04T16:40:50Z</time>
      </trkpt>
      <trkpt lat="43.80658" lon="6.94235">
        <ele>1323.8502197266</ele>
        <time>2012-07-04T16:40:54Z</time>
      </trkpt>
      <trkpt lat="43.80658" lon="6.94242">
        <ele>1323.4318847656</ele>
        <time>2012-07-04T16:40:57Z</time>
      </trkpt>
      <trkpt lat="43.80652" lon="6.94246">
        <ele>1320.0238037109</ele>
        <time>2012-07-04T16:41:02Z</time>
      </trkpt>
      <trkpt lat="43.80645" lon="6.94241">
        <ele>1316.3679199219</ele>
        <time>2012-07-04T16:41:06Z</time>
      </trkpt>
      <trkpt lat="43.80641" lon="6.94252">
        <ele>1313.4049072266</ele>
        <time>2012-07-04T16:41:10Z</time>
      </trkpt>
      <trkpt lat="43.80636" lon="6.94269">
        <ele>1310.8449707031</ele>
        <time>2012-07-04T16:41:14Z</time>
      </trkpt>
      <trkpt lat="43.80631" lon="6.9427">
        <ele>1308.7026367188</ele>
        <time>2012-07-04T16:41:18Z</time>
      </trkpt>
      <trkpt lat="43.80632" lon="6.94257">
        <ele>1308.8674316406</ele>
        <time>2012-07-04T16:41:22Z</time>
      </trkpt>
      <trkpt lat="43.80625" lon="6.94243">
        <ele>1306.5834960938</ele>
        <time>2012-07-04T16:41:26Z</time>
      </trkpt>
      <trkpt lat="43.80619" lon="6.94241">
        <ele>1303.8815917969</ele>
        <time>2012-07-04T16:41:29Z</time>
      </trkpt>
      <trkpt lat="43.80611" lon="6.94237">
        <ele>1301.0766601562</ele>
        <time>2012-07-04T16:41:33Z</time>
      </trkpt>
      <trkpt lat="43.80612" lon="6.94243">
        <ele>1300.7813720703</ele>
        <time>2012-07-04T16:41:36Z</time>
      </trkpt>
      <trkpt lat="43.80612" lon="6.94247">
        <ele>1300.541015625</ele>
        <time>2012-07-04T16:41:37Z</time>
      </trkpt>
      <trkpt lat="43.80611" lon="6.94265">
        <ele>1300.1333007812</ele>
        <time>2012-07-04T16:41:41Z</time>
      </trkpt>
      <trkpt lat="43.80605" lon="6.94282">
        <ele>1296.8157958984</ele>
        <time>2012-07-04T16:41:45Z</time>
      </trkpt>
      <trkpt lat="43.80603" lon="6.94283">
        <ele>1295.8754882812</ele>
        <time>2012-07-04T16:41:46Z</time>
      </trkpt>
      <trkpt lat="43.80602" lon="6.9428">
        <ele>1295.7946777344</ele>
        <time>2012-07-04T16:41:48Z</time>
      </trkpt>
      <trkpt lat="43.80601" lon="6.94266">
        <ele>1295.7591552734</ele>
        <time>2012-07-04T16:41:52Z</time>
      </trkpt>
      <trkpt lat="43.80594" lon="6.94251">
        <ele>1294.4495849609</ele>
        <time>2012-07-04T16:41:56Z</time>
      </trkpt>
      <trkpt lat="43.80586" lon="6.94237">
        <ele>1292.8825683594</ele>
        <time>2012-07-04T16:42:00Z</time>
      </trkpt>
      <trkpt lat="43.80582" lon="6.9424">
        <ele>1290.4522705078</ele>
        <time>2012-07-04T16:42:03Z</time>
      </trkpt>
      <trkpt lat="43.80581" lon="6.94252">
        <ele>1288.49609375</ele>
        <time>2012-07-04T16:42:06Z</time>
      </trkpt>
      <trkpt lat="43.80583" lon="6.94266">
        <ele>1288.3175048828</ele>
        <time>2012-07-04T16:42:10Z</time>
      </trkpt>
      <trkpt lat="43.80582" lon="6.94269">
        <ele>1287.6033935547</ele>
        <time>2012-07-04T16:42:11Z</time>
      </trkpt>
      <trkpt lat="43.8058" lon="6.94271">
        <ele>1285.1108398438</ele>
        <time>2012-07-04T16:42:13Z</time>
      </trkpt>
      <trkpt lat="43.80574" lon="6.94282">
        <ele>1279.1026611328</ele>
        <time>2012-07-04T16:42:17Z</time>
      </trkpt>
      <trkpt lat="43.80569" lon="6.94296">
        <ele>1272.8128662109</ele>
        <time>2012-07-04T16:42:21Z</time>
      </trkpt>
      <trkpt lat="43.80566" lon="6.94299">
        <ele>1270.3081054688</ele>
        <time>2012-07-04T16:42:23Z</time>
      </trkpt>
      <trkpt lat="43.80564" lon="6.943">
        <ele>1268.2390136719</ele>
        <time>2012-07-04T16:42:25Z</time>
      </trkpt>
      <trkpt lat="43.80563" lon="6.94296">
        <ele>1268.2227783203</ele>
        <time>2012-07-04T16:42:30Z</time>
      </trkpt>
      <trkpt lat="43.80563" lon="6.94296">
        <ele>1268.3294677734</ele>
        <time>2012-07-04T16:42:36Z</time>
      </trkpt>
      <trkpt lat="43.80564" lon="6.94294">
        <ele>1269.1872558594</ele>
        <time>2012-07-04T16:42:44Z</time>
      </trkpt>
      <trkpt lat="43.80563" lon="6.94288">
        <ele>1269.5942382812</ele>
        <time>2012-07-04T16:42:47Z</time>
      </trkpt>
      <trkpt lat="43.80561" lon="6.94294">
        <ele>1267.037109375</ele>
        <time>2012-07-04T16:42:50Z</time>
      </trkpt>
      <trkpt lat="43.80555" lon="6.94306">
        <ele>1259.5938720703</ele>
        <time>2012-07-04T16:42:53Z</time>
      </trkpt>
      <trkpt lat="43.80553" lon="6.94311">
        <ele>1257.55078125</ele>
        <time>2012-07-04T16:42:54Z</time>
      </trkpt>
      <trkpt lat="43.80547" lon="6.94326">
        <ele>1251.7288818359</ele>
        <time>2012-07-04T16:42:58Z</time>
      </trkpt>
      <trkpt lat="43.80545" lon="6.94327">
        <ele>1250.3608398438</ele>
        <time>2012-07-04T16:42:59Z</time>
      </trkpt>
      <trkpt lat="43.80543" lon="6.94319">
        <ele>1250.2829589844</ele>
        <time>2012-07-04T16:43:01Z</time>
      </trkpt>
      <trkpt lat="43.80539" lon="6.94309">
        <ele>1249.0242919922</ele>
        <time>2012-07-04T16:43:05Z</time>
      </trkpt>
      <trkpt lat="43.80537" lon="6.94316">
        <ele>1246.8389892578</ele>
        <time>2012-07-04T16:43:07Z</time>
      </trkpt>
      <trkpt lat="43.80536" lon="6.9432">
        <ele>1245.0207519531</ele>
        <time>2012-07-04T16:43:08Z</time>
      </trkpt>
      <trkpt lat="43.80531" lon="6.94324">
        <ele>1241.4660644531</ele>
        <time>2012-07-04T16:43:10Z</time>
      </trkpt>
      <trkpt lat="43.8053" lon="6.94321">
        <ele>1241.3028564453</ele>
        <time>2012-07-04T16:43:11Z</time>
      </trkpt>
      <trkpt lat="43.80531" lon="6.94309">
        <ele>1243.5408935547</ele>
        <time>2012-07-04T16:43:14Z</time>
      </trkpt>
      <trkpt lat="43.80532" lon="6.94305">
        <ele>1244.6860351562</ele>
        <time>2012-07-04T16:43:17Z</time>
      </trkpt>
      <trkpt lat="43.80529" lon="6.94308">
        <ele>1242.6804199219</ele>
        <time>2012-07-04T16:43:20Z</time>
      </trkpt>
      <trkpt lat="43.80528" lon="6.94311">
        <ele>1241.2679443359</ele>
        <time>2012-07-04T16:43:21Z</time>
      </trkpt>
      <trkpt lat="43.80519" lon="6.94327">
        <ele>1232.5046386719</ele>
        <time>2012-07-04T16:43:25Z</time>
      </trkpt>
      <trkpt lat="43.80511" lon="6.94355">
        <ele>1223.7115478516</ele>
        <time>2012-07-04T16:43:30Z</time>
      </trkpt>
      <trkpt lat="43.80502" lon="6.94373">
        <ele>1216.2193603516</ele>
        <time>2012-07-04T16:43:34Z</time>
      </trkpt>
      <trkpt lat="43.80493" lon="6.94391">
        <ele>1210.4600830078</ele>
        <time>2012-07-04T16:43:38Z</time>
      </trkpt>
      <trkpt lat="43.80488" lon="6.94396">
        <ele>1207.5727539062</ele>
        <time>2012-07-04T16:43:40Z</time>
      </trkpt>
      <trkpt lat="43.80479" lon="6.94401">
        <ele>1203.2203369141</ele>
        <time>2012-07-04T16:43:43Z</time>
      </trkpt>
      <trkpt lat="43.80472" lon="6.94402">
        <ele>1199.9739990234</ele>
        <time>2012-07-04T16:43:46Z</time>
      </trkpt>
      <trkpt lat="43.80471" lon="6.94399">
        <ele>1199.4620361328</ele>
        <time>2012-07-04T16:43:47Z</time>
      </trkpt>
      <trkpt lat="43.80473" lon="6.94391">
        <ele>1200.3610839844</ele>
        <time>2012-07-04T16:43:50Z</time>
      </trkpt>
      <trkpt lat="43.80473" lon="6.94384">
        <ele>1200.1772460938</ele>
        <time>2012-07-04T16:43:52Z</time>
      </trkpt>
      <trkpt lat="43.80468" lon="6.9438">
        <ele>1197.1031494141</ele>
        <time>2012-07-04T16:43:54Z</time>
      </trkpt>
      <trkpt lat="43.80456" lon="6.94386">
        <ele>1188.7535400391</ele>
        <time>2012-07-04T16:43:57Z</time>
      </trkpt>
      <trkpt lat="43.80446" lon="6.94388">
        <ele>1181.9694824219</ele>
        <time>2012-07-04T16:44:00Z</time>
      </trkpt>
      <trkpt lat="43.80435" lon="6.94398">
        <ele>1177.1568603516</ele>
        <time>2012-07-04T16:44:05Z</time>
      </trkpt>
      <trkpt lat="43.80435" lon="6.94402">
        <ele>1177.3114013672</ele>
        <time>2012-07-04T16:44:08Z</time>
      </trkpt>
      <trkpt lat="43.80433" lon="6.94401">
        <ele>1176.4410400391</ele>
        <time>2012-07-04T16:44:13Z</time>
      </trkpt>
      <trkpt lat="43.80432" lon="6.94398">
        <ele>1175.8591308594</ele>
        <time>2012-07-04T16:44:14Z</time>
      </trkpt>
      <trkpt lat="43.80429" lon="6.94392">
        <ele>1174.3142089844</ele>
        <time>2012-07-04T16:44:17Z</time>
      </trkpt>
      <trkpt lat="43.80421" lon="6.94398">
        <ele>1171.2259521484</ele>
        <time>2012-07-04T16:44:21Z</time>
      </trkpt>
      <trkpt lat="43.80417" lon="6.94399">
        <ele>1169.6123046875</ele>
        <time>2012-07-04T16:44:26Z</time>
      </trkpt>
      <trkpt lat="43.80417" lon="6.94397">
        <ele>1169.5385742188</ele>
        <time>2012-07-04T16:44:40Z</time>
      </trkpt>
      <trkpt lat="43.80417" lon="6.94397">
        <ele>1169.5592041016</ele>
        <time>2012-07-04T16:45:19Z</time>
      </trkpt>
      <trkpt lat="43.80418" lon="6.94401">
        <ele>1170.0020751953</ele>
        <time>2012-07-04T16:47:51Z</time>
      </trkpt>
      <trkpt lat="43.80417" lon="6.94402">
        <ele>1169.5592041016</ele>
        <time>2012-07-04T16:48:08Z</time>
      </trkpt>
      <trkpt lat="43.80416" lon="6.944">
        <ele>1169.3137207031</ele>
        <time>2012-07-04T16:48:19Z</time>
      </trkpt>
      <trkpt lat="43.80415" lon="6.94394">
        <ele>1168.2666015625</ele>
        <time>2012-07-04T16:49:08Z</time>
      </trkpt>
      <trkpt lat="43.80417" lon="6.94399">
        <ele>1169.6037597656</ele>
        <time>2012-07-04T16:49:52Z</time>
      </trkpt>
      <trkpt lat="43.80414" lon="6.94389">
        <ele>1167.7739257812</ele>
        <time>2012-07-04T16:50:39Z</time>
      </trkpt>
      <trkpt lat="43.8041" lon="6.94369">
        <ele>1165.5950927734</ele>
        <time>2012-07-04T16:50:44Z</time>
      </trkpt>
      <trkpt lat="43.80407" lon="6.94358">
        <ele>1163.8172607422</ele>
        <time>2012-07-04T16:50:49Z</time>
      </trkpt>
      <trkpt lat="43.80405" lon="6.94357">
        <ele>1162.7923583984</ele>
        <time>2012-07-04T16:50:52Z</time>
      </trkpt>
      <trkpt lat="43.80405" lon="6.94358">
        <ele>1163.0172119141</ele>
        <time>2012-07-04T16:50:54Z</time>
      </trkpt>
      <trkpt lat="43.80406" lon="6.94364">
        <ele>1163.7893066406</ele>
        <time>2012-07-04T16:50:58Z</time>
      </trkpt>
      <trkpt lat="43.80406" lon="6.94367">
        <ele>1163.8902587891</ele>
        <time>2012-07-04T16:51:01Z</time>
      </trkpt>
      <trkpt lat="43.80404" lon="6.9437">
        <ele>1162.8450927734</ele>
        <time>2012-07-04T16:51:03Z</time>
      </trkpt>
      <trkpt lat="43.80402" lon="6.94364">
        <ele>1161.9168701172</ele>
        <time>2012-07-04T16:51:07Z</time>
      </trkpt>
      <trkpt lat="43.80396" lon="6.94351">
        <ele>1158.15234375</ele>
        <time>2012-07-04T16:51:11Z</time>
      </trkpt>
      <trkpt lat="43.80392" lon="6.94342">
        <ele>1156.1062011719</ele>
        <time>2012-07-04T16:51:15Z</time>
      </trkpt>
      <trkpt lat="43.80392" lon="6.94338">
        <ele>1155.5756835938</ele>
        <time>2012-07-04T16:51:20Z</time>
      </trkpt>
      <trkpt lat="43.80388" lon="6.94329">
        <ele>1153.5415039062</ele>
        <time>2012-07-04T16:51:24Z</time>
      </trkpt>
      <trkpt lat="43.80384" lon="6.94304">
        <ele>1150.2642822266</ele>
        <time>2012-07-04T16:51:29Z</time>
      </trkpt>
      <trkpt lat="43.80381" lon="6.94282">
        <ele>1147.5720214844</ele>
        <time>2012-07-04T16:51:33Z</time>
      </trkpt>
      <trkpt lat="43.80375" lon="6.94255">
        <ele>1143.6429443359</ele>
        <time>2012-07-04T16:51:37Z</time>
      </trkpt>
      <trkpt lat="43.80371" lon="6.94242">
        <ele>1141.5606689453</ele>
        <time>2012-07-04T16:51:41Z</time>
      </trkpt>
      <trkpt lat="43.8037" lon="6.94242">
        <ele>1141.0147705078</ele>
        <time>2012-07-04T16:51:43Z</time>
      </trkpt>
      <trkpt lat="43.8037" lon="6.94241">
        <ele>1140.9890136719</ele>
        <time>2012-07-04T16:51:45Z</time>
      </trkpt>
      <trkpt lat="43.80371" lon="6.94246">
        <ele>1141.3409423828</ele>
        <time>2012-07-04T16:51:52Z</time>
      </trkpt>
      <trkpt lat="43.8037" lon="6.94265">
        <ele>1141.5091552734</ele>
        <time>2012-07-04T16:51:56Z</time>
      </trkpt>
      <trkpt lat="43.80368" lon="6.94291">
        <ele>1141.8328857422</ele>
        <time>2012-07-04T16:52:01Z</time>
      </trkpt>
      <trkpt lat="43.80365" lon="6.94302">
        <ele>1140.6297607422</ele>
        <time>2012-07-04T16:52:04Z</time>
      </trkpt>
      <trkpt lat="43.80361" lon="6.94302">
        <ele>1138.6522216797</ele>
        <time>2012-07-04T16:52:06Z</time>
      </trkpt>
      <trkpt lat="43.8036" lon="6.94299">
        <ele>1138.3133544922</ele>
        <time>2012-07-04T16:52:10Z</time>
      </trkpt>
      <trkpt lat="43.80356" lon="6.9429">
        <ele>1135.1405029297</ele>
        <time>2012-07-04T16:52:14Z</time>
      </trkpt>
      <trkpt lat="43.80352" lon="6.94275">
        <ele>1132.5473632812</ele>
        <time>2012-07-04T16:52:18Z</time>
      </trkpt>
      <trkpt lat="43.80352" lon="6.94273">
        <ele>1132.2307128906</ele>
        <time>2012-07-04T16:52:22Z</time>
      </trkpt>
      <trkpt lat="43.80352" lon="6.94273">
        <ele>1131.9835205078</ele>
        <time>2012-07-04T16:52:28Z</time>
      </trkpt>
      <trkpt lat="43.80353" lon="6.94273">
        <ele>1132.9020996094</ele>
        <time>2012-07-04T16:52:42Z</time>
      </trkpt>
      <trkpt lat="43.80349" lon="6.94263">
        <ele>1129.8278808594</ele>
        <time>2012-07-04T16:52:55Z</time>
      </trkpt>
      <trkpt lat="43.80347" lon="6.94262">
        <ele>1128.3038330078</ele>
        <time>2012-07-04T16:52:58Z</time>
      </trkpt>
      <trkpt lat="43.80347" lon="6.94262">
        <ele>1128.3298339844</ele>
        <time>2012-07-04T16:52:59Z</time>
      </trkpt>
      <trkpt lat="43.80343" lon="6.94274">
        <ele>1126.8149414062</ele>
        <time>2012-07-04T16:53:04Z</time>
      </trkpt>
      <trkpt lat="43.80341" lon="6.9428">
        <ele>1125.9251708984</ele>
        <time>2012-07-04T16:53:06Z</time>
      </trkpt>
      <trkpt lat="43.80338" lon="6.94285">
        <ele>1124.0767822266</ele>
        <time>2012-07-04T16:53:08Z</time>
      </trkpt>
      <trkpt lat="43.80336" lon="6.94278">
        <ele>1122.3984375</ele>
        <time>2012-07-04T16:53:11Z</time>
      </trkpt>
      <trkpt lat="43.80336" lon="6.94275">
        <ele>1122.208984375</ele>
        <time>2012-07-04T16:53:12Z</time>
      </trkpt>
      <trkpt lat="43.80332" lon="6.94254">
        <ele>1118.5148925781</ele>
        <time>2012-07-04T16:53:16Z</time>
      </trkpt>
      <trkpt lat="43.80333" lon="6.9425">
        <ele>1118.7468261719</ele>
        <time>2012-07-04T16:53:17Z</time>
      </trkpt>
      <trkpt lat="43.80332" lon="6.94246">
        <ele>1117.6907958984</ele>
        <time>2012-07-04T16:53:19Z</time>
      </trkpt>
      <trkpt lat="43.80327" lon="6.94255">
        <ele>1115.2750244141</ele>
        <time>2012-07-04T16:53:22Z</time>
      </trkpt>
      <trkpt lat="43.80324" lon="6.94276">
        <ele>1115.2144775391</ele>
        <time>2012-07-04T16:53:26Z</time>
      </trkpt>
      <trkpt lat="43.80318" lon="6.94289">
        <ele>1111.4389648438</ele>
        <time>2012-07-04T16:53:29Z</time>
      </trkpt>
      <trkpt lat="43.80317" lon="6.94293">
        <ele>1110.8670654297</ele>
        <time>2012-07-04T16:53:30Z</time>
      </trkpt>
      <trkpt lat="43.80316" lon="6.94311">
        <ele>1109.4987792969</ele>
        <time>2012-07-04T16:53:34Z</time>
      </trkpt>
      <trkpt lat="43.80315" lon="6.94324">
        <ele>1108.9528808594</ele>
        <time>2012-07-04T16:53:39Z</time>
      </trkpt>
      <trkpt lat="43.80316" lon="6.94326">
        <ele>1109.1604003906</ele>
        <time>2012-07-04T16:53:41Z</time>
      </trkpt>
      <trkpt lat="43.80314" lon="6.94326">
        <ele>1107.8713378906</ele>
        <time>2012-07-04T16:53:43Z</time>
      </trkpt>
      <trkpt lat="43.80311" lon="6.94321">
        <ele>1105.9586181641</ele>
        <time>2012-07-04T16:53:47Z</time>
      </trkpt>
      <trkpt lat="43.80311" lon="6.94328">
        <ele>1105.7541503906</ele>
        <time>2012-07-04T16:53:51Z</time>
      </trkpt>
      <trkpt lat="43.80312" lon="6.94338">
        <ele>1106.5294189453</ele>
        <time>2012-07-04T16:53:54Z</time>
      </trkpt>
      <trkpt lat="43.80312" lon="6.94342">
        <ele>1105.8903808594</ele>
        <time>2012-07-04T16:53:55Z</time>
      </trkpt>
      <trkpt lat="43.80312" lon="6.94345">
        <ele>1106.0524902344</ele>
        <time>2012-07-04T16:53:56Z</time>
      </trkpt>
      <trkpt lat="43.8031" lon="6.94359">
        <ele>1104.0288085938</ele>
        <time>2012-07-04T16:54:00Z</time>
      </trkpt>
      <trkpt lat="43.80307" lon="6.94365">
        <ele>1101.6430664062</ele>
        <time>2012-07-04T16:54:04Z</time>
      </trkpt>
      <trkpt lat="43.80306" lon="6.94374">
        <ele>1100.7523193359</ele>
        <time>2012-07-04T16:54:08Z</time>
      </trkpt>
      <trkpt lat="43.80309" lon="6.94401">
        <ele>1102.8275146484</ele>
        <time>2012-07-04T16:54:12Z</time>
      </trkpt>
      <trkpt lat="43.80317" lon="6.94426">
        <ele>1108.5953369141</ele>
        <time>2012-07-04T16:54:17Z</time>
      </trkpt>
      <trkpt lat="43.80319" lon="6.94432">
        <ele>1110.0373535156</ele>
        <time>2012-07-04T16:54:20Z</time>
      </trkpt>
      <trkpt lat="43.80319" lon="6.94434">
        <ele>1110.0373535156</ele>
        <time>2012-07-04T16:54:21Z</time>
      </trkpt>
      <trkpt lat="43.80319" lon="6.94441">
        <ele>1110.3256835938</ele>
        <time>2012-07-04T16:54:25Z</time>
      </trkpt>
      <trkpt lat="43.80314" lon="6.94437">
        <ele>1106.2882080078</ele>
        <time>2012-07-04T16:54:30Z</time>
      </trkpt>
      <trkpt lat="43.80311" lon="6.94435">
        <ele>1104.26953125</ele>
        <time>2012-07-04T16:54:35Z</time>
      </trkpt>
      <trkpt lat="43.80299" lon="6.94426">
        <ele>1096.6638183594</ele>
        <time>2012-07-04T16:54:39Z</time>
      </trkpt>
      <trkpt lat="43.80291" lon="6.94423">
        <ele>1092.337890625</ele>
        <time>2012-07-04T16:54:43Z</time>
      </trkpt>
      <trkpt lat="43.80294" lon="6.94432">
        <ele>1093.9858398438</ele>
        <time>2012-07-04T16:54:46Z</time>
      </trkpt>
      <trkpt lat="43.80296" lon="6.94435">
        <ele>1094.6038818359</ele>
        <time>2012-07-04T16:54:47Z</time>
      </trkpt>
      <trkpt lat="43.80297" lon="6.94442">
        <ele>1095.4278564453</ele>
        <time>2012-07-04T16:54:50Z</time>
      </trkpt>
      <trkpt lat="43.80297" lon="6.94443">
        <ele>1095.2219238281</ele>
        <time>2012-07-04T16:54:51Z</time>
      </trkpt>
      <trkpt lat="43.80293" lon="6.94445">
        <ele>1093.3679199219</ele>
        <time>2012-07-04T16:54:54Z</time>
      </trkpt>
      <trkpt lat="43.80297" lon="6.94452">
        <ele>1095.2219238281</ele>
        <time>2012-07-04T16:54:57Z</time>
      </trkpt>
      <trkpt lat="43.80294" lon="6.94458">
        <ele>1093.5739746094</ele>
        <time>2012-07-04T16:55:00Z</time>
      </trkpt>
      <trkpt lat="43.80288" lon="6.94454">
        <ele>1090.6899414062</ele>
        <time>2012-07-04T16:55:03Z</time>
      </trkpt>
      <trkpt lat="43.80284" lon="6.94448">
        <ele>1088.2180175781</ele>
        <time>2012-07-04T16:55:08Z</time>
      </trkpt>
      <trkpt lat="43.80284" lon="6.94451">
        <ele>1088.4240722656</ele>
        <time>2012-07-04T16:55:13Z</time>
      </trkpt>
      <trkpt lat="43.80284" lon="6.94454">
        <ele>1088.2180175781</ele>
        <time>2012-07-04T16:55:15Z</time>
      </trkpt>
      <trkpt lat="43.80282" lon="6.94453">
        <ele>1087.3940429688</ele>
        <time>2012-07-04T16:55:17Z</time>
      </trkpt>
      <trkpt lat="43.80278" lon="6.94444">
        <ele>1084.8806152344</ele>
        <time>2012-07-04T16:55:22Z</time>
      </trkpt>
      <trkpt lat="43.80275" lon="6.94442">
        <ele>1082.3537597656</ele>
        <time>2012-07-04T16:55:26Z</time>
      </trkpt>
      <trkpt lat="43.80276" lon="6.94449">
        <ele>1083.2884521484</ele>
        <time>2012-07-04T16:55:31Z</time>
      </trkpt>
      <trkpt lat="43.80275" lon="6.94468">
        <ele>1082.2563476562</ele>
        <time>2012-07-04T16:55:36Z</time>
      </trkpt>
      <trkpt lat="43.80276" lon="6.94488">
        <ele>1083.88671875</ele>
        <time>2012-07-04T16:55:41Z</time>
      </trkpt>
      <trkpt lat="43.80279" lon="6.94512">
        <ele>1085.0677490234</ele>
        <time>2012-07-04T16:55:46Z</time>
      </trkpt>
      <trkpt lat="43.80283" lon="6.94527">
        <ele>1086.2614746094</ele>
        <time>2012-07-04T16:55:50Z</time>
      </trkpt>
      <trkpt lat="43.80281" lon="6.94542">
        <ele>1085.2561035156</ele>
        <time>2012-07-04T16:55:55Z</time>
      </trkpt>
      <trkpt lat="43.8028" lon="6.94544">
        <ele>1084.76171875</ele>
        <time>2012-07-04T16:55:56Z</time>
      </trkpt>
      <trkpt lat="43.80278" lon="6.94543">
        <ele>1084.1025390625</ele>
        <time>2012-07-04T16:55:58Z</time>
      </trkpt>
      <trkpt lat="43.80275" lon="6.94533">
        <ele>1081.2387695312</ele>
        <time>2012-07-04T16:56:03Z</time>
      </trkpt>
      <trkpt lat="43.80271" lon="6.94527">
        <ele>1078.3054199219</ele>
        <time>2012-07-04T16:56:06Z</time>
      </trkpt>
      <trkpt lat="43.8027" lon="6.94528">
        <ele>1077.6153564453</ele>
        <time>2012-07-04T16:56:07Z</time>
      </trkpt>
      <trkpt lat="43.8027" lon="6.94537">
        <ele>1077.2836914062</ele>
        <time>2012-07-04T16:56:10Z</time>
      </trkpt>
      <trkpt lat="43.8027" lon="6.94541">
        <ele>1077.61328125</ele>
        <time>2012-07-04T16:56:11Z</time>
      </trkpt>
      <trkpt lat="43.80272" lon="6.94552">
        <ele>1078.931640625</ele>
        <time>2012-07-04T16:56:15Z</time>
      </trkpt>
      <trkpt lat="43.80271" lon="6.94554">
        <ele>1078.2724609375</ele>
        <time>2012-07-04T16:56:16Z</time>
      </trkpt>
      <trkpt lat="43.80268" lon="6.94568">
        <ele>1075.3061523438</ele>
        <time>2012-07-04T16:56:20Z</time>
      </trkpt>
      <trkpt lat="43.80259" lon="6.94584">
        <ele>1068.0551757812</ele>
        <time>2012-07-04T16:56:25Z</time>
      </trkpt>
      <trkpt lat="43.80253" lon="6.94606">
        <ele>1062.4521484375</ele>
        <time>2012-07-04T16:56:30Z</time>
      </trkpt>
      <trkpt lat="43.8025" lon="6.94631">
        <ele>1059.8461914062</ele>
        <time>2012-07-04T16:56:36Z</time>
      </trkpt>
      <trkpt lat="43.8025" lon="6.94635">
        <ele>1060.1450195312</ele>
        <time>2012-07-04T16:56:38Z</time>
      </trkpt>
      <trkpt lat="43.8025" lon="6.94636">
        <ele>1060.1450195312</ele>
        <time>2012-07-04T16:56:40Z</time>
      </trkpt>
      <trkpt lat="43.8025" lon="6.9464">
        <ele>1060.1683349609</ele>
        <time>2012-07-04T16:56:45Z</time>
      </trkpt>
      <trkpt lat="43.80251" lon="6.94638">
        <ele>1060.474609375</ele>
        <time>2012-07-04T16:58:09Z</time>
      </trkpt>
      <trkpt lat="43.80251" lon="6.94636">
        <ele>1060.474609375</ele>
        <time>2012-07-04T17:00:08Z</time>
      </trkpt>
      <trkpt lat="43.80251" lon="6.94637">
        <ele>1061.1337890625</ele>
        <time>2012-07-04T17:00:52Z</time>
      </trkpt>
      <trkpt lat="43.8025" lon="6.94641">
        <ele>1060.2041015625</ele>
        <time>2012-07-04T17:01:02Z</time>
      </trkpt>
      <trkpt lat="43.80251" lon="6.94649">
        <ele>1061.4700927734</ele>
        <time>2012-07-04T17:01:05Z</time>
      </trkpt>
      <trkpt lat="43.80253" lon="6.94654">
        <ele>1062.9432373047</ele>
        <time>2012-07-04T17:01:07Z</time>
      </trkpt>
      <trkpt lat="43.80253" lon="6.94655">
        <ele>1062.9771728516</ele>
        <time>2012-07-04T17:01:10Z</time>
      </trkpt>
      <trkpt lat="43.80254" lon="6.94661">
        <ele>1064.4384765625</ele>
        <time>2012-07-04T17:01:39Z</time>
      </trkpt>
      <trkpt lat="43.80254" lon="6.94664">
        <ele>1063.8981933594</ele>
        <time>2012-07-04T17:01:40Z</time>
      </trkpt>
      <trkpt lat="43.80256" lon="6.94686">
        <ele>1067.4173583984</ele>
        <time>2012-07-04T17:01:46Z</time>
      </trkpt>
      <trkpt lat="43.80263" lon="6.94698">
        <ele>1073.2138671875</ele>
        <time>2012-07-04T17:01:50Z</time>
      </trkpt>
      <trkpt lat="43.80263" lon="6.94701">
        <ele>1073.3511962891</ele>
        <time>2012-07-04T17:01:51Z</time>
      </trkpt>
      <trkpt lat="43.8026" lon="6.94712">
        <ele>1071.9161376953</ele>
        <time>2012-07-04T17:01:54Z</time>
      </trkpt>
      <trkpt lat="43.80262" lon="6.94713">
        <ele>1072.8791503906</ele>
        <time>2012-07-04T17:01:55Z</time>
      </trkpt>
      <trkpt lat="43.8026" lon="6.94718">
        <ele>1072.1271972656</ele>
        <time>2012-07-04T17:01:57Z</time>
      </trkpt>
      <trkpt lat="43.80261" lon="6.94721">
        <ele>1072.8619384766</ele>
        <time>2012-07-04T17:02:00Z</time>
      </trkpt>
      <trkpt lat="43.80261" lon="6.94721">
        <ele>1072.8636474609</ele>
        <time>2012-07-04T17:02:01Z</time>
      </trkpt>
      <trkpt lat="43.80259" lon="6.94727">
        <ele>1071.0847167969</ele>
        <time>2012-07-04T17:02:08Z</time>
      </trkpt>
      <trkpt lat="43.80258" lon="6.9473">
        <ele>1070.9548339844</ele>
        <time>2012-07-04T17:02:14Z</time>
      </trkpt>
      <trkpt lat="43.80258" lon="6.9474">
        <ele>1071.2674560547</ele>
        <time>2012-07-04T17:02:18Z</time>
      </trkpt>
      <trkpt lat="43.80257" lon="6.94742">
        <ele>1070.5444335938</ele>
        <time>2012-07-04T17:02:19Z</time>
      </trkpt>
      <trkpt lat="43.80256" lon="6.94748">
        <ele>1070.3344726562</ele>
        <time>2012-07-04T17:02:22Z</time>
      </trkpt>
      <trkpt lat="43.80256" lon="6.9475">
        <ele>1070.7608642578</ele>
        <time>2012-07-04T17:02:24Z</time>
      </trkpt>
      <trkpt lat="43.80256" lon="6.94752">
        <ele>1070.5555419922</ele>
        <time>2012-07-04T17:02:25Z</time>
      </trkpt>
      <trkpt lat="43.80256" lon="6.94757">
        <ele>1070.923828125</ele>
        <time>2012-07-04T17:02:30Z</time>
      </trkpt>
      <trkpt lat="43.80255" lon="6.94759">
        <ele>1070.1950683594</ele>
        <time>2012-07-04T17:02:32Z</time>
      </trkpt>
      <trkpt lat="43.80255" lon="6.94761">
        <ele>1070.2830810547</ele>
        <time>2012-07-04T17:02:33Z</time>
      </trkpt>
      <trkpt lat="43.80256" lon="6.94765">
        <ele>1071.1431884766</ele>
        <time>2012-07-04T17:02:36Z</time>
      </trkpt>
      <trkpt lat="43.80255" lon="6.94768">
        <ele>1071.0491943359</ele>
        <time>2012-07-04T17:02:39Z</time>
      </trkpt>
      <trkpt lat="43.80255" lon="6.94769">
        <ele>1071.1083984375</ele>
        <time>2012-07-04T17:02:40Z</time>
      </trkpt>
      <trkpt lat="43.80253" lon="6.94769">
        <ele>1069.7227783203</ele>
        <time>2012-07-04T17:02:43Z</time>
      </trkpt>
      <trkpt lat="43.8025" lon="6.94772">
        <ele>1067.7064208984</ele>
        <time>2012-07-04T17:02:50Z</time>
      </trkpt>
      <trkpt lat="43.8025" lon="6.94778">
        <ele>1067.8579101562</ele>
        <time>2012-07-04T17:02:56Z</time>
      </trkpt>
      <trkpt lat="43.80249" lon="6.94777">
        <ele>1067.3284912109</ele>
        <time>2012-07-04T17:03:03Z</time>
      </trkpt>
      <trkpt lat="43.80248" lon="6.94787">
        <ele>1067.2528076172</ele>
        <time>2012-07-04T17:03:06Z</time>
      </trkpt>
      <trkpt lat="43.80251" lon="6.94807">
        <ele>1070.7358398438</ele>
        <time>2012-07-04T17:03:12Z</time>
      </trkpt>
      <trkpt lat="43.8025" lon="6.94809">
        <ele>1070.1343994141</ele>
        <time>2012-07-04T17:03:13Z</time>
      </trkpt>
      <trkpt lat="43.80247" lon="6.94818">
        <ele>1068.7021484375</ele>
        <time>2012-07-04T17:03:16Z</time>
      </trkpt>
      <trkpt lat="43.80244" lon="6.94818">
        <ele>1066.9256591797</ele>
        <time>2012-07-04T17:03:18Z</time>
      </trkpt>
      <trkpt lat="43.80244" lon="6.94816">
        <ele>1066.5523681641</ele>
        <time>2012-07-04T17:03:19Z</time>
      </trkpt>
      <trkpt lat="43.80241" lon="6.94813">
        <ele>1064.6979980469</ele>
        <time>2012-07-04T17:03:23Z</time>
      </trkpt>
      <trkpt lat="43.80237" lon="6.94821">
        <ele>1062.6010742188</ele>
        <time>2012-07-04T17:03:27Z</time>
      </trkpt>
      <trkpt lat="43.80236" lon="6.94825">
        <ele>1061.9547119141</ele>
        <time>2012-07-04T17:03:28Z</time>
      </trkpt>
      <trkpt lat="43.80228" lon="6.94848">
        <ele>1058.859375</ele>
        <time>2012-07-04T17:03:33Z</time>
      </trkpt>
      <trkpt lat="43.80224" lon="6.94855">
        <ele>1056.5798339844</ele>
        <time>2012-07-04T17:03:36Z</time>
      </trkpt>
      <trkpt lat="43.80223" lon="6.94853">
        <ele>1056.0064697266</ele>
        <time>2012-07-04T17:03:37Z</time>
      </trkpt>
      <trkpt lat="43.80221" lon="6.94844">
        <ele>1053.3428955078</ele>
        <time>2012-07-04T17:03:40Z</time>
      </trkpt>
      <trkpt lat="43.80219" lon="6.94839">
        <ele>1050.4552001953</ele>
        <time>2012-07-04T17:03:41Z</time>
      </trkpt>
      <trkpt lat="43.80215" lon="6.94823">
        <ele>1043.134765625</ele>
        <time>2012-07-04T17:03:46Z</time>
      </trkpt>
      <trkpt lat="43.80213" lon="6.9482">
        <ele>1040.9533691406</ele>
        <time>2012-07-04T17:03:48Z</time>
      </trkpt>
      <trkpt lat="43.8021" lon="6.94817">
        <ele>1037.3582763672</ele>
        <time>2012-07-04T17:03:50Z</time>
      </trkpt>
      <trkpt lat="43.80211" lon="6.94809">
        <ele>1037.8333740234</ele>
        <time>2012-07-04T17:03:52Z</time>
      </trkpt>
      <trkpt lat="43.80212" lon="6.94806">
        <ele>1038.0733642578</ele>
        <time>2012-07-04T17:03:53Z</time>
      </trkpt>
      <trkpt lat="43.80211" lon="6.94798">
        <ele>1037.4055175781</ele>
        <time>2012-07-04T17:03:57Z</time>
      </trkpt>
      <trkpt lat="43.80209" lon="6.94798">
        <ele>1034.1639404297</ele>
        <time>2012-07-04T17:04:01Z</time>
      </trkpt>
      <trkpt lat="43.80209" lon="6.94798">
        <ele>1034.1805419922</ele>
        <time>2012-07-04T17:04:02Z</time>
      </trkpt>
      <trkpt lat="43.80204" lon="6.94799">
        <ele>1028.1677246094</ele>
        <time>2012-07-04T17:04:06Z</time>
      </trkpt>
      <trkpt lat="43.80205" lon="6.94794">
        <ele>1029.4853515625</ele>
        <time>2012-07-04T17:04:10Z</time>
      </trkpt>
      <trkpt lat="43.80205" lon="6.94791">
        <ele>1029.9127197266</ele>
        <time>2012-07-04T17:04:11Z</time>
      </trkpt>
      <trkpt lat="43.80206" lon="6.94788">
        <ele>1030.3205566406</ele>
        <time>2012-07-04T17:04:14Z</time>
      </trkpt>
      <trkpt lat="43.80204" lon="6.94788">
        <ele>1028.4909667969</ele>
        <time>2012-07-04T17:04:15Z</time>
      </trkpt>
      <trkpt lat="43.80197" lon="6.94791">
        <ele>1020.2530517578</ele>
        <time>2012-07-04T17:04:18Z</time>
      </trkpt>
      <trkpt lat="43.80192" lon="6.94794">
        <ele>1015.8609619141</ele>
        <time>2012-07-04T17:04:20Z</time>
      </trkpt>
      <trkpt lat="43.80185" lon="6.94803">
        <ele>1012.0157470703</ele>
        <time>2012-07-04T17:04:23Z</time>
      </trkpt>
      <trkpt lat="43.80173" lon="6.9482">
        <ele>1006.0577392578</ele>
        <time>2012-07-04T17:04:28Z</time>
      </trkpt>
      <trkpt lat="43.80168" lon="6.94831">
        <ele>1002.8656005859</ele>
        <time>2012-07-04T17:04:32Z</time>
      </trkpt>
      <trkpt lat="43.80161" lon="6.94842">
        <ele>999.7880859375</ele>
        <time>2012-07-04T17:04:36Z</time>
      </trkpt>
      <trkpt lat="43.80155" lon="6.94849">
        <ele>997.72814941406</ele>
        <time>2012-07-04T17:04:39Z</time>
      </trkpt>
      <trkpt lat="43.80152" lon="6.94851">
        <ele>996.62951660156</ele>
        <time>2012-07-04T17:04:40Z</time>
      </trkpt>
      <trkpt lat="43.80149" lon="6.94855">
        <ele>995.66821289062</ele>
        <time>2012-07-04T17:04:42Z</time>
      </trkpt>
      <trkpt lat="43.80151" lon="6.94856">
        <ele>996.21752929688</ele>
        <time>2012-07-04T17:04:43Z</time>
      </trkpt>
      <trkpt lat="43.80149" lon="6.9486">
        <ele>995.53088378906</ele>
        <time>2012-07-04T17:04:46Z</time>
      </trkpt>
      <trkpt lat="43.80141" lon="6.94871">
        <ele>992.62408447266</ele>
        <time>2012-07-04T17:04:50Z</time>
      </trkpt>
      <trkpt lat="43.80125" lon="6.94885">
        <ele>986.09014892578</ele>
        <time>2012-07-04T17:04:54Z</time>
      </trkpt>
      <trkpt lat="43.80116" lon="6.94892">
        <ele>982.04705810547</ele>
        <time>2012-07-04T17:04:58Z</time>
      </trkpt>
      <trkpt lat="43.80111" lon="6.94882">
        <ele>979.98321533203</ele>
        <time>2012-07-04T17:05:01Z</time>
      </trkpt>
      <trkpt lat="43.80107" lon="6.94871">
        <ele>978.76446533203</ele>
        <time>2012-07-04T17:05:04Z</time>
      </trkpt>
      <trkpt lat="43.80105" lon="6.94869">
        <ele>977.77911376953</ele>
        <time>2012-07-04T17:05:05Z</time>
      </trkpt>
      <trkpt lat="43.80099" lon="6.94856">
        <ele>975.71765136719</ele>
        <time>2012-07-04T17:05:09Z</time>
      </trkpt>
      <trkpt lat="43.801" lon="6.94844">
        <ele>976.24670410156</ele>
        <time>2012-07-04T17:05:12Z</time>
      </trkpt>
      <trkpt lat="43.80102" lon="6.94822">
        <ele>977.85870361328</ele>
        <time>2012-07-04T17:05:16Z</time>
      </trkpt>
      <trkpt lat="43.80099" lon="6.94814">
        <ele>977.10540771484</ele>
        <time>2012-07-04T17:05:19Z</time>
      </trkpt>
      <trkpt lat="43.80098" lon="6.94804">
        <ele>977.29095458984</ele>
        <time>2012-07-04T17:05:22Z</time>
      </trkpt>
      <trkpt lat="43.80098" lon="6.94788">
        <ele>977.57214355469</ele>
        <time>2012-07-04T17:05:25Z</time>
      </trkpt>
      <trkpt lat="43.80099" lon="6.9478">
        <ele>978.07397460938</ele>
        <time>2012-07-04T17:05:26Z</time>
      </trkpt>
      <trkpt lat="43.80099" lon="6.94767">
        <ele>978.76971435547</ele>
        <time>2012-07-04T17:05:29Z</time>
      </trkpt>
      <trkpt lat="43.80093" lon="6.94746">
        <ele>977.76336669922</ele>
        <time>2012-07-04T17:05:33Z</time>
      </trkpt>
      <trkpt lat="43.8009" lon="6.94743">
        <ele>977.09997558594</ele>
        <time>2012-07-04T17:05:36Z</time>
      </trkpt>
      <trkpt lat="43.80084" lon="6.94751">
        <ele>975.04425048828</ele>
        <time>2012-07-04T17:05:39Z</time>
      </trkpt>
      <trkpt lat="43.80083" lon="6.94744">
        <ele>974.88385009766</ele>
        <time>2012-07-04T17:05:42Z</time>
      </trkpt>
      <trkpt lat="43.8008" lon="6.94746">
        <ele>973.29083251953</ele>
        <time>2012-07-04T17:05:45Z</time>
      </trkpt>
      <trkpt lat="43.80076" lon="6.94738">
        <ele>971.84716796875</ele>
        <time>2012-07-04T17:05:48Z</time>
      </trkpt>
      <trkpt lat="43.80071" lon="6.94719">
        <ele>969.85076904297</ele>
        <time>2012-07-04T17:05:51Z</time>
      </trkpt>
      <trkpt lat="43.80061" lon="6.94693">
        <ele>965.39111328125</ele>
        <time>2012-07-04T17:05:55Z</time>
      </trkpt>
      <trkpt lat="43.80051" lon="6.9468">
        <ele>960.68383789062</ele>
        <time>2012-07-04T17:05:58Z</time>
      </trkpt>
      <trkpt lat="43.80042" lon="6.94666">
        <ele>958.26910400391</ele>
        <time>2012-07-04T17:06:00Z</time>
      </trkpt>
      <trkpt lat="43.80034" lon="6.94654">
        <ele>956.16284179688</ele>
        <time>2012-07-04T17:06:02Z</time>
      </trkpt>
      <trkpt lat="43.80022" lon="6.94653">
        <ele>951.11437988281</ele>
        <time>2012-07-04T17:06:05Z</time>
      </trkpt>
      <trkpt lat="43.80016" lon="6.94664">
        <ele>947.58837890625</ele>
        <time>2012-07-04T17:06:08Z</time>
      </trkpt>
      <trkpt lat="43.80005" lon="6.94666">
        <ele>942.47595214844</ele>
        <time>2012-07-04T17:06:11Z</time>
      </trkpt>
      <trkpt lat="43.79995" lon="6.94675">
        <ele>937.2373046875</ele>
        <time>2012-07-04T17:06:16Z</time>
      </trkpt>
      <trkpt lat="43.79992" lon="6.94682">
        <ele>935.65863037109</ele>
        <time>2012-07-04T17:06:20Z</time>
      </trkpt>
      <trkpt lat="43.79987" lon="6.94679">
        <ele>933.49475097656</ele>
        <time>2012-07-04T17:06:24Z</time>
      </trkpt>
      <trkpt lat="43.79987" lon="6.94678">
        <ele>933.54803466797</ele>
        <time>2012-07-04T17:06:25Z</time>
      </trkpt>
      <trkpt lat="43.79988" lon="6.94677">
        <ele>933.98486328125</ele>
        <time>2012-07-04T17:06:26Z</time>
      </trkpt>
      <trkpt lat="43.79986" lon="6.94674">
        <ele>933.51373291016</ele>
        <time>2012-07-04T17:06:28Z</time>
      </trkpt>
      <trkpt lat="43.79985" lon="6.94676">
        <ele>933.01849365234</ele>
        <time>2012-07-04T17:06:32Z</time>
      </trkpt>
      <trkpt lat="43.79984" lon="6.9468">
        <ele>931.99267578125</ele>
        <time>2012-07-04T17:06:35Z</time>
      </trkpt>
      <trkpt lat="43.79982" lon="6.9468">
        <ele>931.27600097656</ele>
        <time>2012-07-04T17:06:36Z</time>
      </trkpt>
      <trkpt lat="43.79979" lon="6.94669">
        <ele>930.81561279297</ele>
        <time>2012-07-04T17:06:40Z</time>
      </trkpt>
      <trkpt lat="43.79975" lon="6.94651">
        <ele>930.65380859375</ele>
        <time>2012-07-04T17:06:44Z</time>
      </trkpt>
      <trkpt lat="43.79974" lon="6.94652">
        <ele>930.05895996094</ele>
        <time>2012-07-04T17:06:46Z</time>
      </trkpt>
      <trkpt lat="43.79971" lon="6.94665">
        <ele>927.77679443359</ele>
        <time>2012-07-04T17:06:49Z</time>
      </trkpt>
      <trkpt lat="43.79968" lon="6.94661">
        <ele>926.89105224609</ele>
        <time>2012-07-04T17:06:52Z</time>
      </trkpt>
      <trkpt lat="43.79965" lon="6.94649">
        <ele>926.9013671875</ele>
        <time>2012-07-04T17:06:55Z</time>
      </trkpt>
      <trkpt lat="43.79966" lon="6.94643">
        <ele>927.64807128906</ele>
        <time>2012-07-04T17:06:56Z</time>
      </trkpt>
      <trkpt lat="43.79964" lon="6.9464">
        <ele>927.16912841797</ele>
        <time>2012-07-04T17:06:57Z</time>
      </trkpt>
      <trkpt lat="43.79964" lon="6.9463">
        <ele>927.6142578125</ele>
        <time>2012-07-04T17:06:59Z</time>
      </trkpt>
      <trkpt lat="43.79965" lon="6.94615">
        <ele>928.67681884766</ele>
        <time>2012-07-04T17:07:03Z</time>
      </trkpt>
      <trkpt lat="43.79966" lon="6.94605">
        <ele>929.33770751953</ele>
        <time>2012-07-04T17:07:07Z</time>
      </trkpt>
      <trkpt lat="43.7996" lon="6.94601">
        <ele>927.02716064453</ele>
        <time>2012-07-04T17:07:11Z</time>
      </trkpt>
      <trkpt lat="43.7996" lon="6.94595">
        <ele>927.39624023438</ele>
        <time>2012-07-04T17:07:13Z</time>
      </trkpt>
      <trkpt lat="43.79959" lon="6.94594">
        <ele>926.95849609375</ele>
        <time>2012-07-04T17:07:14Z</time>
      </trkpt>
      <trkpt lat="43.79959" lon="6.94594">
        <ele>926.80230712891</ele>
        <time>2012-07-04T17:07:16Z</time>
      </trkpt>
      <trkpt lat="43.79957" lon="6.94606">
        <ele>925.6865234375</ele>
        <time>2012-07-04T17:07:20Z</time>
      </trkpt>
      <trkpt lat="43.79956" lon="6.9461">
        <ele>924.87799072266</ele>
        <time>2012-07-04T17:07:21Z</time>
      </trkpt>
      <trkpt lat="43.79951" lon="6.94613">
        <ele>922.80261230469</ele>
        <time>2012-07-04T17:07:23Z</time>
      </trkpt>
      <trkpt lat="43.79946" lon="6.94608">
        <ele>920.85766601562</ele>
        <time>2012-07-04T17:07:27Z</time>
      </trkpt>
      <trkpt lat="43.79947" lon="6.94597">
        <ele>921.56488037109</ele>
        <time>2012-07-04T17:07:29Z</time>
      </trkpt>
      <trkpt lat="43.79944" lon="6.94587">
        <ele>920.72882080078</ele>
        <time>2012-07-04T17:07:31Z</time>
      </trkpt>
      <trkpt lat="43.79941" lon="6.94579">
        <ele>918.94232177734</ele>
        <time>2012-07-04T17:07:35Z</time>
      </trkpt>
      <trkpt lat="43.79936" lon="6.94583">
        <ele>916.05078125</ele>
        <time>2012-07-04T17:07:38Z</time>
      </trkpt>
      <trkpt lat="43.7993" lon="6.94572">
        <ele>912.95050048828</ele>
        <time>2012-07-04T17:07:41Z</time>
      </trkpt>
      <trkpt lat="43.79927" lon="6.94566">
        <ele>911.95867919922</ele>
        <time>2012-07-04T17:07:43Z</time>
      </trkpt>
      <trkpt lat="43.79928" lon="6.94564">
        <ele>912.47882080078</ele>
        <time>2012-07-04T17:07:44Z</time>
      </trkpt>
      <trkpt lat="43.79928" lon="6.9456">
        <ele>912.63739013672</ele>
        <time>2012-07-04T17:07:47Z</time>
      </trkpt>
      <trkpt lat="43.79929" lon="6.94561">
        <ele>912.79858398438</ele>
        <time>2012-07-04T17:07:55Z</time>
      </trkpt>
      <trkpt lat="43.79929" lon="6.94563">
        <ele>913.11486816406</ele>
        <time>2012-07-04T17:10:50Z</time>
      </trkpt>
      <trkpt lat="43.79929" lon="6.94561">
        <ele>913.19506835938</ele>
        <time>2012-07-04T17:11:45Z</time>
      </trkpt>
      <trkpt lat="43.79929" lon="6.94562">
        <ele>912.92700195312</ele>
        <time>2012-07-04T17:12:38Z</time>
      </trkpt>
      <trkpt lat="43.79929" lon="6.94561">
        <ele>912.98059082031</ele>
        <time>2012-07-04T17:13:55Z</time>
      </trkpt>
      <trkpt lat="43.7993" lon="6.94551">
        <ele>913.86486816406</ele>
        <time>2012-07-04T17:13:58Z</time>
      </trkpt>
      <trkpt lat="43.79929" lon="6.94531">
        <ele>913.59240722656</ele>
        <time>2012-07-04T17:14:03Z</time>
      </trkpt>
      <trkpt lat="43.79926" lon="6.94516">
        <ele>912.34899902344</ele>
        <time>2012-07-04T17:14:08Z</time>
      </trkpt>
      <trkpt lat="43.79918" lon="6.94503">
        <ele>909.16821289062</ele>
        <time>2012-07-04T17:14:14Z</time>
      </trkpt>
      <trkpt lat="43.79906" lon="6.94489">
        <ele>906.63421630859</ele>
        <time>2012-07-04T17:14:20Z</time>
      </trkpt>
      <trkpt lat="43.79902" lon="6.94485">
        <ele>905.71752929688</ele>
        <time>2012-07-04T17:14:22Z</time>
      </trkpt>
      <trkpt lat="43.79896" lon="6.94481">
        <ele>904.41979980469</ele>
        <time>2012-07-04T17:14:24Z</time>
      </trkpt>
      <trkpt lat="43.79873" lon="6.9447">
        <ele>898.3935546875</ele>
        <time>2012-07-04T17:14:31Z</time>
      </trkpt>
      <trkpt lat="43.79857" lon="6.94472">
        <ele>893.779296875</ele>
        <time>2012-07-04T17:14:35Z</time>
      </trkpt>
      <trkpt lat="43.79856" lon="6.94475">
        <ele>893.5595703125</ele>
        <time>2012-07-04T17:14:36Z</time>
      </trkpt>
      <trkpt lat="43.79858" lon="6.94484">
        <ele>894.10888671875</ele>
        <time>2012-07-04T17:14:40Z</time>
      </trkpt>
      <trkpt lat="43.79858" lon="6.94488">
        <ele>894.21875</ele>
        <time>2012-07-04T17:14:44Z</time>
      </trkpt>
      <trkpt lat="43.79858" lon="6.94488">
        <ele>894.21875</ele>
        <time>2012-07-04T17:14:45Z</time>
      </trkpt>
      <trkpt lat="43.79857" lon="6.94499">
        <ele>893.779296875</ele>
        <time>2012-07-04T17:16:10Z</time>
      </trkpt>
      <trkpt lat="43.79845" lon="6.9452">
        <ele>890.37353515625</ele>
        <time>2012-07-04T17:16:15Z</time>
      </trkpt>
      <trkpt lat="43.7984" lon="6.9454">
        <ele>889.17614746094</ele>
        <time>2012-07-04T17:16:18Z</time>
      </trkpt>
      <trkpt lat="43.79837" lon="6.94568">
        <ele>888.33410644531</ele>
        <time>2012-07-04T17:16:21Z</time>
      </trkpt>
      <trkpt lat="43.79826" lon="6.94602">
        <ele>883.66937255859</ele>
        <time>2012-07-04T17:16:25Z</time>
      </trkpt>
      <trkpt lat="43.79821" lon="6.94613">
        <ele>881.21923828125</ele>
        <time>2012-07-04T17:16:27Z</time>
      </trkpt>
      <trkpt lat="43.79818" lon="6.94623">
        <ele>879.93542480469</ele>
        <time>2012-07-04T17:16:29Z</time>
      </trkpt>
      <trkpt lat="43.79807" lon="6.94623">
        <ele>876.63818359375</ele>
        <time>2012-07-04T17:16:32Z</time>
      </trkpt>
      <trkpt lat="43.79794" lon="6.94624">
        <ele>872.89660644531</ele>
        <time>2012-07-04T17:16:36Z</time>
      </trkpt>
      <trkpt lat="43.79782" lon="6.94617">
        <ele>870.12872314453</ele>
        <time>2012-07-04T17:16:40Z</time>
      </trkpt>
      <trkpt lat="43.79771" lon="6.94604">
        <ele>868.07379150391</ele>
        <time>2012-07-04T17:16:43Z</time>
      </trkpt>
      <trkpt lat="43.79769" lon="6.94598">
        <ele>867.90368652344</ele>
        <time>2012-07-04T17:16:44Z</time>
      </trkpt>
      <trkpt lat="43.79765" lon="6.94573">
        <ele>868.24212646484</ele>
        <time>2012-07-04T17:16:48Z</time>
      </trkpt>
      <trkpt lat="43.79761" lon="6.9456">
        <ele>867.6533203125</ele>
        <time>2012-07-04T17:16:51Z</time>
      </trkpt>
      <trkpt lat="43.79758" lon="6.94557">
        <ele>867.09545898438</ele>
        <time>2012-07-04T17:16:52Z</time>
      </trkpt>
      <trkpt lat="43.79755" lon="6.9455">
        <ele>866.48681640625</ele>
        <time>2012-07-04T17:16:54Z</time>
      </trkpt>
      <trkpt lat="43.79753" lon="6.94546">
        <ele>866.0517578125</ele>
        <time>2012-07-04T17:16:56Z</time>
      </trkpt>
      <trkpt lat="43.7975" lon="6.94544">
        <ele>865.43023681641</ele>
        <time>2012-07-04T17:16:57Z</time>
      </trkpt>
      <trkpt lat="43.7974" lon="6.94539">
        <ele>859.2197265625</ele>
        <time>2012-07-04T17:17:02Z</time>
      </trkpt>
      <trkpt lat="43.79724" lon="6.94535">
        <ele>848.71923828125</ele>
        <time>2012-07-04T17:17:07Z</time>
      </trkpt>
      <trkpt lat="43.79718" lon="6.94531">
        <ele>846.39599609375</ele>
        <time>2012-07-04T17:17:09Z</time>
      </trkpt>
      <trkpt lat="43.79708" lon="6.94522">
        <ele>843.7421875</ele>
        <time>2012-07-04T17:17:12Z</time>
      </trkpt>
      <trkpt lat="43.79693" lon="6.94517">
        <ele>839.06048583984</ele>
        <time>2012-07-04T17:17:17Z</time>
      </trkpt>
      <trkpt lat="43.79687" lon="6.94513">
        <ele>837.47802734375</ele>
        <time>2012-07-04T17:17:20Z</time>
      </trkpt>
      <trkpt lat="43.79685" lon="6.94509">
        <ele>837.12103271484</ele>
        <time>2012-07-04T17:17:21Z</time>
      </trkpt>
      <trkpt lat="43.79673" lon="6.94501">
        <ele>834.46612548828</ele>
        <time>2012-07-04T17:17:24Z</time>
      </trkpt>
      <trkpt lat="43.79654" lon="6.94498">
        <ele>829.00622558594</ele>
        <time>2012-07-04T17:17:28Z</time>
      </trkpt>
      <trkpt lat="43.7963" lon="6.94499">
        <ele>821.73651123047</ele>
        <time>2012-07-04T17:17:33Z</time>
      </trkpt>
      <trkpt lat="43.79628" lon="6.94497">
        <ele>821.36572265625</ele>
        <time>2012-07-04T17:17:34Z</time>
      </trkpt>
      <trkpt lat="43.79624" lon="6.94494">
        <ele>820.69281005859</ele>
        <time>2012-07-04T17:17:36Z</time>
      </trkpt>
      <trkpt lat="43.79624" lon="6.94493">
        <ele>820.73059082031</ele>
        <time>2012-07-04T17:17:37Z</time>
      </trkpt>
      <trkpt lat="43.79618" lon="6.94494">
        <ele>819.05517578125</ele>
        <time>2012-07-04T17:17:40Z</time>
      </trkpt>
      <trkpt lat="43.79615" lon="6.94494">
        <ele>818.41314697266</ele>
        <time>2012-07-04T17:17:41Z</time>
      </trkpt>
      <trkpt lat="43.79603" lon="6.94487">
        <ele>816.67749023438</ele>
        <time>2012-07-04T17:17:46Z</time>
      </trkpt>
      <trkpt lat="43.79602" lon="6.94479">
        <ele>816.95855712891</ele>
        <time>2012-07-04T17:17:50Z</time>
      </trkpt>
      <trkpt lat="43.79601" lon="6.94474">
        <ele>817.0625</ele>
        <time>2012-07-04T17:17:52Z</time>
      </trkpt>
      <trkpt lat="43.79602" lon="6.94468">
        <ele>817.53411865234</ele>
        <time>2012-07-04T17:17:54Z</time>
      </trkpt>
      <trkpt lat="43.79605" lon="6.94446">
        <ele>818.91595458984</ele>
        <time>2012-07-04T17:18:01Z</time>
      </trkpt>
      <trkpt lat="43.79609" lon="6.9443">
        <ele>820.55975341797</ele>
        <time>2012-07-04T17:18:07Z</time>
      </trkpt>
      <trkpt lat="43.79609" lon="6.94414">
        <ele>821.69091796875</ele>
        <time>2012-07-04T17:18:13Z</time>
      </trkpt>
      <trkpt lat="43.79614" lon="6.94398">
        <ele>823.55169677734</ele>
        <time>2012-07-04T17:18:20Z</time>
      </trkpt>
      <trkpt lat="43.79617" lon="6.94382">
        <ele>825.06958007812</ele>
        <time>2012-07-04T17:18:27Z</time>
      </trkpt>
      <trkpt lat="43.79617" lon="6.9438">
        <ele>825.19769287109</ele>
        <time>2012-07-04T17:18:29Z</time>
      </trkpt>
      <trkpt lat="43.79617" lon="6.94372">
        <ele>825.52520751953</ele>
        <time>2012-07-04T17:18:32Z</time>
      </trkpt>
      <trkpt lat="43.79621" lon="6.94351">
        <ele>827.82080078125</ele>
        <time>2012-07-04T17:18:38Z</time>
      </trkpt>
      <trkpt lat="43.79622" lon="6.94342">
        <ele>829.01556396484</ele>
        <time>2012-07-04T17:18:43Z</time>
      </trkpt>
      <trkpt lat="43.79621" lon="6.9434">
        <ele>828.74780273438</ele>
        <time>2012-07-04T17:18:45Z</time>
      </trkpt>
      <trkpt lat="43.79621" lon="6.94342">
        <ele>828.62762451172</ele>
        <time>2012-07-04T17:18:47Z</time>
      </trkpt>
      <trkpt lat="43.79623" lon="6.94344">
        <ele>829.22497558594</ele>
        <time>2012-07-04T17:18:49Z</time>
      </trkpt>
      <trkpt lat="43.79624" lon="6.94346">
        <ele>829.21124267578</ele>
        <time>2012-07-04T17:18:50Z</time>
      </trkpt>
      <trkpt lat="43.79624" lon="6.94348">
        <ele>829.14947509766</ele>
        <time>2012-07-04T17:18:51Z</time>
      </trkpt>
      <trkpt lat="43.79624" lon="6.94354">
        <ele>828.65509033203</ele>
        <time>2012-07-04T17:18:54Z</time>
      </trkpt>
      <trkpt lat="43.79622" lon="6.94358">
        <ele>827.7109375</ele>
        <time>2012-07-04T17:18:57Z</time>
      </trkpt>
      <trkpt lat="43.79621" lon="6.94358">
        <ele>827.44659423828</ele>
        <time>2012-07-04T17:18:58Z</time>
      </trkpt>
      <trkpt lat="43.79617" lon="6.94358">
        <ele>825.94970703125</ele>
        <time>2012-07-04T17:19:02Z</time>
      </trkpt>
      <trkpt lat="43.79618" lon="6.9436">
        <ele>826.35479736328</ele>
        <time>2012-07-04T17:19:06Z</time>
      </trkpt>
      <trkpt lat="43.7962" lon="6.94355">
        <ele>827.32983398438</ele>
        <time>2012-07-04T17:19:11Z</time>
      </trkpt>
      <trkpt lat="43.79623" lon="6.94348">
        <ele>828.6962890625</ele>
        <time>2012-07-04T17:19:17Z</time>
      </trkpt>
      <trkpt lat="43.79623" lon="6.9434">
        <ele>829.3623046875</ele>
        <time>2012-07-04T17:19:20Z</time>
      </trkpt>
      <trkpt lat="43.7962" lon="6.9434">
        <ele>828.54174804688</ele>
        <time>2012-07-04T17:19:21Z</time>
      </trkpt>
      <trkpt lat="43.79607" lon="6.94331">
        <ele>824.94006347656</ele>
        <time>2012-07-04T17:19:26Z</time>
      </trkpt>
      <trkpt lat="43.79601" lon="6.9432">
        <ele>823.39685058594</ele>
        <time>2012-07-04T17:19:28Z</time>
      </trkpt>
      <trkpt lat="43.79594" lon="6.94316">
        <ele>821.59954833984</ele>
        <time>2012-07-04T17:19:30Z</time>
      </trkpt>
      <trkpt lat="43.79579" lon="6.94307">
        <ele>817.5888671875</ele>
        <time>2012-07-04T17:19:34Z</time>
      </trkpt>
      <trkpt lat="43.79573" lon="6.94306">
        <ele>815.55639648438</ele>
        <time>2012-07-04T17:19:37Z</time>
      </trkpt>
      <trkpt lat="43.79571" lon="6.94303">
        <ele>814.81994628906</ele>
        <time>2012-07-04T17:19:41Z</time>
      </trkpt>
      <trkpt lat="43.7957" lon="6.94302">
        <ele>814.67749023438</ele>
        <time>2012-07-04T17:19:42Z</time>
      </trkpt>
      <trkpt lat="43.79568" lon="6.94303">
        <ele>814.080078125</ele>
        <time>2012-07-04T17:19:47Z</time>
      </trkpt>
      <trkpt lat="43.79567" lon="6.94303">
        <ele>813.72821044922</ele>
        <time>2012-07-04T17:19:48Z</time>
      </trkpt>
      <trkpt lat="43.79547" lon="6.94301">
        <ele>807.45812988281</ele>
        <time>2012-07-04T17:19:52Z</time>
      </trkpt>
      <trkpt lat="43.7955" lon="6.94301">
        <ele>808.302734375</ele>
        <time>2012-07-04T17:19:53Z</time>
      </trkpt>
      <trkpt lat="43.79546" lon="6.94308">
        <ele>807.43151855469</ele>
        <time>2012-07-04T17:19:55Z</time>
      </trkpt>
      <trkpt lat="43.79531" lon="6.94334">
        <ele>804.10473632812</ele>
        <time>2012-07-04T17:20:02Z</time>
      </trkpt>
      <trkpt lat="43.79516" lon="6.94355">
        <ele>800.86706542969</ele>
        <time>2012-07-04T17:20:09Z</time>
      </trkpt>
      <trkpt lat="43.79507" lon="6.94352">
        <ele>798.60620117188</ele>
        <time>2012-07-04T17:20:12Z</time>
      </trkpt>
      <trkpt lat="43.79505" lon="6.94351">
        <ele>798.23022460938</ele>
        <time>2012-07-04T17:20:13Z</time>
      </trkpt>
      <trkpt lat="43.79498" lon="6.9435">
        <ele>796.26171875</ele>
        <time>2012-07-04T17:20:17Z</time>
      </trkpt>
      <trkpt lat="43.79496" lon="6.94348">
        <ele>795.10815429688</ele>
        <time>2012-07-04T17:20:18Z</time>
      </trkpt>
      <trkpt lat="43.79483" lon="6.9435">
        <ele>789.50512695312</ele>
        <time>2012-07-04T17:20:23Z</time>
      </trkpt>
      <trkpt lat="43.7947" lon="6.94353">
        <ele>783.62329101562</ele>
        <time>2012-07-04T17:20:28Z</time>
      </trkpt>
      <trkpt lat="43.79462" lon="6.94355">
        <ele>778.72784423828</ele>
        <time>2012-07-04T17:20:33Z</time>
      </trkpt>
      <trkpt lat="43.79461" lon="6.94354">
        <ele>777.76489257812</ele>
        <time>2012-07-04T17:20:34Z</time>
      </trkpt>
      <trkpt lat="43.7946" lon="6.94353">
        <ele>777.29718017578</ele>
        <time>2012-07-04T17:20:37Z</time>
      </trkpt>
      <trkpt lat="43.79459" lon="6.94349">
        <ele>776.88604736328</ele>
        <time>2012-07-04T17:20:46Z</time>
      </trkpt>
      <trkpt lat="43.79459" lon="6.94344">
        <ele>776.96221923828</ele>
        <time>2012-07-04T17:20:53Z</time>
      </trkpt>
      <trkpt lat="43.79459" lon="6.94338">
        <ele>776.82476806641</ele>
        <time>2012-07-04T17:21:08Z</time>
      </trkpt>
      <trkpt lat="43.79454" lon="6.94326">
        <ele>774.26837158203</ele>
        <time>2012-07-04T17:21:12Z</time>
      </trkpt>
      <trkpt lat="43.79453" lon="6.94325">
        <ele>773.37591552734</ele>
        <time>2012-07-04T17:21:13Z</time>
      </trkpt>
      <trkpt lat="43.79448" lon="6.94324">
        <ele>770.19421386719</ele>
        <time>2012-07-04T17:21:16Z</time>
      </trkpt>
      <trkpt lat="43.79447" lon="6.94326">
        <ele>769.69067382812</ele>
        <time>2012-07-04T17:21:17Z</time>
      </trkpt>
      <trkpt lat="43.79444" lon="6.94328">
        <ele>767.98040771484</ele>
        <time>2012-07-04T17:21:19Z</time>
      </trkpt>
      <trkpt lat="43.79443" lon="6.94327">
        <ele>767.69110107422</ele>
        <time>2012-07-04T17:21:20Z</time>
      </trkpt>
      <trkpt lat="43.79439" lon="6.94316">
        <ele>766.9716796875</ele>
        <time>2012-07-04T17:21:24Z</time>
      </trkpt>
      <trkpt lat="43.79438" lon="6.94313">
        <ele>766.83197021484</ele>
        <time>2012-07-04T17:21:25Z</time>
      </trkpt>
      <trkpt lat="43.79435" lon="6.94308">
        <ele>765.86016845703</ele>
        <time>2012-07-04T17:21:27Z</time>
      </trkpt>
      <trkpt lat="43.79434" lon="6.94305">
        <ele>765.68957519531</ele>
        <time>2012-07-04T17:21:29Z</time>
      </trkpt>
      <trkpt lat="43.79432" lon="6.94307">
        <ele>764.78009033203</ele>
        <time>2012-07-04T17:21:33Z</time>
      </trkpt>
      <trkpt lat="43.79425" lon="6.9431">
        <ele>762.54516601562</ele>
        <time>2012-07-04T17:21:36Z</time>
      </trkpt>
      <trkpt lat="43.79425" lon="6.94312">
        <ele>762.5234375</ele>
        <time>2012-07-04T17:21:37Z</time>
      </trkpt>
      <trkpt lat="43.79422" lon="6.94315">
        <ele>761.54254150391</ele>
        <time>2012-07-04T17:21:40Z</time>
      </trkpt>
      <trkpt lat="43.79419" lon="6.94305">
        <ele>760.74035644531</ele>
        <time>2012-07-04T17:21:44Z</time>
      </trkpt>
      <trkpt lat="43.79417" lon="6.94286">
        <ele>759.99401855469</ele>
        <time>2012-07-04T17:21:49Z</time>
      </trkpt>
      <trkpt lat="43.79417" lon="6.94282">
        <ele>759.99407958984</ele>
        <time>2012-07-04T17:21:51Z</time>
      </trkpt>
      <trkpt lat="43.79415" lon="6.94281">
        <ele>759.10821533203</ele>
        <time>2012-07-04T17:21:53Z</time>
      </trkpt>
      <trkpt lat="43.79414" lon="6.94282">
        <ele>758.66290283203</ele>
        <time>2012-07-04T17:21:54Z</time>
      </trkpt>
      <trkpt lat="43.79408" lon="6.94284">
        <ele>754.64215087891</ele>
        <time>2012-07-04T17:21:57Z</time>
      </trkpt>
      <trkpt lat="43.79403" lon="6.94289">
        <ele>751.65850830078</ele>
        <time>2012-07-04T17:22:00Z</time>
      </trkpt>
      <trkpt lat="43.79401" lon="6.94288">
        <ele>750.56280517578</ele>
        <time>2012-07-04T17:22:01Z</time>
      </trkpt>
      <trkpt lat="43.7939" lon="6.94277">
        <ele>744.84490966797</ele>
        <time>2012-07-04T17:22:05Z</time>
      </trkpt>
      <trkpt lat="43.79388" lon="6.9427">
        <ele>744.07177734375</ele>
        <time>2012-07-04T17:22:07Z</time>
      </trkpt>
      <trkpt lat="43.79386" lon="6.94267">
        <ele>743.24273681641</ele>
        <time>2012-07-04T17:22:09Z</time>
      </trkpt>
      <trkpt lat="43.79382" lon="6.94264">
        <ele>741.45123291016</ele>
        <time>2012-07-04T17:22:12Z</time>
      </trkpt>
      <trkpt lat="43.79382" lon="6.94261">
        <ele>741.61614990234</ele>
        <time>2012-07-04T17:22:13Z</time>
      </trkpt>
      <trkpt lat="43.79381" lon="6.94238">
        <ele>742.21630859375</ele>
        <time>2012-07-04T17:22:17Z</time>
      </trkpt>
      <trkpt lat="43.79377" lon="6.94224">
        <ele>741.36486816406</ele>
        <time>2012-07-04T17:22:20Z</time>
      </trkpt>
      <trkpt lat="43.79375" lon="6.94222">
        <ele>740.66546630859</ele>
        <time>2012-07-04T17:22:21Z</time>
      </trkpt>
      <trkpt lat="43.79369" lon="6.94219">
        <ele>738.13513183594</ele>
        <time>2012-07-04T17:22:23Z</time>
      </trkpt>
      <trkpt lat="43.79369" lon="6.94224">
        <ele>738.18737792969</ele>
        <time>2012-07-04T17:22:26Z</time>
      </trkpt>
      <trkpt lat="43.79373" lon="6.94235">
        <ele>739.15216064453</ele>
        <time>2012-07-04T17:22:29Z</time>
      </trkpt>
      <trkpt lat="43.79372" lon="6.94239">
        <ele>738.7041015625</ele>
        <time>2012-07-04T17:22:33Z</time>
      </trkpt>
      <trkpt lat="43.79367" lon="6.94247">
        <ele>736.63385009766</ele>
        <time>2012-07-04T17:22:38Z</time>
      </trkpt>
      <trkpt lat="43.79367" lon="6.94251">
        <ele>736.30810546875</ele>
        <time>2012-07-04T17:22:39Z</time>
      </trkpt>
      <trkpt lat="43.79364" lon="6.94263">
        <ele>734.10284423828</ele>
        <time>2012-07-04T17:22:42Z</time>
      </trkpt>
      <trkpt lat="43.79362" lon="6.94266">
        <ele>733.45623779297</ele>
        <time>2012-07-04T17:22:43Z</time>
      </trkpt>
      <trkpt lat="43.79352" lon="6.9428">
        <ele>724.77532958984</ele>
        <time>2012-07-04T17:22:48Z</time>
      </trkpt>
      <trkpt lat="43.7934" lon="6.94299">
        <ele>714.60626220703</ele>
        <time>2012-07-04T17:22:52Z</time>
      </trkpt>
      <trkpt lat="43.79337" lon="6.94313">
        <ele>711.17413330078</ele>
        <time>2012-07-04T17:22:56Z</time>
      </trkpt>
      <trkpt lat="43.79325" lon="6.94317">
        <ele>705.91369628906</ele>
        <time>2012-07-04T17:23:00Z</time>
      </trkpt>
      <trkpt lat="43.79316" lon="6.94328">
        <ele>703.07110595703</ele>
        <time>2012-07-04T17:23:04Z</time>
      </trkpt>
      <trkpt lat="43.79311" lon="6.94338">
        <ele>701.56494140625</ele>
        <time>2012-07-04T17:23:07Z</time>
      </trkpt>
      <trkpt lat="43.79309" lon="6.9434">
        <ele>701.12548828125</ele>
        <time>2012-07-04T17:23:08Z</time>
      </trkpt>
      <trkpt lat="43.79307" lon="6.94342">
        <ele>700.3564453125</ele>
        <time>2012-07-04T17:23:09Z</time>
      </trkpt>
      <trkpt lat="43.79301" lon="6.94345">
        <ele>697.57366943359</ele>
        <time>2012-07-04T17:23:12Z</time>
      </trkpt>
      <trkpt lat="43.793" lon="6.94359">
        <ele>696.57147216797</ele>
        <time>2012-07-04T17:23:16Z</time>
      </trkpt>
      <trkpt lat="43.79295" lon="6.94356">
        <ele>693.826171875</ele>
        <time>2012-07-04T17:23:19Z</time>
      </trkpt>
      <trkpt lat="43.79294" lon="6.94354">
        <ele>692.92852783203</ele>
        <time>2012-07-04T17:23:20Z</time>
      </trkpt>
      <trkpt lat="43.79291" lon="6.9435">
        <ele>691.39556884766</ele>
        <time>2012-07-04T17:23:23Z</time>
      </trkpt>
      <trkpt lat="43.7929" lon="6.94353">
        <ele>690.88171386719</ele>
        <time>2012-07-04T17:23:24Z</time>
      </trkpt>
      <trkpt lat="43.79287" lon="6.94358">
        <ele>688.91284179688</ele>
        <time>2012-07-04T17:23:26Z</time>
      </trkpt>
      <trkpt lat="43.79281" lon="6.94363">
        <ele>685.06597900391</ele>
        <time>2012-07-04T17:23:28Z</time>
      </trkpt>
      <trkpt lat="43.79265" lon="6.94374">
        <ele>675.29907226562</ele>
        <time>2012-07-04T17:23:32Z</time>
      </trkpt>
      <trkpt lat="43.79255" lon="6.94379">
        <ele>669.18450927734</ele>
        <time>2012-07-04T17:23:36Z</time>
      </trkpt>
      <trkpt lat="43.79256" lon="6.94382">
        <ele>669.74243164062</ele>
        <time>2012-07-04T17:23:40Z</time>
      </trkpt>
      <trkpt lat="43.79251" lon="6.94381">
        <ele>667.15203857422</ele>
        <time>2012-07-04T17:24:02Z</time>
      </trkpt>
      <trkpt lat="43.79252" lon="6.94382">
        <ele>667.30822753906</ele>
        <time>2012-07-04T17:24:13Z</time>
      </trkpt>
      <trkpt lat="43.79245" lon="6.94394">
        <ele>663.15576171875</ele>
        <time>2012-07-04T17:25:29Z</time>
      </trkpt>
      <trkpt lat="43.79244" lon="6.94411">
        <ele>661.66918945312</ele>
        <time>2012-07-04T17:25:33Z</time>
      </trkpt>
      <trkpt lat="43.79234" lon="6.94436">
        <ele>655.06365966797</ele>
        <time>2012-07-04T17:25:38Z</time>
      </trkpt>
      <trkpt lat="43.79229" lon="6.9445">
        <ele>651.48107910156</ele>
        <time>2012-07-04T17:25:42Z</time>
      </trkpt>
      <trkpt lat="43.79227" lon="6.9445">
        <ele>650.58843994141</ele>
        <time>2012-07-04T17:25:43Z</time>
      </trkpt>
      <trkpt lat="43.79223" lon="6.94448">
        <ele>648.23150634766</ele>
        <time>2012-07-04T17:25:45Z</time>
      </trkpt>
      <trkpt lat="43.79223" lon="6.9445">
        <ele>648.18518066406</ele>
        <time>2012-07-04T17:25:46Z</time>
      </trkpt>
      <trkpt lat="43.79223" lon="6.94454">
        <ele>648.23321533203</ele>
        <time>2012-07-04T17:25:48Z</time>
      </trkpt>
      <trkpt lat="43.79229" lon="6.94472">
        <ele>650.69488525391</ele>
        <time>2012-07-04T17:25:52Z</time>
      </trkpt>
      <trkpt lat="43.79227" lon="6.9448">
        <ele>649.22784423828</ele>
        <time>2012-07-04T17:25:54Z</time>
      </trkpt>
      <trkpt lat="43.79224" lon="6.94486">
        <ele>647.71539306641</ele>
        <time>2012-07-04T17:25:55Z</time>
      </trkpt>
      <trkpt lat="43.79216" lon="6.94508">
        <ele>644.75537109375</ele>
        <time>2012-07-04T17:25:59Z</time>
      </trkpt>
      <trkpt lat="43.79213" lon="6.94526">
        <ele>643.66705322266</ele>
        <time>2012-07-04T17:26:02Z</time>
      </trkpt>
      <trkpt lat="43.7921" lon="6.94533">
        <ele>643.08172607422</ele>
        <time>2012-07-04T17:26:03Z</time>
      </trkpt>
      <trkpt lat="43.79205" lon="6.9456">
        <ele>641.50238037109</ele>
        <time>2012-07-04T17:26:07Z</time>
      </trkpt>
      <trkpt lat="43.79203" lon="6.94566">
        <ele>641.06915283203</ele>
        <time>2012-07-04T17:26:08Z</time>
      </trkpt>
      <trkpt lat="43.79187" lon="6.9458">
        <ele>636.01861572266</ele>
        <time>2012-07-04T17:26:11Z</time>
      </trkpt>
      <trkpt lat="43.79178" lon="6.94586">
        <ele>630.86352539062</ele>
        <time>2012-07-04T17:26:13Z</time>
      </trkpt>
      <trkpt lat="43.79173" lon="6.94589">
        <ele>628.04693603516</ele>
        <time>2012-07-04T17:26:15Z</time>
      </trkpt>
      <trkpt lat="43.7917" lon="6.94594">
        <ele>626.22778320312</ele>
        <time>2012-07-04T17:26:17Z</time>
      </trkpt>
      <trkpt lat="43.79163" lon="6.94597">
        <ele>622.83123779297</ele>
        <time>2012-07-04T17:26:19Z</time>
      </trkpt>
      <trkpt lat="43.79154" lon="6.94595">
        <ele>618.09338378906</ele>
        <time>2012-07-04T17:26:22Z</time>
      </trkpt>
      <trkpt lat="43.79142" lon="6.94597">
        <ele>612.07147216797</ele>
        <time>2012-07-04T17:26:24Z</time>
      </trkpt>
      <trkpt lat="43.79132" lon="6.94599">
        <ele>607.25604248047</ele>
        <time>2012-07-04T17:26:26Z</time>
      </trkpt>
      <trkpt lat="43.79121" lon="6.94605">
        <ele>601.67529296875</ele>
        <time>2012-07-04T17:26:29Z</time>
      </trkpt>
      <trkpt lat="43.79118" lon="6.94609">
        <ele>600.12005615234</ele>
        <time>2012-07-04T17:26:30Z</time>
      </trkpt>
      <trkpt lat="43.79111" lon="6.94629">
        <ele>596.75927734375</ele>
        <time>2012-07-04T17:26:34Z</time>
      </trkpt>
      <trkpt lat="43.7911" lon="6.94636">
        <ele>596.29235839844</ele>
        <time>2012-07-04T17:26:35Z</time>
      </trkpt>
      <trkpt lat="43.79107" lon="6.94648">
        <ele>593.90368652344</ele>
        <time>2012-07-04T17:26:39Z</time>
      </trkpt>
      <trkpt lat="43.79105" lon="6.94648">
        <ele>593.23657226562</ele>
        <time>2012-07-04T17:26:40Z</time>
      </trkpt>
      <trkpt lat="43.791" lon="6.94646">
        <ele>589.84002685547</ele>
        <time>2012-07-04T17:26:43Z</time>
      </trkpt>
      <trkpt lat="43.79098" lon="6.94647">
        <ele>588.908203125</ele>
        <time>2012-07-04T17:26:44Z</time>
      </trkpt>
      <trkpt lat="43.79094" lon="6.94646">
        <ele>586.39099121094</ele>
        <time>2012-07-04T17:26:46Z</time>
      </trkpt>
      <trkpt lat="43.79079" lon="6.94645">
        <ele>579.38403320312</ele>
        <time>2012-07-04T17:26:51Z</time>
      </trkpt>
      <trkpt lat="43.79077" lon="6.94646">
        <ele>579.05444335938</ele>
        <time>2012-07-04T17:26:52Z</time>
      </trkpt>
      <trkpt lat="43.79077" lon="6.94651">
        <ele>579.05444335938</ele>
        <time>2012-07-04T17:26:54Z</time>
      </trkpt>
      <trkpt lat="43.79078" lon="6.94656">
        <ele>579.27416992188</ele>
        <time>2012-07-04T17:26:58Z</time>
      </trkpt>
      <trkpt lat="43.79079" lon="6.94656">
        <ele>579.3291015625</ele>
        <time>2012-07-04T17:26:59Z</time>
      </trkpt>
      <trkpt lat="43.7908" lon="6.94665">
        <ele>579.49389648438</ele>
        <time>2012-07-04T17:27:08Z</time>
      </trkpt>
      <trkpt lat="43.79079" lon="6.9467">
        <ele>579.43896484375</ele>
        <time>2012-07-04T17:27:15Z</time>
      </trkpt>
      <trkpt lat="43.79071" lon="6.94667">
        <ele>578.28540039062</ele>
        <time>2012-07-04T17:27:20Z</time>
      </trkpt>
      <trkpt lat="43.79067" lon="6.94664">
        <ele>577.68115234375</ele>
        <time>2012-07-04T17:27:26Z</time>
      </trkpt>
      <trkpt lat="43.79064" lon="6.94656">
        <ele>577.24169921875</ele>
        <time>2012-07-04T17:27:32Z</time>
      </trkpt>
      <trkpt lat="43.79063" lon="6.94649">
        <ele>577.07690429688</ele>
        <time>2012-07-04T17:27:35Z</time>
      </trkpt>
      <trkpt lat="43.79061" lon="6.94645">
        <ele>576.80224609375</ele>
        <time>2012-07-04T17:27:37Z</time>
      </trkpt>
      <trkpt lat="43.79058" lon="6.94648">
        <ele>576.41772460938</ele>
        <time>2012-07-04T17:27:41Z</time>
      </trkpt>
      <trkpt lat="43.79059" lon="6.94648">
        <ele>576.52758789062</ele>
        <time>2012-07-04T17:27:49Z</time>
      </trkpt>
      <trkpt lat="43.79059" lon="6.94653">
        <ele>576.52758789062</ele>
        <time>2012-07-04T17:28:06Z</time>
      </trkpt>
      <trkpt lat="43.79052" lon="6.94657">
        <ele>575.69409179688</ele>
        <time>2012-07-04T17:28:10Z</time>
      </trkpt>
      <trkpt lat="43.79042" lon="6.94658">
        <ele>574.73449707031</ele>
        <time>2012-07-04T17:28:15Z</time>
      </trkpt>
      <trkpt lat="43.79036" lon="6.94654">
        <ele>574.22778320312</ele>
        <time>2012-07-04T17:28:18Z</time>
      </trkpt>
      <trkpt lat="43.7903" lon="6.94662">
        <ele>573.39324951172</ele>
        <time>2012-07-04T17:28:22Z</time>
      </trkpt>
      <trkpt lat="43.7902" lon="6.94683">
        <ele>572.533203125</ele>
        <time>2012-07-04T17:28:27Z</time>
      </trkpt>
      <trkpt lat="43.79018" lon="6.94688">
        <ele>572.35986328125</ele>
        <time>2012-07-04T17:28:28Z</time>
      </trkpt>
      <trkpt lat="43.7902" lon="6.94699">
        <ele>572.29071044922</ele>
        <time>2012-07-04T17:28:30Z</time>
      </trkpt>
      <trkpt lat="43.79022" lon="6.94708">
        <ele>572.18682861328</ele>
        <time>2012-07-04T17:28:31Z</time>
      </trkpt>
      <trkpt lat="43.7903" lon="6.94731">
        <ele>572.22338867188</ele>
        <time>2012-07-04T17:28:34Z</time>
      </trkpt>
      <trkpt lat="43.79033" lon="6.94735">
        <ele>572.55297851562</ele>
        <time>2012-07-04T17:28:35Z</time>
      </trkpt>
      <trkpt lat="43.79038" lon="6.94756">
        <ele>572.99761962891</ele>
        <time>2012-07-04T17:28:39Z</time>
      </trkpt>
      <trkpt lat="43.79031" lon="6.94782">
        <ele>571.39093017578</ele>
        <time>2012-07-04T17:28:43Z</time>
      </trkpt>
      <trkpt lat="43.79027" lon="6.94793">
        <ele>570.97833251953</ele>
        <time>2012-07-04T17:28:45Z</time>
      </trkpt>
      <trkpt lat="43.79022" lon="6.94812">
        <ele>570.56567382812</ele>
        <time>2012-07-04T17:28:48Z</time>
      </trkpt>
      <trkpt lat="43.79013" lon="6.94833">
        <ele>569.47906494141</ele>
        <time>2012-07-04T17:28:52Z</time>
      </trkpt>
      <trkpt lat="43.79007" lon="6.94849">
        <ele>569.25048828125</ele>
        <time>2012-07-04T17:28:55Z</time>
      </trkpt>
      <trkpt lat="43.79006" lon="6.94854">
        <ele>569.20928955078</ele>
        <time>2012-07-04T17:28:56Z</time>
      </trkpt>
      <trkpt lat="43.79006" lon="6.94859">
        <ele>569.22302246094</ele>
        <time>2012-07-04T17:28:57Z</time>
      </trkpt>
      <trkpt lat="43.79005" lon="6.94865">
        <ele>569.01135253906</ele>
        <time>2012-07-04T17:28:59Z</time>
      </trkpt>
      <trkpt lat="43.78999" lon="6.94856">
        <ele>569.02416992188</ele>
        <time>2012-07-04T17:29:02Z</time>
      </trkpt>
      <trkpt lat="43.78997" lon="6.94844">
        <ele>569.12030029297</ele>
        <time>2012-07-04T17:29:04Z</time>
      </trkpt>
      <trkpt lat="43.78996" lon="6.94832">
        <ele>569.18774414062</ele>
        <time>2012-07-04T17:29:06Z</time>
      </trkpt>
      <trkpt lat="43.78991" lon="6.94822">
        <ele>569.60870361328</ele>
        <time>2012-07-04T17:29:09Z</time>
      </trkpt>
      <trkpt lat="43.78986" lon="6.94837">
        <ele>569.50482177734</ele>
        <time>2012-07-04T17:29:12Z</time>
      </trkpt>
      <trkpt lat="43.78981" lon="6.94863">
        <ele>569.67767333984</ele>
        <time>2012-07-04T17:29:16Z</time>
      </trkpt>
      <trkpt lat="43.78975" lon="6.94896">
        <ele>569.55004882812</ele>
        <time>2012-07-04T17:29:19Z</time>
      </trkpt>
      <trkpt lat="43.78971" lon="6.94918">
        <ele>569.02984619141</ele>
        <time>2012-07-04T17:29:22Z</time>
      </trkpt>
      <trkpt lat="43.78961" lon="6.94924">
        <ele>569.97229003906</ele>
        <time>2012-07-04T17:29:25Z</time>
      </trkpt>
      <trkpt lat="43.78952" lon="6.94907">
        <ele>571.78228759766</ele>
        <time>2012-07-04T17:29:27Z</time>
      </trkpt>
      <trkpt lat="43.78955" lon="6.94875">
        <ele>572.78576660156</ele>
        <time>2012-07-04T17:29:30Z</time>
      </trkpt>
      <trkpt lat="43.78956" lon="6.94865">
        <ele>572.87335205078</ele>
        <time>2012-07-04T17:29:31Z</time>
      </trkpt>
      <trkpt lat="43.78955" lon="6.94856">
        <ele>573.26904296875</ele>
        <time>2012-07-04T17:29:32Z</time>
      </trkpt>
      <trkpt lat="43.78949" lon="6.94842">
        <ele>574.84564208984</ele>
        <time>2012-07-04T17:29:34Z</time>
      </trkpt>
      <trkpt lat="43.78934" lon="6.94833">
        <ele>579.59326171875</ele>
        <time>2012-07-04T17:29:37Z</time>
      </trkpt>
      <trkpt lat="43.78928" lon="6.94832">
        <ele>581.81884765625</ele>
        <time>2012-07-04T17:29:39Z</time>
      </trkpt>
      <trkpt lat="43.78924" lon="6.94831">
        <ele>583.48406982422</ele>
        <time>2012-07-04T17:29:41Z</time>
      </trkpt>
      <trkpt lat="43.7891" lon="6.94837">
        <ele>588.82312011719</ele>
        <time>2012-07-04T17:29:44Z</time>
      </trkpt>
      <trkpt lat="43.78905" lon="6.94858">
        <ele>590.62371826172</ele>
        <time>2012-07-04T17:29:47Z</time>
      </trkpt>
      <trkpt lat="43.78903" lon="6.94864">
        <ele>591.38446044922</ele>
        <time>2012-07-04T17:29:48Z</time>
      </trkpt>
      <trkpt lat="43.789" lon="6.94868">
        <ele>592.44360351562</ele>
        <time>2012-07-04T17:29:49Z</time>
      </trkpt>
      <trkpt lat="43.78895" lon="6.94869">
        <ele>594.37310791016</ele>
        <time>2012-07-04T17:29:51Z</time>
      </trkpt>
      <trkpt lat="43.78894" lon="6.94864">
        <ele>594.86749267578</ele>
        <time>2012-07-04T17:29:54Z</time>
      </trkpt>
      <trkpt lat="43.78892" lon="6.94858">
        <ele>595.97723388672</ele>
        <time>2012-07-04T17:30:42Z</time>
      </trkpt>
      <trkpt lat="43.78891" lon="6.9485">
        <ele>596.53350830078</ele>
        <time>2012-07-04T17:30:46Z</time>
      </trkpt>
      <trkpt lat="43.78891" lon="6.94836">
        <ele>597.16345214844</ele>
        <time>2012-07-04T17:30:52Z</time>
      </trkpt>
      <trkpt lat="43.78893" lon="6.94821">
        <ele>596.93823242188</ele>
        <time>2012-07-04T17:30:58Z</time>
      </trkpt>
      <trkpt lat="43.78896" lon="6.9481">
        <ele>596.23608398438</ele>
        <time>2012-07-04T17:31:02Z</time>
      </trkpt>
      <trkpt lat="43.78897" lon="6.94803">
        <ele>596.15966796875</ele>
        <time>2012-07-04T17:31:04Z</time>
      </trkpt>
      <trkpt lat="43.78897" lon="6.94797">
        <ele>595.98114013672</ele>
        <time>2012-07-04T17:31:06Z</time>
      </trkpt>
      <trkpt lat="43.78901" lon="6.94785">
        <ele>594.37438964844</ele>
        <time>2012-07-04T17:31:10Z</time>
      </trkpt>
      <trkpt lat="43.78904" lon="6.94757">
        <ele>593.52966308594</ele>
        <time>2012-07-04T17:31:18Z</time>
      </trkpt>
      <trkpt lat="43.78905" lon="6.94728">
        <ele>593.31323242188</ele>
        <time>2012-07-04T17:31:26Z</time>
      </trkpt>
      <trkpt lat="43.78909" lon="6.94699">
        <ele>592.58551025391</ele>
        <time>2012-07-04T17:31:34Z</time>
      </trkpt>
      <trkpt lat="43.78907" lon="6.94669">
        <ele>595.65283203125</ele>
        <time>2012-07-04T17:31:43Z</time>
      </trkpt>
      <trkpt lat="43.78898" lon="6.94671">
        <ele>600.47387695312</ele>
        <time>2012-07-04T17:31:47Z</time>
      </trkpt>
      <trkpt lat="43.78893" lon="6.94685">
        <ele>601.69189453125</ele>
        <time>2012-07-04T17:31:51Z</time>
      </trkpt>
      <trkpt lat="43.78892" lon="6.94689">
        <ele>601.91656494141</ele>
        <time>2012-07-04T17:31:52Z</time>
      </trkpt>
      <trkpt lat="43.78891" lon="6.94719">
        <ele>599.49108886719</ele>
        <time>2012-07-04T17:31:59Z</time>
      </trkpt>
      <trkpt lat="43.78885" lon="6.94754">
        <ele>603.32934570312</ele>
        <time>2012-07-04T17:32:08Z</time>
      </trkpt>
      <trkpt lat="43.78877" lon="6.94783">
        <ele>609.79614257812</ele>
        <time>2012-07-04T17:32:16Z</time>
      </trkpt>
      <trkpt lat="43.78871" lon="6.94809">
        <ele>613.09265136719</ele>
        <time>2012-07-04T17:32:23Z</time>
      </trkpt>
      <trkpt lat="43.78865" lon="6.94833">
        <ele>615.48284912109</ele>
        <time>2012-07-04T17:32:30Z</time>
      </trkpt>
      <trkpt lat="43.78857" lon="6.94863">
        <ele>617.37347412109</ele>
        <time>2012-07-04T17:32:39Z</time>
      </trkpt>
      <trkpt lat="43.78845" lon="6.94892">
        <ele>622.35919189453</ele>
        <time>2012-07-04T17:32:48Z</time>
      </trkpt>
      <trkpt lat="43.78828" lon="6.94917">
        <ele>629.47149658203</ele>
        <time>2012-07-04T17:32:57Z</time>
      </trkpt>
      <trkpt lat="43.7881" lon="6.94941">
        <ele>637.72180175781</ele>
        <time>2012-07-04T17:33:05Z</time>
      </trkpt>
      <trkpt lat="43.78807" lon="6.94962">
        <ele>638.63934326172</ele>
        <time>2012-07-04T17:33:10Z</time>
      </trkpt>
      <trkpt lat="43.78812" lon="6.94981">
        <ele>635.54699707031</ele>
        <time>2012-07-04T17:33:15Z</time>
      </trkpt>
      <trkpt lat="43.78817" lon="6.95007">
        <ele>632.89721679688</ele>
        <time>2012-07-04T17:33:21Z</time>
      </trkpt>
      <trkpt lat="43.78809" lon="6.95024">
        <ele>636.52270507812</ele>
        <time>2012-07-04T17:33:26Z</time>
      </trkpt>
      <trkpt lat="43.7879" lon="6.95037">
        <ele>645.72015380859</ele>
        <time>2012-07-04T17:33:33Z</time>
      </trkpt>
      <trkpt lat="43.78784" lon="6.95051">
        <ele>648.2763671875</ele>
        <time>2012-07-04T17:33:38Z</time>
      </trkpt>
      <trkpt lat="43.7878" lon="6.9507">
        <ele>648.91729736328</ele>
        <time>2012-07-04T17:33:42Z</time>
      </trkpt>
      <trkpt lat="43.78783" lon="6.9509">
        <ele>646.30090332031</ele>
        <time>2012-07-04T17:33:47Z</time>
      </trkpt>
      <trkpt lat="43.7879" lon="6.95117">
        <ele>642.00811767578</ele>
        <time>2012-07-04T17:33:54Z</time>
      </trkpt>
      <trkpt lat="43.78797" lon="6.95138">
        <ele>637.82574462891</ele>
        <time>2012-07-04T17:34:00Z</time>
      </trkpt>
      <trkpt lat="43.78807" lon="6.95161">
        <ele>632.77844238281</ele>
        <time>2012-07-04T17:34:07Z</time>
      </trkpt>
      <trkpt lat="43.78807" lon="6.95181">
        <ele>632.07531738281</ele>
        <time>2012-07-04T17:34:12Z</time>
      </trkpt>
      <trkpt lat="43.78802" lon="6.95206">
        <ele>632.91186523438</ele>
        <time>2012-07-04T17:34:19Z</time>
      </trkpt>
      <trkpt lat="43.78792" lon="6.95224">
        <ele>635.76458740234</ele>
        <time>2012-07-04T17:34:25Z</time>
      </trkpt>
      <trkpt lat="43.78779" lon="6.95235">
        <ele>640.14367675781</ele>
        <time>2012-07-04T17:34:31Z</time>
      </trkpt>
      <trkpt lat="43.78753" lon="6.95254">
        <ele>648.66320800781</ele>
        <time>2012-07-04T17:34:41Z</time>
      </trkpt>
      <trkpt lat="43.78738" lon="6.95267">
        <ele>652.734375</ele>
        <time>2012-07-04T17:34:47Z</time>
      </trkpt>
      <trkpt lat="43.78721" lon="6.95285">
        <ele>656.62634277344</ele>
        <time>2012-07-04T17:34:55Z</time>
      </trkpt>
      <trkpt lat="43.78712" lon="6.95302">
        <ele>657.80584716797</ele>
        <time>2012-07-04T17:35:00Z</time>
      </trkpt>
      <trkpt lat="43.78703" lon="6.95324">
        <ele>659.71368408203</ele>
        <time>2012-07-04T17:35:06Z</time>
      </trkpt>
      <trkpt lat="43.78702" lon="6.95349">
        <ele>658.01257324219</ele>
        <time>2012-07-04T17:35:12Z</time>
      </trkpt>
      <trkpt lat="43.78706" lon="6.95369">
        <ele>655.67822265625</ele>
        <time>2012-07-04T17:35:18Z</time>
      </trkpt>
      <trkpt lat="43.78714" lon="6.95393">
        <ele>653.48095703125</ele>
        <time>2012-07-04T17:35:25Z</time>
      </trkpt>
      <trkpt lat="43.78727" lon="6.95421">
        <ele>649.71014404297</ele>
        <time>2012-07-04T17:35:33Z</time>
      </trkpt>
      <trkpt lat="43.78743" lon="6.95441">
        <ele>645.86492919922</ele>
        <time>2012-07-04T17:35:40Z</time>
      </trkpt>
      <trkpt lat="43.78755" lon="6.95468">
        <ele>643.44812011719</ele>
        <time>2012-07-04T17:35:48Z</time>
      </trkpt>
      <trkpt lat="43.78756" lon="6.95486">
        <ele>643.2861328125</ele>
        <time>2012-07-04T17:35:53Z</time>
      </trkpt>
      <trkpt lat="43.78748" lon="6.95503">
        <ele>645.52734375</ele>
        <time>2012-07-04T17:35:58Z</time>
      </trkpt>
      <trkpt lat="43.78729" lon="6.95518">
        <ele>649.482421875</ele>
        <time>2012-07-04T17:36:05Z</time>
      </trkpt>
      <trkpt lat="43.78706" lon="6.95531">
        <ele>655.7880859375</ele>
        <time>2012-07-04T17:36:13Z</time>
      </trkpt>
      <trkpt lat="43.78698" lon="6.9555">
        <ele>657.87548828125</ele>
        <time>2012-07-04T17:36:18Z</time>
      </trkpt>
      <trkpt lat="43.78692" lon="6.95583">
        <ele>660.72326660156</ele>
        <time>2012-07-04T17:36:26Z</time>
      </trkpt>
      <trkpt lat="43.78686" lon="6.95612">
        <ele>662.39965820312</ele>
        <time>2012-07-04T17:36:33Z</time>
      </trkpt>
      <trkpt lat="43.78677" lon="6.95646">
        <ele>665.77990722656</ele>
        <time>2012-07-04T17:36:42Z</time>
      </trkpt>
      <trkpt lat="43.78666" lon="6.95669">
        <ele>669.2568359375</ele>
        <time>2012-07-04T17:36:49Z</time>
      </trkpt>
      <trkpt lat="43.78656" lon="6.95701">
        <ele>672.59039306641</ele>
        <time>2012-07-04T17:36:58Z</time>
      </trkpt>
      <trkpt lat="43.78658" lon="6.95724">
        <ele>672.31921386719</ele>
        <time>2012-07-04T17:37:04Z</time>
      </trkpt>
      <trkpt lat="43.78665" lon="6.95746">
        <ele>670.42492675781</ele>
        <time>2012-07-04T17:37:10Z</time>
      </trkpt>
      <trkpt lat="43.78672" lon="6.95772">
        <ele>668.66351318359</ele>
        <time>2012-07-04T17:37:17Z</time>
      </trkpt>
      <trkpt lat="43.78677" lon="6.95793">
        <ele>666.70654296875</ele>
        <time>2012-07-04T17:37:23Z</time>
      </trkpt>
      <trkpt lat="43.78687" lon="6.95811">
        <ele>662.14617919922</ele>
        <time>2012-07-04T17:37:29Z</time>
      </trkpt>
      <trkpt lat="43.78701" lon="6.95828">
        <ele>657.21630859375</ele>
        <time>2012-07-04T17:37:36Z</time>
      </trkpt>
      <trkpt lat="43.7872" lon="6.95854">
        <ele>650.76300048828</ele>
        <time>2012-07-04T17:37:46Z</time>
      </trkpt>
      <trkpt lat="43.78738" lon="6.95879">
        <ele>646.37579345703</ele>
        <time>2012-07-04T17:37:55Z</time>
      </trkpt>
      <trkpt lat="43.78753" lon="6.95911">
        <ele>642.49340820312</ele>
        <time>2012-07-04T17:38:05Z</time>
      </trkpt>
      <trkpt lat="43.7877" lon="6.95935">
        <ele>636.56420898438</ele>
        <time>2012-07-04T17:38:14Z</time>
      </trkpt>
      <trkpt lat="43.78783" lon="6.95962">
        <ele>630.85040283203</ele>
        <time>2012-07-04T17:38:23Z</time>
      </trkpt>
      <trkpt lat="43.78783" lon="6.95985">
        <ele>630.08911132812</ele>
        <time>2012-07-04T17:38:29Z</time>
      </trkpt>
      <trkpt lat="43.78779" lon="6.96007">
        <ele>631.02612304688</ele>
        <time>2012-07-04T17:38:35Z</time>
      </trkpt>
      <trkpt lat="43.78769" lon="6.96033">
        <ele>632.99847412109</ele>
        <time>2012-07-04T17:38:42Z</time>
      </trkpt>
      <trkpt lat="43.78754" lon="6.96067">
        <ele>636.89337158203</ele>
        <time>2012-07-04T17:38:52Z</time>
      </trkpt>
      <trkpt lat="43.78741" lon="6.96104">
        <ele>636.96112060547</ele>
        <time>2012-07-04T17:39:02Z</time>
      </trkpt>
      <trkpt lat="43.78731" lon="6.96142">
        <ele>637.27062988281</ele>
        <time>2012-07-04T17:39:12Z</time>
      </trkpt>
      <trkpt lat="43.78716" lon="6.96166">
        <ele>638.44592285156</ele>
        <time>2012-07-04T17:39:20Z</time>
      </trkpt>
      <trkpt lat="43.78696" lon="6.96183">
        <ele>642.56860351562</ele>
        <time>2012-07-04T17:39:28Z</time>
      </trkpt>
      <trkpt lat="43.78676" lon="6.96206">
        <ele>647.68774414062</ele>
        <time>2012-07-04T17:39:37Z</time>
      </trkpt>
      <trkpt lat="43.78668" lon="6.96231">
        <ele>649.93603515625</ele>
        <time>2012-07-04T17:39:43Z</time>
      </trkpt>
      <trkpt lat="43.78661" lon="6.96275">
        <ele>651.95764160156</ele>
        <time>2012-07-04T17:39:53Z</time>
      </trkpt>
      <trkpt lat="43.78656" lon="6.96309">
        <ele>653.9189453125</ele>
        <time>2012-07-04T17:40:01Z</time>
      </trkpt>
      <trkpt lat="43.78645" lon="6.96337">
        <ele>656.04510498047</ele>
        <time>2012-07-04T17:40:09Z</time>
      </trkpt>
      <trkpt lat="43.78631" lon="6.96338">
        <ele>659.49737548828</ele>
        <time>2012-07-04T17:40:14Z</time>
      </trkpt>
      <trkpt lat="43.78612" lon="6.96331">
        <ele>664.57421875</ele>
        <time>2012-07-04T17:40:21Z</time>
      </trkpt>
      <trkpt lat="43.78598" lon="6.96327">
        <ele>670.15472412109</ele>
        <time>2012-07-04T17:40:26Z</time>
      </trkpt>
      <trkpt lat="43.78581" lon="6.9632">
        <ele>676.79870605469</ele>
        <time>2012-07-04T17:40:32Z</time>
      </trkpt>
      <trkpt lat="43.78577" lon="6.96318">
        <ele>677.21612548828</ele>
        <time>2012-07-04T17:40:34Z</time>
      </trkpt>
      <trkpt lat="43.78568" lon="6.96316">
        <ele>678.39208984375</ele>
        <time>2012-07-04T17:40:37Z</time>
      </trkpt>
      <trkpt lat="43.78542" lon="6.96307">
        <ele>682.38098144531</ele>
        <time>2012-07-04T17:40:45Z</time>
      </trkpt>
      <trkpt lat="43.78522" lon="6.96295">
        <ele>685.28173828125</ele>
        <time>2012-07-04T17:40:52Z</time>
      </trkpt>
      <trkpt lat="43.78508" lon="6.96274">
        <ele>686.45178222656</ele>
        <time>2012-07-04T17:40:59Z</time>
      </trkpt>
      <trkpt lat="43.7849" lon="6.96248">
        <ele>688.43041992188</ele>
        <time>2012-07-04T17:41:08Z</time>
      </trkpt>
      <trkpt lat="43.78472" lon="6.9623">
        <ele>691.00915527344</ele>
        <time>2012-07-04T17:41:16Z</time>
      </trkpt>
      <trkpt lat="43.78452" lon="6.96209">
        <ele>693.70642089844</ele>
        <time>2012-07-04T17:41:25Z</time>
      </trkpt>
      <trkpt lat="43.78434" lon="6.96189">
        <ele>695.91870117188</ele>
        <time>2012-07-04T17:41:33Z</time>
      </trkpt>
      <trkpt lat="43.7843" lon="6.96164">
        <ele>697.13580322266</ele>
        <time>2012-07-04T17:41:40Z</time>
      </trkpt>
      <trkpt lat="43.78437" lon="6.9614">
        <ele>697.48767089844</ele>
        <time>2012-07-04T17:41:47Z</time>
      </trkpt>
      <trkpt lat="43.78455" lon="6.96106">
        <ele>695.66662597656</ele>
        <time>2012-07-04T17:41:58Z</time>
      </trkpt>
      <trkpt lat="43.78469" lon="6.96076">
        <ele>694.75317382812</ele>
        <time>2012-07-04T17:42:07Z</time>
      </trkpt>
      <trkpt lat="43.7848" lon="6.96056">
        <ele>697.00640869141</ele>
        <time>2012-07-04T17:42:13Z</time>
      </trkpt>
      <trkpt lat="43.78493" lon="6.96037">
        <ele>697.53955078125</ele>
        <time>2012-07-04T17:42:20Z</time>
      </trkpt>
      <trkpt lat="43.78506" lon="6.96015">
        <ele>698.71472167969</ele>
        <time>2012-07-04T17:42:27Z</time>
      </trkpt>
      <trkpt lat="43.78519" lon="6.95993">
        <ele>699.71374511719</ele>
        <time>2012-07-04T17:42:34Z</time>
      </trkpt>
      <trkpt lat="43.78529" lon="6.95975">
        <ele>700.63195800781</ele>
        <time>2012-07-04T17:42:40Z</time>
      </trkpt>
      <trkpt lat="43.78535" lon="6.95949">
        <ele>701.59088134766</ele>
        <time>2012-07-04T17:42:47Z</time>
      </trkpt>
      <trkpt lat="43.78542" lon="6.9592">
        <ele>702.6826171875</ele>
        <time>2012-07-04T17:42:55Z</time>
      </trkpt>
      <trkpt lat="43.78551" lon="6.95882">
        <ele>703.88641357422</ele>
        <time>2012-07-04T17:43:05Z</time>
      </trkpt>
      <trkpt lat="43.78558" lon="6.95851">
        <ele>703.93145751953</ele>
        <time>2012-07-04T17:43:13Z</time>
      </trkpt>
      <trkpt lat="43.78565" lon="6.95809">
        <ele>703.91473388672</ele>
        <time>2012-07-04T17:43:24Z</time>
      </trkpt>
      <trkpt lat="43.78556" lon="6.95795">
        <ele>706.26861572266</ele>
        <time>2012-07-04T17:43:29Z</time>
      </trkpt>
      <trkpt lat="43.78545" lon="6.95796">
        <ele>708.65802001953</ele>
        <time>2012-07-04T17:43:33Z</time>
      </trkpt>
      <trkpt lat="43.78532" lon="6.9581">
        <ele>710.68835449219</ele>
        <time>2012-07-04T17:43:39Z</time>
      </trkpt>
      <trkpt lat="43.78509" lon="6.95837">
        <ele>713.05786132812</ele>
        <time>2012-07-04T17:43:50Z</time>
      </trkpt>
      <trkpt lat="43.78486" lon="6.95862">
        <ele>714.91198730469</ele>
        <time>2012-07-04T17:44:00Z</time>
      </trkpt>
      <trkpt lat="43.7846" lon="6.95881">
        <ele>717.85192871094</ele>
        <time>2012-07-04T17:44:10Z</time>
      </trkpt>
      <trkpt lat="43.78443" lon="6.95892">
        <ele>718.79870605469</ele>
        <time>2012-07-04T17:44:17Z</time>
      </trkpt>
      <trkpt lat="43.7842" lon="6.95904">
        <ele>719.09222412109</ele>
        <time>2012-07-04T17:44:26Z</time>
      </trkpt>
      <trkpt lat="43.78395" lon="6.9592">
        <ele>718.34655761719</ele>
        <time>2012-07-04T17:44:35Z</time>
      </trkpt>
      <trkpt lat="43.78368" lon="6.95934">
        <ele>717.275390625</ele>
        <time>2012-07-04T17:44:45Z</time>
      </trkpt>
      <trkpt lat="43.78342" lon="6.95933">
        <ele>717.65368652344</ele>
        <time>2012-07-04T17:44:54Z</time>
      </trkpt>
      <trkpt lat="43.78323" lon="6.95922">
        <ele>720.07434082031</ele>
        <time>2012-07-04T17:45:02Z</time>
      </trkpt>
      <trkpt lat="43.7832" lon="6.95915">
        <ele>721.11065673828</ele>
        <time>2012-07-04T17:45:04Z</time>
      </trkpt>
      <trkpt lat="43.78321" lon="6.95909">
        <ele>721.67028808594</ele>
        <time>2012-07-04T17:45:06Z</time>
      </trkpt>
      <trkpt lat="43.78329" lon="6.95906">
        <ele>721.47973632812</ele>
        <time>2012-07-04T17:45:09Z</time>
      </trkpt>
      <trkpt lat="43.78332" lon="6.95905">
        <ele>721.39050292969</ele>
        <time>2012-07-04T17:45:10Z</time>
      </trkpt>
      <trkpt lat="43.78351" lon="6.95894">
        <ele>722.41680908203</ele>
        <time>2012-07-04T17:45:18Z</time>
      </trkpt>
      <trkpt lat="43.78361" lon="6.95878">
        <ele>723.7744140625</ele>
        <time>2012-07-04T17:45:25Z</time>
      </trkpt>
      <trkpt lat="43.78362" lon="6.95853">
        <ele>725.87243652344</ele>
        <time>2012-07-04T17:45:32Z</time>
      </trkpt>
      <trkpt lat="43.78355" lon="6.95829">
        <ele>728.48754882812</ele>
        <time>2012-07-04T17:45:39Z</time>
      </trkpt>
      <trkpt lat="43.7834" lon="6.95796">
        <ele>731.69738769531</ele>
        <time>2012-07-04T17:45:49Z</time>
      </trkpt>
      <trkpt lat="43.7832" lon="6.95753">
        <ele>737.13354492188</ele>
        <time>2012-07-04T17:46:02Z</time>
      </trkpt>
      <trkpt lat="43.78305" lon="6.95714">
        <ele>743.90911865234</ele>
        <time>2012-07-04T17:46:11Z</time>
      </trkpt>
      <trkpt lat="43.78297" lon="6.95674">
        <ele>750.39819335938</ele>
        <time>2012-07-04T17:46:19Z</time>
      </trkpt>
      <trkpt lat="43.78286" lon="6.95659">
        <ele>754.44421386719</ele>
        <time>2012-07-04T17:46:23Z</time>
      </trkpt>
      <trkpt lat="43.78265" lon="6.95648">
        <ele>759.20953369141</ele>
        <time>2012-07-04T17:46:29Z</time>
      </trkpt>
      <trkpt lat="43.78243" lon="6.95648">
        <ele>762.63006591797</ele>
        <time>2012-07-04T17:46:35Z</time>
      </trkpt>
      <trkpt lat="43.78222" lon="6.95655">
        <ele>766.73474121094</ele>
        <time>2012-07-04T17:46:41Z</time>
      </trkpt>
      <trkpt lat="43.78195" lon="6.95664">
        <ele>766.61022949219</ele>
        <time>2012-07-04T17:46:48Z</time>
      </trkpt>
      <trkpt lat="43.78173" lon="6.9568">
        <ele>763.44049072266</ele>
        <time>2012-07-04T17:46:55Z</time>
      </trkpt>
      <trkpt lat="43.78158" lon="6.95692">
        <ele>760.98583984375</ele>
        <time>2012-07-04T17:47:01Z</time>
      </trkpt>
      <trkpt lat="43.78147" lon="6.95701">
        <ele>761.11987304688</ele>
        <time>2012-07-04T17:47:06Z</time>
      </trkpt>
      <trkpt lat="43.78135" lon="6.95714">
        <ele>760.85040283203</ele>
        <time>2012-07-04T17:47:12Z</time>
      </trkpt>
      <trkpt lat="43.78132" lon="6.95717">
        <ele>760.72399902344</ele>
        <time>2012-07-04T17:47:14Z</time>
      </trkpt>
      <trkpt lat="43.78135" lon="6.95719">
        <ele>760.07312011719</ele>
        <time>2012-07-04T17:47:16Z</time>
      </trkpt>
      <trkpt lat="43.78136" lon="6.95719">
        <ele>759.92462158203</ele>
        <time>2012-07-04T17:47:21Z</time>
      </trkpt>
      <trkpt lat="43.78136" lon="6.95719">
        <ele>759.83294677734</ele>
        <time>2012-07-04T17:47:31Z</time>
      </trkpt>
      <trkpt lat="43.78132" lon="6.95716">
        <ele>760.88409423828</ele>
        <time>2012-07-04T17:50:24Z</time>
      </trkpt>
      <trkpt lat="43.78133" lon="6.95716">
        <ele>760.69586181641</ele>
        <time>2012-07-04T17:51:04Z</time>
      </trkpt>
      <trkpt lat="43.78124" lon="6.9572">
        <ele>761.43237304688</ele>
        <time>2012-07-04T17:51:18Z</time>
      </trkpt>
      <trkpt lat="43.78108" lon="6.95733">
        <ele>761.107421875</ele>
        <time>2012-07-04T17:51:23Z</time>
      </trkpt>
      <trkpt lat="43.78085" lon="6.95756">
        <ele>757.30517578125</ele>
        <time>2012-07-04T17:51:30Z</time>
      </trkpt>
      <trkpt lat="43.78079" lon="6.95766">
        <ele>756.61383056641</ele>
        <time>2012-07-04T17:51:32Z</time>
      </trkpt>
      <trkpt lat="43.78072" lon="6.95783">
        <ele>755.54077148438</ele>
        <time>2012-07-04T17:51:35Z</time>
      </trkpt>
      <trkpt lat="43.78069" lon="6.95788">
        <ele>755.43408203125</ele>
        <time>2012-07-04T17:51:36Z</time>
      </trkpt>
      <trkpt lat="43.78053" lon="6.95832">
        <ele>754.37048339844</ele>
        <time>2012-07-04T17:51:44Z</time>
      </trkpt>
      <trkpt lat="43.78048" lon="6.95842">
        <ele>753.97515869141</ele>
        <time>2012-07-04T17:51:46Z</time>
      </trkpt>
      <trkpt lat="43.78044" lon="6.95851">
        <ele>753.59735107422</ele>
        <time>2012-07-04T17:51:48Z</time>
      </trkpt>
      <trkpt lat="43.78038" lon="6.95859">
        <ele>753.64208984375</ele>
        <time>2012-07-04T17:51:50Z</time>
      </trkpt>
      <trkpt lat="43.78033" lon="6.95868">
        <ele>754.02770996094</ele>
        <time>2012-07-04T17:51:52Z</time>
      </trkpt>
      <trkpt lat="43.7803" lon="6.95873">
        <ele>754.31616210938</ele>
        <time>2012-07-04T17:51:53Z</time>
      </trkpt>
      <trkpt lat="43.7802" lon="6.95885">
        <ele>754.43231201172</ele>
        <time>2012-07-04T17:51:56Z</time>
      </trkpt>
      <trkpt lat="43.77989" lon="6.95912">
        <ele>754.1669921875</ele>
        <time>2012-07-04T17:52:04Z</time>
      </trkpt>
      <trkpt lat="43.7798" lon="6.95917">
        <ele>753.95635986328</ele>
        <time>2012-07-04T17:52:06Z</time>
      </trkpt>
      <trkpt lat="43.77961" lon="6.95924">
        <ele>753.49633789062</ele>
        <time>2012-07-04T17:52:10Z</time>
      </trkpt>
      <trkpt lat="43.77914" lon="6.95928">
        <ele>753.16333007812</ele>
        <time>2012-07-04T17:52:19Z</time>
      </trkpt>
      <trkpt lat="43.77894" lon="6.95931">
        <ele>753.001953125</ele>
        <time>2012-07-04T17:52:23Z</time>
      </trkpt>
      <trkpt lat="43.77877" lon="6.95934">
        <ele>752.58538818359</ele>
        <time>2012-07-04T17:52:26Z</time>
      </trkpt>
      <trkpt lat="43.7784" lon="6.95949">
        <ele>750.30419921875</ele>
        <time>2012-07-04T17:52:32Z</time>
      </trkpt>
      <trkpt lat="43.77801" lon="6.95953">
        <ele>738.52288818359</ele>
        <time>2012-07-04T17:52:37Z</time>
      </trkpt>
      <trkpt lat="43.77746" lon="6.9595">
        <ele>735.13055419922</ele>
        <time>2012-07-04T17:52:43Z</time>
      </trkpt>
      <trkpt lat="43.77691" lon="6.95948">
        <ele>731.19604492188</ele>
        <time>2012-07-04T17:52:49Z</time>
      </trkpt>
      <trkpt lat="43.77665" lon="6.95948">
        <ele>728.68688964844</ele>
        <time>2012-07-04T17:52:52Z</time>
      </trkpt>
      <trkpt lat="43.77635" lon="6.95943">
        <ele>728.56872558594</ele>
        <time>2012-07-04T17:52:56Z</time>
      </trkpt>
      <trkpt lat="43.77629" lon="6.95937">
        <ele>729.75695800781</ele>
        <time>2012-07-04T17:52:57Z</time>
      </trkpt>
      <trkpt lat="43.77614" lon="6.95915">
        <ele>733.70678710938</ele>
        <time>2012-07-04T17:53:00Z</time>
      </trkpt>
      <trkpt lat="43.77578" lon="6.95871">
        <ele>751.92016601562</ele>
        <time>2012-07-04T17:53:07Z</time>
      </trkpt>
      <trkpt lat="43.77554" lon="6.95858">
        <ele>760.99432373047</ele>
        <time>2012-07-04T17:53:11Z</time>
      </trkpt>
      <trkpt lat="43.77549" lon="6.95857">
        <ele>764.04809570312</ele>
        <time>2012-07-04T17:53:12Z</time>
      </trkpt>
      <trkpt lat="43.77533" lon="6.95857">
        <ele>772.08929443359</ele>
        <time>2012-07-04T17:53:15Z</time>
      </trkpt>
      <trkpt lat="43.77528" lon="6.95858">
        <ele>774.29315185547</ele>
        <time>2012-07-04T17:53:16Z</time>
      </trkpt>
      <trkpt lat="43.77511" lon="6.95865">
        <ele>778.94677734375</ele>
        <time>2012-07-04T17:53:20Z</time>
      </trkpt>
      <trkpt lat="43.77505" lon="6.95871">
        <ele>780.35290527344</ele>
        <time>2012-07-04T17:53:22Z</time>
      </trkpt>
      <trkpt lat="43.77499" lon="6.95878">
        <ele>781.66021728516</ele>
        <time>2012-07-04T17:53:24Z</time>
      </trkpt>
      <trkpt lat="43.77489" lon="6.95895">
        <ele>782.10992431641</ele>
        <time>2012-07-04T17:53:28Z</time>
      </trkpt>
      <trkpt lat="43.77471" lon="6.95937">
        <ele>778.87414550781</ele>
        <time>2012-07-04T17:53:37Z</time>
      </trkpt>
      <trkpt lat="43.77459" lon="6.95967">
        <ele>779.02044677734</ele>
        <time>2012-07-04T17:53:44Z</time>
      </trkpt>
      <trkpt lat="43.77445" lon="6.96001">
        <ele>776.65002441406</ele>
        <time>2012-07-04T17:53:52Z</time>
      </trkpt>
      <trkpt lat="43.77438" lon="6.96039">
        <ele>772.20031738281</ele>
        <time>2012-07-04T17:54:00Z</time>
      </trkpt>
      <trkpt lat="43.77444" lon="6.96075">
        <ele>765.54327392578</ele>
        <time>2012-07-04T17:54:07Z</time>
      </trkpt>
      <trkpt lat="43.77454" lon="6.96126">
        <ele>759</ele>
        <time>2012-07-04T17:54:17Z</time>
      </trkpt>
      <trkpt lat="43.77451" lon="6.96167">
        <ele>758.00030517578</ele>
        <time>2012-07-04T17:54:25Z</time>
      </trkpt>
      <trkpt lat="43.77445" lon="6.96195">
        <ele>757.95269775391</ele>
        <time>2012-07-04T17:54:31Z</time>
      </trkpt>
      <trkpt lat="43.77431" lon="6.96233">
        <ele>757.48016357422</ele>
        <time>2012-07-04T17:54:39Z</time>
      </trkpt>
      <trkpt lat="43.77408" lon="6.96272">
        <ele>757.19116210938</ele>
        <time>2012-07-04T17:54:49Z</time>
      </trkpt>
      <trkpt lat="43.77385" lon="6.96313">
        <ele>757.03802490234</ele>
        <time>2012-07-04T17:54:59Z</time>
      </trkpt>
      <trkpt lat="43.77355" lon="6.96359">
        <ele>757.59112548828</ele>
        <time>2012-07-04T17:55:09Z</time>
      </trkpt>
      <trkpt lat="43.77328" lon="6.964">
        <ele>753.64453125</ele>
        <time>2012-07-04T17:55:17Z</time>
      </trkpt>
      <trkpt lat="43.77299" lon="6.96449">
        <ele>745.77087402344</ele>
        <time>2012-07-04T17:55:25Z</time>
      </trkpt>
      <trkpt lat="43.77269" lon="6.96497">
        <ele>735.55859375</ele>
        <time>2012-07-04T17:55:31Z</time>
      </trkpt>
      <trkpt lat="43.77256" lon="6.96512">
        <ele>730.21203613281</ele>
        <time>2012-07-04T17:55:33Z</time>
      </trkpt>
      <trkpt lat="43.7724" lon="6.96521">
        <ele>726.07775878906</ele>
        <time>2012-07-04T17:55:35Z</time>
      </trkpt>
      <trkpt lat="43.77222" lon="6.96513">
        <ele>724.06311035156</ele>
        <time>2012-07-04T17:55:37Z</time>
      </trkpt>
      <trkpt lat="43.772" lon="6.96487">
        <ele>727.16534423828</ele>
        <time>2012-07-04T17:55:40Z</time>
      </trkpt>
      <trkpt lat="43.77193" lon="6.96478">
        <ele>728.55053710938</ele>
        <time>2012-07-04T17:55:41Z</time>
      </trkpt>
      <trkpt lat="43.77151" lon="6.96417">
        <ele>735.54766845703</ele>
        <time>2012-07-04T17:55:47Z</time>
      </trkpt>
      <trkpt lat="43.77118" lon="6.96376">
        <ele>739.18548583984</ele>
        <time>2012-07-04T17:55:52Z</time>
      </trkpt>
      <trkpt lat="43.77085" lon="6.96359">
        <ele>749.49645996094</ele>
        <time>2012-07-04T17:55:56Z</time>
      </trkpt>
      <trkpt lat="43.77069" lon="6.96334">
        <ele>752.99377441406</ele>
        <time>2012-07-04T17:55:59Z</time>
      </trkpt>
      <trkpt lat="43.77064" lon="6.96307">
        <ele>755.37048339844</ele>
        <time>2012-07-04T17:56:02Z</time>
      </trkpt>
      <trkpt lat="43.77063" lon="6.963">
        <ele>755.64892578125</ele>
        <time>2012-07-04T17:56:03Z</time>
      </trkpt>
      <trkpt lat="43.7706" lon="6.96275">
        <ele>756.51275634766</ele>
        <time>2012-07-04T17:56:07Z</time>
      </trkpt>
      <trkpt lat="43.77055" lon="6.96241">
        <ele>758.03454589844</ele>
        <time>2012-07-04T17:56:14Z</time>
      </trkpt>
      <trkpt lat="43.7705" lon="6.96213">
        <ele>758.45257568359</ele>
        <time>2012-07-04T17:56:21Z</time>
      </trkpt>
      <trkpt lat="43.77045" lon="6.96202">
        <ele>758.82843017578</ele>
        <time>2012-07-04T17:56:25Z</time>
      </trkpt>
      <trkpt lat="43.7704" lon="6.96203">
        <ele>758.86041259766</ele>
        <time>2012-07-04T17:56:27Z</time>
      </trkpt>
      <trkpt lat="43.77038" lon="6.96212">
        <ele>758.77166748047</ele>
        <time>2012-07-04T17:56:30Z</time>
      </trkpt>
      <trkpt lat="43.77038" lon="6.96216">
        <ele>758.71337890625</ele>
        <time>2012-07-04T17:56:32Z</time>
      </trkpt>
      <trkpt lat="43.77039" lon="6.96219">
        <ele>758.65686035156</ele>
        <time>2012-07-04T17:56:33Z</time>
      </trkpt>
      <trkpt lat="43.77038" lon="6.96226">
        <ele>758.63879394531</ele>
        <time>2012-07-04T17:56:36Z</time>
      </trkpt>
      <trkpt lat="43.77035" lon="6.96236">
        <ele>758.73492431641</ele>
        <time>2012-07-04T17:56:40Z</time>
      </trkpt>
      <trkpt lat="43.77034" lon="6.96242">
        <ele>758.78985595703</ele>
        <time>2012-07-04T17:56:43Z</time>
      </trkpt>
      <trkpt lat="43.77029" lon="6.96259">
        <ele>758.95843505859</ele>
        <time>2012-07-04T17:56:50Z</time>
      </trkpt>
      <trkpt lat="43.77024" lon="6.96283">
        <ele>759.29254150391</ele>
        <time>2012-07-04T17:57:00Z</time>
      </trkpt>
      <trkpt lat="43.77018" lon="6.96308">
        <ele>760.04321289062</ele>
        <time>2012-07-04T17:57:10Z</time>
      </trkpt>
      <trkpt lat="43.77013" lon="6.96329">
        <ele>761.04870605469</ele>
        <time>2012-07-04T17:57:19Z</time>
      </trkpt>
      <trkpt lat="43.77006" lon="6.96346">
        <ele>762.11450195312</ele>
        <time>2012-07-04T17:57:27Z</time>
      </trkpt>
      <trkpt lat="43.76997" lon="6.96348">
        <ele>763.85363769531</ele>
        <time>2012-07-04T17:57:33Z</time>
      </trkpt>
      <trkpt lat="43.76995" lon="6.96347">
        <ele>764.14202880859</ele>
        <time>2012-07-04T17:57:34Z</time>
      </trkpt>
      <trkpt lat="43.76986" lon="6.96338">
        <ele>766.64141845703</ele>
        <time>2012-07-04T17:57:41Z</time>
      </trkpt>
      <trkpt lat="43.76968" lon="6.96322">
        <ele>770.58978271484</ele>
        <time>2012-07-04T17:57:52Z</time>
      </trkpt>
      <trkpt lat="43.76956" lon="6.96321">
        <ele>773.09429931641</ele>
        <time>2012-07-04T17:57:58Z</time>
      </trkpt>
      <trkpt lat="43.76939" lon="6.96329">
        <ele>776.89324951172</ele>
        <time>2012-07-04T17:58:05Z</time>
      </trkpt>
      <trkpt lat="43.76932" lon="6.96346">
        <ele>778.68023681641</ele>
        <time>2012-07-04T17:58:10Z</time>
      </trkpt>
      <trkpt lat="43.76928" lon="6.96364">
        <ele>780.22302246094</ele>
        <time>2012-07-04T17:58:17Z</time>
      </trkpt>
      <trkpt lat="43.76919" lon="6.96381">
        <ele>782.93542480469</ele>
        <time>2012-07-04T17:58:25Z</time>
      </trkpt>
      <trkpt lat="43.76911" lon="6.96401">
        <ele>786.54681396484</ele>
        <time>2012-07-04T17:58:34Z</time>
      </trkpt>
      <trkpt lat="43.76906" lon="6.96424">
        <ele>788.90380859375</ele>
        <time>2012-07-04T17:58:43Z</time>
      </trkpt>
      <trkpt lat="43.76902" lon="6.96446">
        <ele>790.41442871094</ele>
        <time>2012-07-04T17:58:52Z</time>
      </trkpt>
      <trkpt lat="43.769" lon="6.96466">
        <ele>791.10107421875</ele>
        <time>2012-07-04T17:58:59Z</time>
      </trkpt>
      <trkpt lat="43.76894" lon="6.96488">
        <ele>793.02368164062</ele>
        <time>2012-07-04T17:59:07Z</time>
      </trkpt>
      <trkpt lat="43.76889" lon="6.96516">
        <ele>794.9462890625</ele>
        <time>2012-07-04T17:59:16Z</time>
      </trkpt>
      <trkpt lat="43.76884" lon="6.96547">
        <ele>796.4951171875</ele>
        <time>2012-07-04T17:59:25Z</time>
      </trkpt>
      <trkpt lat="43.76876" lon="6.96581">
        <ele>798.6923828125</ele>
        <time>2012-07-04T17:59:36Z</time>
      </trkpt>
      <trkpt lat="43.76863" lon="6.966">
        <ele>802.31787109375</ele>
        <time>2012-07-04T17:59:44Z</time>
      </trkpt>
      <trkpt lat="43.76848" lon="6.9661">
        <ele>807.31304931641</ele>
        <time>2012-07-04T17:59:51Z</time>
      </trkpt>
      <trkpt lat="43.76841" lon="6.96629">
        <ele>809.64837646484</ele>
        <time>2012-07-04T17:59:57Z</time>
      </trkpt>
      <trkpt lat="43.76841" lon="6.96645">
        <ele>809.41729736328</ele>
        <time>2012-07-04T18:00:02Z</time>
      </trkpt>
      <trkpt lat="43.76843" lon="6.96673">
        <ele>807.45446777344</ele>
        <time>2012-07-04T18:00:10Z</time>
      </trkpt>
      <trkpt lat="43.76838" lon="6.96696">
        <ele>808.15393066406</ele>
        <time>2012-07-04T18:00:17Z</time>
      </trkpt>
      <trkpt lat="43.76827" lon="6.96732">
        <ele>811.41296386719</ele>
        <time>2012-07-04T18:00:29Z</time>
      </trkpt>
      <trkpt lat="43.76814" lon="6.96767">
        <ele>815.88464355469</ele>
        <time>2012-07-04T18:00:42Z</time>
      </trkpt>
      <trkpt lat="43.76799" lon="6.96808">
        <ele>817.94952392578</ele>
        <time>2012-07-04T18:00:57Z</time>
      </trkpt>
      <trkpt lat="43.76791" lon="6.96834">
        <ele>818.11651611328</ele>
        <time>2012-07-04T18:01:07Z</time>
      </trkpt>
      <trkpt lat="43.76775" lon="6.96876">
        <ele>819.23565673828</ele>
        <time>2012-07-04T18:01:23Z</time>
      </trkpt>
      <trkpt lat="43.76764" lon="6.96903">
        <ele>819.0107421875</ele>
        <time>2012-07-04T18:01:34Z</time>
      </trkpt>
      <trkpt lat="43.76751" lon="6.96931">
        <ele>819.71954345703</ele>
        <time>2012-07-04T18:01:46Z</time>
      </trkpt>
      <trkpt lat="43.76736" lon="6.96956">
        <ele>820.41845703125</ele>
        <time>2012-07-04T18:01:57Z</time>
      </trkpt>
      <trkpt lat="43.7672" lon="6.96968">
        <ele>822.58752441406</ele>
        <time>2012-07-04T18:02:07Z</time>
      </trkpt>
      <trkpt lat="43.76704" lon="6.96971">
        <ele>824.66467285156</ele>
        <time>2012-07-04T18:02:16Z</time>
      </trkpt>
      <trkpt lat="43.7669" lon="6.96967">
        <ele>827.66259765625</ele>
        <time>2012-07-04T18:02:23Z</time>
      </trkpt>
      <trkpt lat="43.76667" lon="6.96954">
        <ele>835.41815185547</ele>
        <time>2012-07-04T18:02:34Z</time>
      </trkpt>
      <trkpt lat="43.7665" lon="6.96941">
        <ele>840.47637939453</ele>
        <time>2012-07-04T18:02:42Z</time>
      </trkpt>
      <trkpt lat="43.76639" lon="6.96939">
        <ele>843.32244873047</ele>
        <time>2012-07-04T18:02:47Z</time>
      </trkpt>
      <trkpt lat="43.76635" lon="6.9695">
        <ele>843.259765625</ele>
        <time>2012-07-04T18:02:51Z</time>
      </trkpt>
      <trkpt lat="43.76632" lon="6.96973">
        <ele>842.70343017578</ele>
        <time>2012-07-04T18:02:59Z</time>
      </trkpt>
      <trkpt lat="43.76624" lon="6.97005">
        <ele>841.25256347656</ele>
        <time>2012-07-04T18:03:10Z</time>
      </trkpt>
      <trkpt lat="43.76615" lon="6.97028">
        <ele>840.43780517578</ele>
        <time>2012-07-04T18:03:18Z</time>
      </trkpt>
      <trkpt lat="43.76607" lon="6.97043">
        <ele>841.60833740234</ele>
        <time>2012-07-04T18:03:24Z</time>
      </trkpt>
      <trkpt lat="43.76597" lon="6.97065">
        <ele>842.46459960938</ele>
        <time>2012-07-04T18:03:32Z</time>
      </trkpt>
      <trkpt lat="43.76587" lon="6.97084">
        <ele>842.93176269531</ele>
        <time>2012-07-04T18:03:39Z</time>
      </trkpt>
      <trkpt lat="43.76573" lon="6.97096">
        <ele>844.0615234375</ele>
        <time>2012-07-04T18:03:45Z</time>
      </trkpt>
      <trkpt lat="43.76553" lon="6.97108">
        <ele>845.53771972656</ele>
        <time>2012-07-04T18:03:51Z</time>
      </trkpt>
      <trkpt lat="43.76527" lon="6.97127">
        <ele>845.31262207031</ele>
        <time>2012-07-04T18:03:59Z</time>
      </trkpt>
      <trkpt lat="43.76499" lon="6.97141">
        <ele>844.62915039062</ele>
        <time>2012-07-04T18:04:07Z</time>
      </trkpt>
      <trkpt lat="43.76469" lon="6.97155">
        <ele>842.80432128906</ele>
        <time>2012-07-04T18:04:15Z</time>
      </trkpt>
      <trkpt lat="43.76444" lon="6.97168">
        <ele>841.79876708984</ele>
        <time>2012-07-04T18:04:22Z</time>
      </trkpt>
      <trkpt lat="43.76416" lon="6.97186">
        <ele>839.32672119141</ele>
        <time>2012-07-04T18:04:30Z</time>
      </trkpt>
      <trkpt lat="43.7639" lon="6.97205">
        <ele>839.53192138672</ele>
        <time>2012-07-04T18:04:38Z</time>
      </trkpt>
      <trkpt lat="43.76376" lon="6.97205">
        <ele>841.55004882812</ele>
        <time>2012-07-04T18:04:43Z</time>
      </trkpt>
      <trkpt lat="43.76358" lon="6.97205">
        <ele>844.37548828125</ele>
        <time>2012-07-04T18:04:51Z</time>
      </trkpt>
      <trkpt lat="43.76332" lon="6.97197">
        <ele>849.93908691406</ele>
        <time>2012-07-04T18:05:02Z</time>
      </trkpt>
      <trkpt lat="43.76313" lon="6.97184">
        <ele>852.31939697266</ele>
        <time>2012-07-04T18:05:11Z</time>
      </trkpt>
      <trkpt lat="43.76305" lon="6.97185">
        <ele>852.73034667969</ele>
        <time>2012-07-04T18:05:15Z</time>
      </trkpt>
      <trkpt lat="43.76303" lon="6.97187">
        <ele>852.70288085938</ele>
        <time>2012-07-04T18:05:16Z</time>
      </trkpt>
      <trkpt lat="43.76301" lon="6.97199">
        <ele>852.03961181641</ele>
        <time>2012-07-04T18:05:21Z</time>
      </trkpt>
      <trkpt lat="43.76301" lon="6.97201">
        <ele>851.88696289062</ele>
        <time>2012-07-04T18:05:22Z</time>
      </trkpt>
      <trkpt lat="43.76294" lon="6.9722">
        <ele>851.36822509766</ele>
        <time>2012-07-04T18:05:30Z</time>
      </trkpt>
      <trkpt lat="43.76284" lon="6.97234">
        <ele>851.49346923828</ele>
        <time>2012-07-04T18:05:38Z</time>
      </trkpt>
      <trkpt lat="43.76278" lon="6.97247">
        <ele>851.19476318359</ele>
        <time>2012-07-04T18:05:44Z</time>
      </trkpt>
      <trkpt lat="43.76272" lon="6.9726">
        <ele>851.09680175781</ele>
        <time>2012-07-04T18:05:51Z</time>
      </trkpt>
      <trkpt lat="43.76264" lon="6.97272">
        <ele>851.34057617188</ele>
        <time>2012-07-04T18:06:00Z</time>
      </trkpt>
      <trkpt lat="43.76257" lon="6.97284">
        <ele>852.00024414062</ele>
        <time>2012-07-04T18:06:08Z</time>
      </trkpt>
      <trkpt lat="43.76251" lon="6.97292">
        <ele>852.82421875</ele>
        <time>2012-07-04T18:06:15Z</time>
      </trkpt>
      <trkpt lat="43.76244" lon="6.97299">
        <ele>853.69213867188</ele>
        <time>2012-07-04T18:06:22Z</time>
      </trkpt>
      <trkpt lat="43.76235" lon="6.97306">
        <ele>854.59851074219</ele>
        <time>2012-07-04T18:06:30Z</time>
      </trkpt>
      <trkpt lat="43.76232" lon="6.97308">
        <ele>854.96929931641</ele>
        <time>2012-07-04T18:06:33Z</time>
      </trkpt>
      <trkpt lat="43.76229" lon="6.97309">
        <ele>855.29888916016</ele>
        <time>2012-07-04T18:06:35Z</time>
      </trkpt>
      <trkpt lat="43.76228" lon="6.9731">
        <ele>855.42248535156</ele>
        <time>2012-07-04T18:06:36Z</time>
      </trkpt>
      <trkpt lat="43.76216" lon="6.97318">
        <ele>856.93286132812</ele>
        <time>2012-07-04T18:06:45Z</time>
      </trkpt>
      <trkpt lat="43.76204" lon="6.97326">
        <ele>858.69067382812</ele>
        <time>2012-07-04T18:06:55Z</time>
      </trkpt>
      <trkpt lat="43.76191" lon="6.97335">
        <ele>860.83752441406</ele>
        <time>2012-07-04T18:07:05Z</time>
      </trkpt>
      <trkpt lat="43.7618" lon="6.97341">
        <ele>863.14465332031</ele>
        <time>2012-07-04T18:07:13Z</time>
      </trkpt>
      <trkpt lat="43.7617" lon="6.97344">
        <ele>865.36938476562</ele>
        <time>2012-07-04T18:07:21Z</time>
      </trkpt>
      <trkpt lat="43.76165" lon="6.97341">
        <ele>866.49456787109</ele>
        <time>2012-07-04T18:07:26Z</time>
      </trkpt>
      <trkpt lat="43.76163" lon="6.97338">
        <ele>866.87622070312</ele>
        <time>2012-07-04T18:07:28Z</time>
      </trkpt>
      <trkpt lat="43.76157" lon="6.97326">
        <ele>868.86901855469</ele>
        <time>2012-07-04T18:07:36Z</time>
      </trkpt>
      <trkpt lat="43.7615" lon="6.97308">
        <ele>872.07562255859</ele>
        <time>2012-07-04T18:07:45Z</time>
      </trkpt>
      <trkpt lat="43.76139" lon="6.97292">
        <ele>876.02111816406</ele>
        <time>2012-07-04T18:07:55Z</time>
      </trkpt>
      <trkpt lat="43.76126" lon="6.97284">
        <ele>880.22406005859</ele>
        <time>2012-07-04T18:08:04Z</time>
      </trkpt>
      <trkpt lat="43.76112" lon="6.97282">
        <ele>884.48950195312</ele>
        <time>2012-07-04T18:08:13Z</time>
      </trkpt>
      <trkpt lat="43.761" lon="6.97283">
        <ele>888.48309326172</ele>
        <time>2012-07-04T18:08:20Z</time>
      </trkpt>
      <trkpt lat="43.76095" lon="6.97281">
        <ele>890.15167236328</ele>
        <time>2012-07-04T18:08:23Z</time>
      </trkpt>
      <trkpt lat="43.76089" lon="6.97277">
        <ele>892.19421386719</ele>
        <time>2012-07-04T18:08:27Z</time>
      </trkpt>
      <trkpt lat="43.76083" lon="6.97267">
        <ele>894.73822021484</ele>
        <time>2012-07-04T18:08:34Z</time>
      </trkpt>
      <trkpt lat="43.76078" lon="6.9726">
        <ele>896.89428710938</ele>
        <time>2012-07-04T18:08:41Z</time>
      </trkpt>
      <trkpt lat="43.76075" lon="6.97264">
        <ele>897.55346679688</ele>
        <time>2012-07-04T18:11:10Z</time>
      </trkpt>
      <trkpt lat="43.76073" lon="6.97265">
        <ele>898.33282470703</ele>
        <time>2012-07-04T18:11:16Z</time>
      </trkpt>
      <trkpt lat="43.76073" lon="6.97269">
        <ele>898.09246826172</ele>
        <time>2012-07-04T18:11:46Z</time>
      </trkpt>
      <trkpt lat="43.76075" lon="6.97266">
        <ele>897.46075439453</ele>
        <time>2012-07-04T18:11:49Z</time>
      </trkpt>
      <trkpt lat="43.76077" lon="6.97264">
        <ele>897.19982910156</ele>
        <time>2012-07-04T18:11:51Z</time>
      </trkpt>
      <trkpt lat="43.76077" lon="6.97263">
        <ele>897.04876708984</ele>
        <time>2012-07-04T18:11:56Z</time>
      </trkpt>
      <trkpt lat="43.76073" lon="6.97257">
        <ele>898.94738769531</ele>
        <time>2012-07-04T18:14:17Z</time>
      </trkpt>
      <trkpt lat="43.76062" lon="6.97252">
        <ele>902.75482177734</ele>
        <time>2012-07-04T18:14:23Z</time>
      </trkpt>
      <trkpt lat="43.76048" lon="6.97248">
        <ele>907.14379882812</ele>
        <time>2012-07-04T18:14:31Z</time>
      </trkpt>
      <trkpt lat="43.76033" lon="6.9724">
        <ele>911.39758300781</ele>
        <time>2012-07-04T18:14:39Z</time>
      </trkpt>
      <trkpt lat="43.76026" lon="6.97229">
        <ele>913.79833984375</ele>
        <time>2012-07-04T18:14:44Z</time>
      </trkpt>
      <trkpt lat="43.76024" lon="6.97211">
        <ele>914.98193359375</ele>
        <time>2012-07-04T18:14:51Z</time>
      </trkpt>
      <trkpt lat="43.76022" lon="6.97193">
        <ele>915.94952392578</ele>
        <time>2012-07-04T18:14:58Z</time>
      </trkpt>
      <trkpt lat="43.76019" lon="6.97182">
        <ele>917.03411865234</ele>
        <time>2012-07-04T18:15:04Z</time>
      </trkpt>
      <trkpt lat="43.76014" lon="6.9717">
        <ele>918.32977294922</ele>
        <time>2012-07-04T18:15:09Z</time>
      </trkpt>
      <trkpt lat="43.76014" lon="6.97169">
        <ele>918.40899658203</ele>
        <time>2012-07-04T18:15:10Z</time>
      </trkpt>
      <trkpt lat="43.76008" lon="6.97163">
        <ele>919.41625976562</ele>
        <time>2012-07-04T18:15:14Z</time>
      </trkpt>
      <trkpt lat="43.75999" lon="6.97166">
        <ele>920.26849365234</ele>
        <time>2012-07-04T18:15:19Z</time>
      </trkpt>
      <trkpt lat="43.75996" lon="6.97174">
        <ele>921.42364501953</ele>
        <time>2012-07-04T18:15:23Z</time>
      </trkpt>
      <trkpt lat="43.75994" lon="6.97178">
        <ele>921.97149658203</ele>
        <time>2012-07-04T18:15:25Z</time>
      </trkpt>
      <trkpt lat="43.75988" lon="6.9719">
        <ele>923.54431152344</ele>
        <time>2012-07-04T18:15:32Z</time>
      </trkpt>
      <trkpt lat="43.75981" lon="6.97203">
        <ele>925.24548339844</ele>
        <time>2012-07-04T18:15:40Z</time>
      </trkpt>
      <trkpt lat="43.75974" lon="6.97218">
        <ele>926.88696289062</ele>
        <time>2012-07-04T18:15:49Z</time>
      </trkpt>
      <trkpt lat="43.75973" lon="6.97219">
        <ele>926.92150878906</ele>
        <time>2012-07-04T18:15:50Z</time>
      </trkpt>
      <trkpt lat="43.75972" lon="6.97227">
        <ele>926.84362792969</ele>
        <time>2012-07-04T18:15:54Z</time>
      </trkpt>
      <trkpt lat="43.75971" lon="6.97229">
        <ele>926.83856201172</ele>
        <time>2012-07-04T18:15:55Z</time>
      </trkpt>
      <trkpt lat="43.75967" lon="6.97242">
        <ele>927.45446777344</ele>
        <time>2012-07-04T18:16:02Z</time>
      </trkpt>
      <trkpt lat="43.75962" lon="6.97254">
        <ele>927.92553710938</ele>
        <time>2012-07-04T18:16:09Z</time>
      </trkpt>
      <trkpt lat="43.75959" lon="6.97266">
        <ele>927.81579589844</ele>
        <time>2012-07-04T18:16:15Z</time>
      </trkpt>
      <trkpt lat="43.75958" lon="6.97268">
        <ele>928.05700683594</ele>
        <time>2012-07-04T18:16:16Z</time>
      </trkpt>
      <trkpt lat="43.75952" lon="6.97281">
        <ele>929.01666259766</ele>
        <time>2012-07-04T18:16:23Z</time>
      </trkpt>
      <trkpt lat="43.75946" lon="6.97298">
        <ele>929.98138427734</ele>
        <time>2012-07-04T18:16:32Z</time>
      </trkpt>
      <trkpt lat="43.7594" lon="6.97315">
        <ele>930.10125732422</ele>
        <time>2012-07-04T18:16:41Z</time>
      </trkpt>
      <trkpt lat="43.75934" lon="6.97329">
        <ele>930.21801757812</ele>
        <time>2012-07-04T18:16:49Z</time>
      </trkpt>
      <trkpt lat="43.75928" lon="6.97346">
        <ele>930.08410644531</ele>
        <time>2012-07-04T18:16:59Z</time>
      </trkpt>
      <trkpt lat="43.75925" lon="6.97357">
        <ele>929.84033203125</ele>
        <time>2012-07-04T18:17:06Z</time>
      </trkpt>
      <trkpt lat="43.75924" lon="6.9736">
        <ele>929.69268798828</ele>
        <time>2012-07-04T18:17:08Z</time>
      </trkpt>
      <trkpt lat="43.75924" lon="6.97367">
        <ele>929.35626220703</ele>
        <time>2012-07-04T18:17:12Z</time>
      </trkpt>
      <trkpt lat="43.7592" lon="6.9738">
        <ele>929.05755615234</ele>
        <time>2012-07-04T18:17:19Z</time>
      </trkpt>
      <trkpt lat="43.75916" lon="6.97389">
        <ele>929.15710449219</ele>
        <time>2012-07-04T18:17:24Z</time>
      </trkpt>
      <trkpt lat="43.7591" lon="6.97407">
        <ele>929.58624267578</ele>
        <time>2012-07-04T18:17:35Z</time>
      </trkpt>
      <trkpt lat="43.75907" lon="6.9742">
        <ele>929.98840332031</ele>
        <time>2012-07-04T18:17:43Z</time>
      </trkpt>
      <trkpt lat="43.75904" lon="6.97433">
        <ele>931.46466064453</ele>
        <time>2012-07-04T18:17:51Z</time>
      </trkpt>
      <trkpt lat="43.75901" lon="6.97445">
        <ele>932.91394042969</ele>
        <time>2012-07-04T18:17:57Z</time>
      </trkpt>
      <trkpt lat="43.759" lon="6.97447">
        <ele>933.34375</ele>
        <time>2012-07-04T18:17:58Z</time>
      </trkpt>
      <trkpt lat="43.75896" lon="6.97445">
        <ele>933.75</ele>
        <time>2012-07-04T18:18:01Z</time>
      </trkpt>
      <trkpt lat="43.75894" lon="6.9744">
        <ele>933.80615234375</ele>
        <time>2012-07-04T18:18:04Z</time>
      </trkpt>
      <trkpt lat="43.75891" lon="6.97432">
        <ele>933.65509033203</ele>
        <time>2012-07-04T18:18:08Z</time>
      </trkpt>
      <trkpt lat="43.75885" lon="6.97416">
        <ele>933.70526123047</ele>
        <time>2012-07-04T18:18:16Z</time>
      </trkpt>
      <trkpt lat="43.75872" lon="6.9741">
        <ele>936.41778564453</ele>
        <time>2012-07-04T18:18:24Z</time>
      </trkpt>
      <trkpt lat="43.75858" lon="6.97412">
        <ele>938.75115966797</ele>
        <time>2012-07-04T18:18:31Z</time>
      </trkpt>
      <trkpt lat="43.75834" lon="6.97418">
        <ele>940.88836669922</ele>
        <time>2012-07-04T18:18:40Z</time>
      </trkpt>
      <trkpt lat="43.75814" lon="6.97421">
        <ele>943.63610839844</ele>
        <time>2012-07-04T18:18:47Z</time>
      </trkpt>
      <trkpt lat="43.75803" lon="6.97427">
        <ele>944.80261230469</ele>
        <time>2012-07-04T18:18:52Z</time>
      </trkpt>
      <trkpt lat="43.75799" lon="6.97433">
        <ele>944.88500976562</ele>
        <time>2012-07-04T18:18:57Z</time>
      </trkpt>
      <trkpt lat="43.75799" lon="6.97434">
        <ele>944.86614990234</ele>
        <time>2012-07-04T18:19:03Z</time>
      </trkpt>
      <trkpt lat="43.75798" lon="6.97429">
        <ele>945.08758544922</ele>
        <time>2012-07-04T18:20:13Z</time>
      </trkpt>
      <trkpt lat="43.75787" lon="6.97432">
        <ele>945.81201171875</ele>
        <time>2012-07-04T18:20:19Z</time>
      </trkpt>
      <trkpt lat="43.75771" lon="6.97435">
        <ele>946.33666992188</ele>
        <time>2012-07-04T18:20:25Z</time>
      </trkpt>
      <trkpt lat="43.75757" lon="6.97432">
        <ele>946.43963623047</ele>
        <time>2012-07-04T18:20:32Z</time>
      </trkpt>
      <trkpt lat="43.75742" lon="6.97429">
        <ele>946.54437255859</ele>
        <time>2012-07-04T18:20:40Z</time>
      </trkpt>
      <trkpt lat="43.75732" lon="6.97426">
        <ele>946.64733886719</ele>
        <time>2012-07-04T18:20:46Z</time>
      </trkpt>
      <trkpt lat="43.75721" lon="6.97414">
        <ele>947.03344726562</ele>
        <time>2012-07-04T18:20:53Z</time>
      </trkpt>
      <trkpt lat="43.75709" lon="6.974">
        <ele>947.10382080078</ele>
        <time>2012-07-04T18:21:01Z</time>
      </trkpt>
      <trkpt lat="43.75697" lon="6.97385">
        <ele>947.21197509766</ele>
        <time>2012-07-04T18:21:08Z</time>
      </trkpt>
      <trkpt lat="43.75678" lon="6.97366">
        <ele>947.82916259766</ele>
        <time>2012-07-04T18:21:17Z</time>
      </trkpt>
      <trkpt lat="43.75657" lon="6.97342">
        <ele>948.24798583984</ele>
        <time>2012-07-04T18:21:24Z</time>
      </trkpt>
      <trkpt lat="43.75636" lon="6.9732">
        <ele>949.09350585938</ele>
        <time>2012-07-04T18:21:30Z</time>
      </trkpt>
      <trkpt lat="43.75618" lon="6.973">
        <ele>949.94219970703</ele>
        <time>2012-07-04T18:21:36Z</time>
      </trkpt>
      <trkpt lat="43.75615" lon="6.97297">
        <ele>950.16534423828</ele>
        <time>2012-07-04T18:21:37Z</time>
      </trkpt>
      <trkpt lat="43.75602" lon="6.97277">
        <ele>951</ele>
        <time>2012-07-04T18:21:42Z</time>
      </trkpt>
      <trkpt lat="43.75588" lon="6.97249">
        <ele>951.04174804688</ele>
        <time>2012-07-04T18:21:50Z</time>
      </trkpt>
      <trkpt lat="43.75576" lon="6.97222">
        <ele>952.25952148438</ele>
        <time>2012-07-04T18:21:57Z</time>
      </trkpt>
      <trkpt lat="43.75565" lon="6.97198">
        <ele>952.96179199219</ele>
        <time>2012-07-04T18:22:04Z</time>
      </trkpt>
      <trkpt lat="43.75553" lon="6.97193">
        <ele>953.12213134766</ele>
        <time>2012-07-04T18:22:08Z</time>
      </trkpt>
      <trkpt lat="43.75534" lon="6.97195">
        <ele>953.78765869141</ele>
        <time>2012-07-04T18:22:14Z</time>
      </trkpt>
      <trkpt lat="43.75504" lon="6.97196">
        <ele>954</ele>
        <time>2012-07-04T18:22:23Z</time>
      </trkpt>
      <trkpt lat="43.75486" lon="6.97202">
        <ele>954.35852050781</ele>
        <time>2012-07-04T18:22:29Z</time>
      </trkpt>
      <trkpt lat="43.75468" lon="6.97202">
        <ele>954.78637695312</ele>
        <time>2012-07-04T18:22:36Z</time>
      </trkpt>
      <trkpt lat="43.75449" lon="6.97206">
        <ele>954.93322753906</ele>
        <time>2012-07-04T18:22:42Z</time>
      </trkpt>
      <trkpt lat="43.75427" lon="6.97213">
        <ele>955.20593261719</ele>
        <time>2012-07-04T18:22:49Z</time>
      </trkpt>
      <trkpt lat="43.75406" lon="6.97219">
        <ele>955.44506835938</ele>
        <time>2012-07-04T18:22:55Z</time>
      </trkpt>
      <trkpt lat="43.75386" lon="6.97226">
        <ele>955.85888671875</ele>
        <time>2012-07-04T18:23:01Z</time>
      </trkpt>
      <trkpt lat="43.75366" lon="6.97237">
        <ele>955.46234130859</ele>
        <time>2012-07-04T18:23:06Z</time>
      </trkpt>
      <trkpt lat="43.75352" lon="6.97246">
        <ele>955.45208740234</ele>
        <time>2012-07-04T18:23:10Z</time>
      </trkpt>
      <trkpt lat="43.75335" lon="6.97254">
        <ele>955.95623779297</ele>
        <time>2012-07-04T18:23:15Z</time>
      </trkpt>
      <trkpt lat="43.75312" lon="6.97261">
        <ele>956.44177246094</ele>
        <time>2012-07-04T18:23:22Z</time>
      </trkpt>
      <trkpt lat="43.75296" lon="6.97261">
        <ele>956.61260986328</ele>
        <time>2012-07-04T18:23:27Z</time>
      </trkpt>
      <trkpt lat="43.7527" lon="6.97261">
        <ele>956.91027832031</ele>
        <time>2012-07-04T18:23:34Z</time>
      </trkpt>
      <trkpt lat="43.75249" lon="6.97262">
        <ele>957.59606933594</ele>
        <time>2012-07-04T18:23:40Z</time>
      </trkpt>
      <trkpt lat="43.75228" lon="6.97265">
        <ele>957.89068603516</ele>
        <time>2012-07-04T18:23:46Z</time>
      </trkpt>
      <trkpt lat="43.75202" lon="6.97268">
        <ele>958</ele>
        <time>2012-07-04T18:23:53Z</time>
      </trkpt>
      <trkpt lat="43.75174" lon="6.9727">
        <ele>958.21893310547</ele>
        <time>2012-07-04T18:24:01Z</time>
      </trkpt>
      <trkpt lat="43.75145" lon="6.97272">
        <ele>958.82531738281</ele>
        <time>2012-07-04T18:24:09Z</time>
      </trkpt>
      <trkpt lat="43.7513" lon="6.97275">
        <ele>959.03283691406</ele>
        <time>2012-07-04T18:24:14Z</time>
      </trkpt>
      <trkpt lat="43.75104" lon="6.97277">
        <ele>959.26489257812</ele>
        <time>2012-07-04T18:24:22Z</time>
      </trkpt>
      <trkpt lat="43.75089" lon="6.97271">
        <ele>959.85638427734</ele>
        <time>2012-07-04T18:24:28Z</time>
      </trkpt>
      <trkpt lat="43.75066" lon="6.97272">
        <ele>960.27398681641</ele>
        <time>2012-07-04T18:24:35Z</time>
      </trkpt>
      <trkpt lat="43.7505" lon="6.97272">
        <ele>961.29443359375</ele>
        <time>2012-07-04T18:24:41Z</time>
      </trkpt>
      <trkpt lat="43.75033" lon="6.97272">
        <ele>963.65991210938</ele>
        <time>2012-07-04T18:24:47Z</time>
      </trkpt>
      <trkpt lat="43.75016" lon="6.97274">
        <ele>965.85052490234</ele>
        <time>2012-07-04T18:24:53Z</time>
      </trkpt>
      <trkpt lat="43.75" lon="6.97275">
        <ele>968.04052734375</ele>
        <time>2012-07-04T18:24:59Z</time>
      </trkpt>
      <trkpt lat="43.74981" lon="6.97277">
        <ele>969.46746826172</ele>
        <time>2012-07-04T18:25:06Z</time>
      </trkpt>
      <trkpt lat="43.74953" lon="6.97278">
        <ele>972.01226806641</ele>
        <time>2012-07-04T18:25:14Z</time>
      </trkpt>
      <trkpt lat="43.74935" lon="6.97278">
        <ele>974.04132080078</ele>
        <time>2012-07-04T18:25:21Z</time>
      </trkpt>
      <trkpt lat="43.74918" lon="6.97279">
        <ele>975.7802734375</ele>
        <time>2012-07-04T18:25:28Z</time>
      </trkpt>
      <trkpt lat="43.74905" lon="6.97279">
        <ele>976.78723144531</ele>
        <time>2012-07-04T18:25:33Z</time>
      </trkpt>
      <trkpt lat="43.74891" lon="6.9728">
        <ele>977.76226806641</ele>
        <time>2012-07-04T18:25:38Z</time>
      </trkpt>
      <trkpt lat="43.74876" lon="6.97278">
        <ele>978.93127441406</ele>
        <time>2012-07-04T18:25:44Z</time>
      </trkpt>
      <trkpt lat="43.74858" lon="6.97285">
        <ele>980.4658203125</ele>
        <time>2012-07-04T18:25:51Z</time>
      </trkpt>
      <trkpt lat="43.74847" lon="6.97294">
        <ele>983.09655761719</ele>
        <time>2012-07-04T18:25:56Z</time>
      </trkpt>
      <trkpt lat="43.74829" lon="6.97303">
        <ele>986.78240966797</ele>
        <time>2012-07-04T18:26:03Z</time>
      </trkpt>
      <trkpt lat="43.74816" lon="6.97318">
        <ele>986.69458007812</ele>
        <time>2012-07-04T18:26:10Z</time>
      </trkpt>
      <trkpt lat="43.74808" lon="6.97326">
        <ele>986.72888183594</ele>
        <time>2012-07-04T18:26:15Z</time>
      </trkpt>
      <trkpt lat="43.748" lon="6.97338">
        <ele>987.05676269531</ele>
        <time>2012-07-04T18:26:21Z</time>
      </trkpt>
      <trkpt lat="43.74791" lon="6.97351">
        <ele>988.25158691406</ele>
        <time>2012-07-04T18:26:28Z</time>
      </trkpt>
      <trkpt lat="43.7478" lon="6.97363">
        <ele>990.18890380859</ele>
        <time>2012-07-04T18:26:35Z</time>
      </trkpt>
      <trkpt lat="43.74766" lon="6.97375">
        <ele>992.25317382812</ele>
        <time>2012-07-04T18:26:43Z</time>
      </trkpt>
      <trkpt lat="43.74756" lon="6.97389">
        <ele>993.54254150391</ele>
        <time>2012-07-04T18:26:50Z</time>
      </trkpt>
      <trkpt lat="43.74745" lon="6.97399">
        <ele>994.91735839844</ele>
        <time>2012-07-04T18:26:57Z</time>
      </trkpt>
      <trkpt lat="43.74734" lon="6.97408">
        <ele>996.69622802734</ele>
        <time>2012-07-04T18:27:04Z</time>
      </trkpt>
      <trkpt lat="43.74723" lon="6.97419">
        <ele>998.60479736328</ele>
        <time>2012-07-04T18:27:13Z</time>
      </trkpt>
      <trkpt lat="43.74714" lon="6.97427">
        <ele>1000.6621704102</ele>
        <time>2012-07-04T18:27:20Z</time>
      </trkpt>
      <trkpt lat="43.74703" lon="6.97433">
        <ele>1003.2911376953</ele>
        <time>2012-07-04T18:27:28Z</time>
      </trkpt>
      <trkpt lat="43.74692" lon="6.97437">
        <ele>1005.8071289062</ele>
        <time>2012-07-04T18:27:35Z</time>
      </trkpt>
      <trkpt lat="43.74682" lon="6.97441">
        <ele>1007.9769287109</ele>
        <time>2012-07-04T18:27:41Z</time>
      </trkpt>
      <trkpt lat="43.74673" lon="6.97447">
        <ele>1009.6714477539</ele>
        <time>2012-07-04T18:27:47Z</time>
      </trkpt>
      <trkpt lat="43.74665" lon="6.97456">
        <ele>1009.9570922852</ele>
        <time>2012-07-04T18:27:53Z</time>
      </trkpt>
      <trkpt lat="43.74658" lon="6.97465">
        <ele>1011.1585083008</ele>
        <time>2012-07-04T18:27:59Z</time>
      </trkpt>
      <trkpt lat="43.74658" lon="6.97468">
        <ele>1010.4545898438</ele>
        <time>2012-07-04T18:28:02Z</time>
      </trkpt>
      <trkpt lat="43.74659" lon="6.97469">
        <ele>1009.9815063477</ele>
        <time>2012-07-04T18:28:03Z</time>
      </trkpt>
      <trkpt lat="43.74657" lon="6.9747">
        <ele>1010.4495239258</ele>
        <time>2012-07-04T18:28:12Z</time>
      </trkpt>
      <trkpt lat="43.74659" lon="6.9747">
        <ele>1009.7457275391</ele>
        <time>2012-07-04T18:28:19Z</time>
      </trkpt>
      <trkpt lat="43.74655" lon="6.97467">
        <ele>1012.1786499023</ele>
        <time>2012-07-04T18:28:26Z</time>
      </trkpt>
      <trkpt lat="43.74652" lon="6.97468">
        <ele>1013.1168823242</ele>
        <time>2012-07-04T18:28:31Z</time>
      </trkpt>
      <trkpt lat="43.74647" lon="6.97475">
        <ele>1013.7828979492</ele>
        <time>2012-07-04T18:28:38Z</time>
      </trkpt>
      <trkpt lat="43.74646" lon="6.97478">
        <ele>1013.9064941406</ele>
        <time>2012-07-04T18:28:40Z</time>
      </trkpt>
      <trkpt lat="43.74641" lon="6.97481">
        <ele>1014.9261474609</ele>
        <time>2012-07-04T18:28:44Z</time>
      </trkpt>
      <trkpt lat="43.7464" lon="6.97484">
        <ele>1014.8746337891</ele>
        <time>2012-07-04T18:28:50Z</time>
      </trkpt>
      <trkpt lat="43.74639" lon="6.97488">
        <ele>1014.3802490234</ele>
        <time>2012-07-04T18:28:56Z</time>
      </trkpt>
      <trkpt lat="43.74632" lon="6.97492">
        <ele>1016.5278320312</ele>
        <time>2012-07-04T18:29:03Z</time>
      </trkpt>
      <trkpt lat="43.74623" lon="6.97503">
        <ele>1017.7016601562</ele>
        <time>2012-07-04T18:29:10Z</time>
      </trkpt>
      <trkpt lat="43.74615" lon="6.97518">
        <ele>1018.3299560547</ele>
        <time>2012-07-04T18:29:18Z</time>
      </trkpt>
      <trkpt lat="43.74609" lon="6.9753">
        <ele>1018.0498657227</ele>
        <time>2012-07-04T18:29:25Z</time>
      </trkpt>
      <trkpt lat="43.74603" lon="6.97552">
        <ele>1015.2029418945</ele>
        <time>2012-07-04T18:29:35Z</time>
      </trkpt>
      <trkpt lat="43.74597" lon="6.97566">
        <ele>1014.6742553711</ele>
        <time>2012-07-04T18:29:42Z</time>
      </trkpt>
      <trkpt lat="43.74587" lon="6.97579">
        <ele>1016.6858520508</ele>
        <time>2012-07-04T18:29:50Z</time>
      </trkpt>
      <trkpt lat="43.7458" lon="6.97592">
        <ele>1018.6159667969</ele>
        <time>2012-07-04T18:29:57Z</time>
      </trkpt>
      <trkpt lat="43.7457" lon="6.97602">
        <ele>1020.6774902344</ele>
        <time>2012-07-04T18:30:04Z</time>
      </trkpt>
      <trkpt lat="43.74563" lon="6.97609">
        <ele>1022.1382446289</ele>
        <time>2012-07-04T18:30:10Z</time>
      </trkpt>
      <trkpt lat="43.74554" lon="6.97617">
        <ele>1023.4851074219</ele>
        <time>2012-07-04T18:30:17Z</time>
      </trkpt>
      <trkpt lat="43.74547" lon="6.97624">
        <ele>1025.5897216797</ele>
        <time>2012-07-04T18:30:24Z</time>
      </trkpt>
      <trkpt lat="43.74547" lon="6.97626">
        <ele>1025.4935302734</ele>
        <time>2012-07-04T18:30:25Z</time>
      </trkpt>
      <trkpt lat="43.74546" lon="6.97627">
        <ele>1025.6617431641</ele>
        <time>2012-07-04T18:30:28Z</time>
      </trkpt>
      <trkpt lat="43.74545" lon="6.97627">
        <ele>1025.8901367188</ele>
        <time>2012-07-04T18:30:29Z</time>
      </trkpt>
      <trkpt lat="43.74543" lon="6.97631">
        <ele>1026.3347167969</ele>
        <time>2012-07-04T18:30:33Z</time>
      </trkpt>
      <trkpt lat="43.74537" lon="6.97636">
        <ele>1028.3740234375</ele>
        <time>2012-07-04T18:30:39Z</time>
      </trkpt>
      <trkpt lat="43.74533" lon="6.97647">
        <ele>1028.3162841797</ele>
        <time>2012-07-04T18:30:48Z</time>
      </trkpt>
      <trkpt lat="43.74532" lon="6.97652">
        <ele>1027.833984375</ele>
        <time>2012-07-04T18:30:52Z</time>
      </trkpt>
      <trkpt lat="43.74533" lon="6.97661">
        <ele>1026.0673828125</ele>
        <time>2012-07-04T18:30:57Z</time>
      </trkpt>
      <trkpt lat="43.74532" lon="6.97673">
        <ele>1024.556640625</ele>
        <time>2012-07-04T18:31:05Z</time>
      </trkpt>
      <trkpt lat="43.74531" lon="6.97686">
        <ele>1023.6221923828</ele>
        <time>2012-07-04T18:31:13Z</time>
      </trkpt>
      <trkpt lat="43.7453" lon="6.97699">
        <ele>1022.4372558594</ele>
        <time>2012-07-04T18:31:22Z</time>
      </trkpt>
      <trkpt lat="43.74531" lon="6.97706">
        <ele>1021.2847900391</ele>
        <time>2012-07-04T18:31:29Z</time>
      </trkpt>
      <trkpt lat="43.7453" lon="6.97724">
        <ele>1019.2416992188</ele>
        <time>2012-07-04T18:31:37Z</time>
      </trkpt>
      <trkpt lat="43.74529" lon="6.97736">
        <ele>1019.791015625</ele>
        <time>2012-07-04T18:31:43Z</time>
      </trkpt>
      <trkpt lat="43.74524" lon="6.9775">
        <ele>1021.1231689453</ele>
        <time>2012-07-04T18:31:51Z</time>
      </trkpt>
      <trkpt lat="43.74521" lon="6.97765">
        <ele>1021.98828125</ele>
        <time>2012-07-04T18:31:58Z</time>
      </trkpt>
      <trkpt lat="43.74513" lon="6.9778">
        <ele>1024.513671875</ele>
        <time>2012-07-04T18:32:07Z</time>
      </trkpt>
      <trkpt lat="43.74505" lon="6.97794">
        <ele>1028.3297119141</ele>
        <time>2012-07-04T18:32:16Z</time>
      </trkpt>
      <trkpt lat="43.74498" lon="6.97804">
        <ele>1031.4665527344</ele>
        <time>2012-07-04T18:32:23Z</time>
      </trkpt>
      <trkpt lat="43.74493" lon="6.97812">
        <ele>1033.3861083984</ele>
        <time>2012-07-04T18:32:29Z</time>
      </trkpt>
      <trkpt lat="43.74489" lon="6.97815">
        <ele>1034.7841796875</ele>
        <time>2012-07-04T18:32:34Z</time>
      </trkpt>
      <trkpt lat="43.74481" lon="6.97818">
        <ele>1037.0247802734</ele>
        <time>2012-07-04T18:32:40Z</time>
      </trkpt>
      <trkpt lat="43.74479" lon="6.97816">
        <ele>1037.6588134766</ele>
        <time>2012-07-04T18:32:45Z</time>
      </trkpt>
      <trkpt lat="43.74478" lon="6.97807">
        <ele>1037.3530273438</ele>
        <time>2012-07-04T18:32:52Z</time>
      </trkpt>
      <trkpt lat="43.7448" lon="6.97796">
        <ele>1036.3466796875</ele>
        <time>2012-07-04T18:33:00Z</time>
      </trkpt>
      <trkpt lat="43.74477" lon="6.97786">
        <ele>1036.8051757812</ele>
        <time>2012-07-04T18:33:07Z</time>
      </trkpt>
      <trkpt lat="43.74476" lon="6.97785">
        <ele>1036.8835449219</ele>
        <time>2012-07-04T18:33:08Z</time>
      </trkpt>
      <trkpt lat="43.74476" lon="6.97781">
        <ele>1036.8188476562</ele>
        <time>2012-07-04T18:33:11Z</time>
      </trkpt>
      <trkpt lat="43.74476" lon="6.97777">
        <ele>1036.7210693359</ele>
        <time>2012-07-04T18:33:14Z</time>
      </trkpt>
      <trkpt lat="43.74476" lon="6.97765">
        <ele>1037.5198974609</ele>
        <time>2012-07-04T18:33:22Z</time>
      </trkpt>
      <trkpt lat="43.74475" lon="6.97759">
        <ele>1038.1223144531</ele>
        <time>2012-07-04T18:33:28Z</time>
      </trkpt>
      <trkpt lat="43.74475" lon="6.97757">
        <ele>1038.3504638672</ele>
        <time>2012-07-04T18:33:29Z</time>
      </trkpt>
      <trkpt lat="43.74472" lon="6.97747">
        <ele>1040.0788574219</ele>
        <time>2012-07-04T18:33:36Z</time>
      </trkpt>
      <trkpt lat="43.74469" lon="6.97733">
        <ele>1041.6762695312</ele>
        <time>2012-07-04T18:33:46Z</time>
      </trkpt>
      <trkpt lat="43.74467" lon="6.97722">
        <ele>1042.7330322266</ele>
        <time>2012-07-04T18:33:53Z</time>
      </trkpt>
      <trkpt lat="43.74466" lon="6.9772">
        <ele>1044.1831054688</ele>
        <time>2012-07-04T18:33:55Z</time>
      </trkpt>
      <trkpt lat="43.74462" lon="6.9772">
        <ele>1046.2176513672</ele>
        <time>2012-07-04T18:33:58Z</time>
      </trkpt>
      <trkpt lat="43.74461" lon="6.97721">
        <ele>1046.5543212891</ele>
        <time>2012-07-04T18:33:59Z</time>
      </trkpt>
      <trkpt lat="43.74458" lon="6.97724">
        <ele>1048.30078125</ele>
        <time>2012-07-04T18:34:05Z</time>
      </trkpt>
      <trkpt lat="43.74452" lon="6.97732">
        <ele>1050.5406494141</ele>
        <time>2012-07-04T18:34:12Z</time>
      </trkpt>
      <trkpt lat="43.74449" lon="6.9774">
        <ele>1051.1787109375</ele>
        <time>2012-07-04T18:34:17Z</time>
      </trkpt>
      <trkpt lat="43.74448" lon="6.97743">
        <ele>1051.3383789062</ele>
        <time>2012-07-04T18:34:19Z</time>
      </trkpt>
      <trkpt lat="43.74445" lon="6.9775">
        <ele>1051.7528076172</ele>
        <time>2012-07-04T18:34:24Z</time>
      </trkpt>
      <trkpt lat="43.74438" lon="6.97763">
        <ele>1053.0872802734</ele>
        <time>2012-07-04T18:34:32Z</time>
      </trkpt>
      <trkpt lat="43.7443" lon="6.97774">
        <ele>1055.4401855469</ele>
        <time>2012-07-04T18:34:40Z</time>
      </trkpt>
      <trkpt lat="43.74424" lon="6.97783">
        <ele>1057.0378417969</ele>
        <time>2012-07-04T18:34:48Z</time>
      </trkpt>
      <trkpt lat="43.74419" lon="6.97798">
        <ele>1057.7866210938</ele>
        <time>2012-07-04T18:34:56Z</time>
      </trkpt>
      <trkpt lat="43.74414" lon="6.9781">
        <ele>1058.2950439453</ele>
        <time>2012-07-04T18:35:04Z</time>
      </trkpt>
      <trkpt lat="43.74412" lon="6.97819">
        <ele>1058.4676513672</ele>
        <time>2012-07-04T18:35:10Z</time>
      </trkpt>
      <trkpt lat="43.74411" lon="6.97823">
        <ele>1058.5583496094</ele>
        <time>2012-07-04T18:35:12Z</time>
      </trkpt>
      <trkpt lat="43.74407" lon="6.9783">
        <ele>1058.9354248047</ele>
        <time>2012-07-04T18:35:17Z</time>
      </trkpt>
      <trkpt lat="43.74405" lon="6.97831">
        <ele>1059.1489257812</ele>
        <time>2012-07-04T18:35:19Z</time>
      </trkpt>
      <trkpt lat="43.74405" lon="6.97835">
        <ele>1059.0549316406</ele>
        <time>2012-07-04T18:35:23Z</time>
      </trkpt>
      <trkpt lat="43.74401" lon="6.97839">
        <ele>1059.3913574219</ele>
        <time>2012-07-04T18:35:26Z</time>
      </trkpt>
      <trkpt lat="43.74401" lon="6.97844">
        <ele>1059.1284179688</ele>
        <time>2012-07-04T18:35:28Z</time>
      </trkpt>
      <trkpt lat="43.74398" lon="6.97855">
        <ele>1059.0642089844</ele>
        <time>2012-07-04T18:35:33Z</time>
      </trkpt>
      <trkpt lat="43.7439" lon="6.97865">
        <ele>1059.7646484375</ele>
        <time>2012-07-04T18:35:39Z</time>
      </trkpt>
      <trkpt lat="43.74388" lon="6.97877">
        <ele>1060.2247314453</ele>
        <time>2012-07-04T18:35:45Z</time>
      </trkpt>
      <trkpt lat="43.74384" lon="6.97882">
        <ele>1060.86328125</ele>
        <time>2012-07-04T18:35:49Z</time>
      </trkpt>
      <trkpt lat="43.74382" lon="6.97884">
        <ele>1061.2103271484</ele>
        <time>2012-07-04T18:35:50Z</time>
      </trkpt>
      <trkpt lat="43.74373" lon="6.97898">
        <ele>1062.6921386719</ele>
        <time>2012-07-04T18:35:58Z</time>
      </trkpt>
      <trkpt lat="43.74367" lon="6.97915">
        <ele>1063.177734375</ele>
        <time>2012-07-04T18:36:06Z</time>
      </trkpt>
      <trkpt lat="43.74364" lon="6.97921">
        <ele>1063.2153320312</ele>
        <time>2012-07-04T18:36:10Z</time>
      </trkpt>
      <trkpt lat="43.7436" lon="6.97922">
        <ele>1063.7618408203</ele>
        <time>2012-07-04T18:36:13Z</time>
      </trkpt>
      <trkpt lat="43.74359" lon="6.97922">
        <ele>1063.8544921875</ele>
        <time>2012-07-04T18:36:14Z</time>
      </trkpt>
      <trkpt lat="43.74352" lon="6.97918">
        <ele>1064.8295898438</ele>
        <time>2012-07-04T18:36:19Z</time>
      </trkpt>
      <trkpt lat="43.74344" lon="6.97915">
        <ele>1065.9572753906</ele>
        <time>2012-07-04T18:36:24Z</time>
      </trkpt>
      <trkpt lat="43.74332" lon="6.97908">
        <ele>1067.5092773438</ele>
        <time>2012-07-04T18:36:30Z</time>
      </trkpt>
      <trkpt lat="43.74324" lon="6.97912">
        <ele>1066.6682128906</ele>
        <time>2012-07-04T18:36:36Z</time>
      </trkpt>
      <trkpt lat="43.74324" lon="6.97912">
        <ele>1066.6578369141</ele>
        <time>2012-07-04T18:36:37Z</time>
      </trkpt>
      <trkpt lat="43.74322" lon="6.97907">
        <ele>1066.8707275391</ele>
        <time>2012-07-04T18:36:40Z</time>
      </trkpt>
      <trkpt lat="43.74318" lon="6.97901">
        <ele>1067.0286865234</ele>
        <time>2012-07-04T18:36:43Z</time>
      </trkpt>
      <trkpt lat="43.7431" lon="6.97882">
        <ele>1067.8629150391</ele>
        <time>2012-07-04T18:36:52Z</time>
      </trkpt>
      <trkpt lat="43.74305" lon="6.97871">
        <ele>1068.2860107422</ele>
        <time>2012-07-04T18:36:58Z</time>
      </trkpt>
      <trkpt lat="43.74299" lon="6.97857">
        <ele>1069.0550537109</ele>
        <time>2012-07-04T18:37:05Z</time>
      </trkpt>
      <trkpt lat="43.7429" lon="6.97842">
        <ele>1069.8275146484</ele>
        <time>2012-07-04T18:37:13Z</time>
      </trkpt>
      <trkpt lat="43.74288" lon="6.9784">
        <ele>1069.9099121094</ele>
        <time>2012-07-04T18:37:15Z</time>
      </trkpt>
      <trkpt lat="43.74282" lon="6.97838">
        <ele>1069.8411865234</ele>
        <time>2012-07-04T18:37:18Z</time>
      </trkpt>
      <trkpt lat="43.74271" lon="6.97836">
        <ele>1069.57421875</ele>
        <time>2012-07-04T18:37:25Z</time>
      </trkpt>
      <trkpt lat="43.74268" lon="6.97834">
        <ele>1069.5524902344</ele>
        <time>2012-07-04T18:37:27Z</time>
      </trkpt>
      <trkpt lat="43.74262" lon="6.97835">
        <ele>1069.3150634766</ele>
        <time>2012-07-04T18:37:31Z</time>
      </trkpt>
      <trkpt lat="43.7426" lon="6.97834">
        <ele>1069.2803955078</ele>
        <time>2012-07-04T18:37:32Z</time>
      </trkpt>
      <trkpt lat="43.74251" lon="6.97828">
        <ele>1069.2296142578</ele>
        <time>2012-07-04T18:37:39Z</time>
      </trkpt>
      <trkpt lat="43.74248" lon="6.97826">
        <ele>1069.0899658203</ele>
        <time>2012-07-04T18:37:44Z</time>
      </trkpt>
      <trkpt lat="43.74249" lon="6.97823">
        <ele>1069.2904052734</ele>
        <time>2012-07-04T18:38:39Z</time>
      </trkpt>
      <trkpt lat="43.74251" lon="6.97825">
        <ele>1069.3493652344</ele>
        <time>2012-07-04T18:38:48Z</time>
      </trkpt>
      <trkpt lat="43.74249" lon="6.97823">
        <ele>1069.2791748047</ele>
        <time>2012-07-04T18:39:01Z</time>
      </trkpt>
      <trkpt lat="43.74252" lon="6.97825">
        <ele>1069.3961181641</ele>
        <time>2012-07-04T18:40:09Z</time>
      </trkpt>
      <trkpt lat="43.74247" lon="6.97825">
        <ele>1069.0583496094</ele>
        <time>2012-07-04T18:41:29Z</time>
      </trkpt>
      <trkpt lat="43.74244" lon="6.97818">
        <ele>1069.0487060547</ele>
        <time>2012-07-04T18:41:36Z</time>
      </trkpt>
      <trkpt lat="43.74236" lon="6.97803">
        <ele>1069.1788330078</ele>
        <time>2012-07-04T18:41:43Z</time>
      </trkpt>
      <trkpt lat="43.74225" lon="6.97793">
        <ele>1069.0998535156</ele>
        <time>2012-07-04T18:41:50Z</time>
      </trkpt>
      <trkpt lat="43.74215" lon="6.97783">
        <ele>1069.1341552734</ele>
        <time>2012-07-04T18:41:56Z</time>
      </trkpt>
      <trkpt lat="43.74202" lon="6.97772">
        <ele>1068.8569335938</ele>
        <time>2012-07-04T18:42:02Z</time>
      </trkpt>
      <trkpt lat="43.742" lon="6.97772">
        <ele>1068.6634521484</ele>
        <time>2012-07-04T18:42:03Z</time>
      </trkpt>
      <trkpt lat="43.74197" lon="6.97775">
        <ele>1068.2924804688</ele>
        <time>2012-07-04T18:42:05Z</time>
      </trkpt>
      <trkpt lat="43.74193" lon="6.97782">
        <ele>1067.5921630859</ele>
        <time>2012-07-04T18:42:08Z</time>
      </trkpt>
      <trkpt lat="43.74188" lon="6.97789">
        <ele>1066.4866943359</ele>
        <time>2012-07-04T18:42:11Z</time>
      </trkpt>
      <trkpt lat="43.74175" lon="6.97798">
        <ele>1064.4370117188</ele>
        <time>2012-07-04T18:42:17Z</time>
      </trkpt>
      <trkpt lat="43.74161" lon="6.97792">
        <ele>1063.3212890625</ele>
        <time>2012-07-04T18:42:24Z</time>
      </trkpt>
      <trkpt lat="43.74142" lon="6.97776">
        <ele>1062.3708496094</ele>
        <time>2012-07-04T18:42:33Z</time>
      </trkpt>
      <trkpt lat="43.74131" lon="6.97754">
        <ele>1062.2185058594</ele>
        <time>2012-07-04T18:42:40Z</time>
      </trkpt>
      <trkpt lat="43.74125" lon="6.97733">
        <ele>1062.9108886719</ele>
        <time>2012-07-04T18:42:45Z</time>
      </trkpt>
      <trkpt lat="43.74117" lon="6.97712">
        <ele>1063.2694091797</ele>
        <time>2012-07-04T18:42:51Z</time>
      </trkpt>
      <trkpt lat="43.74099" lon="6.97696">
        <ele>1062.1484375</ele>
        <time>2012-07-04T18:42:57Z</time>
      </trkpt>
      <trkpt lat="43.74085" lon="6.97687">
        <ele>1060.4851074219</ele>
        <time>2012-07-04T18:43:03Z</time>
      </trkpt>
      <trkpt lat="43.7407" lon="6.97665">
        <ele>1058.2984619141</ele>
        <time>2012-07-04T18:43:10Z</time>
      </trkpt>
      <trkpt lat="43.74056" lon="6.97643">
        <ele>1056.8634033203</ele>
        <time>2012-07-04T18:43:15Z</time>
      </trkpt>
      <trkpt lat="43.7404" lon="6.9762">
        <ele>1053.5581054688</ele>
        <time>2012-07-04T18:43:21Z</time>
      </trkpt>
      <trkpt lat="43.74024" lon="6.97598">
        <ele>1050.2271728516</ele>
        <time>2012-07-04T18:43:27Z</time>
      </trkpt>
      <trkpt lat="43.74012" lon="6.97572">
        <ele>1050.2838134766</ele>
        <time>2012-07-04T18:43:33Z</time>
      </trkpt>
      <trkpt lat="43.74001" lon="6.9754">
        <ele>1050.6013183594</ele>
        <time>2012-07-04T18:43:40Z</time>
      </trkpt>
      <trkpt lat="43.73991" lon="6.9751">
        <ele>1048.0384521484</ele>
        <time>2012-07-04T18:43:47Z</time>
      </trkpt>
      <trkpt lat="43.73985" lon="6.97485">
        <ele>1045.8074951172</ele>
        <time>2012-07-04T18:43:52Z</time>
      </trkpt>
      <trkpt lat="43.7398" lon="6.97465">
        <ele>1043.7686767578</ele>
        <time>2012-07-04T18:43:56Z</time>
      </trkpt>
      <trkpt lat="43.73973" lon="6.97442">
        <ele>1040.6055908203</ele>
        <time>2012-07-04T18:44:01Z</time>
      </trkpt>
      <trkpt lat="43.73962" lon="6.9742">
        <ele>1042.1356201172</ele>
        <time>2012-07-04T18:44:06Z</time>
      </trkpt>
      <trkpt lat="43.73949" lon="6.97392">
        <ele>1044.4002685547</ele>
        <time>2012-07-04T18:44:11Z</time>
      </trkpt>
      <trkpt lat="43.73947" lon="6.97386">
        <ele>1044.8277587891</ele>
        <time>2012-07-04T18:44:12Z</time>
      </trkpt>
      <trkpt lat="43.73941" lon="6.97369">
        <ele>1046.6390380859</ele>
        <time>2012-07-04T18:44:15Z</time>
      </trkpt>
      <trkpt lat="43.73939" lon="6.97364">
        <ele>1047.1745605469</ele>
        <time>2012-07-04T18:44:16Z</time>
      </trkpt>
      <trkpt lat="43.73931" lon="6.97358">
        <ele>1047.60546875</ele>
        <time>2012-07-04T18:44:19Z</time>
      </trkpt>
      <trkpt lat="43.73922" lon="6.97359">
        <ele>1046.8260498047</ele>
        <time>2012-07-04T18:44:21Z</time>
      </trkpt>
      <trkpt lat="43.7392" lon="6.97359">
        <ele>1046.5926513672</ele>
        <time>2012-07-04T18:44:22Z</time>
      </trkpt>
      <trkpt lat="43.73912" lon="6.97369">
        <ele>1044.822265625</ele>
        <time>2012-07-04T18:44:25Z</time>
      </trkpt>
      <trkpt lat="43.73911" lon="6.97375">
        <ele>1043.9846191406</ele>
        <time>2012-07-04T18:44:26Z</time>
      </trkpt>
      <trkpt lat="43.73899" lon="6.974">
        <ele>1041.2138671875</ele>
        <time>2012-07-04T18:44:31Z</time>
      </trkpt>
      <trkpt lat="43.73893" lon="6.97405">
        <ele>1040.8706054688</ele>
        <time>2012-07-04T18:44:34Z</time>
      </trkpt>
      <trkpt lat="43.73891" lon="6.97403">
        <ele>1041.0181884766</ele>
        <time>2012-07-04T18:44:35Z</time>
      </trkpt>
      <trkpt lat="43.73878" lon="6.9739">
        <ele>1041.9190673828</ele>
        <time>2012-07-04T18:44:39Z</time>
      </trkpt>
      <trkpt lat="43.7387" lon="6.97385">
        <ele>1042.4451904297</ele>
        <time>2012-07-04T18:44:41Z</time>
      </trkpt>
      <trkpt lat="43.73857" lon="6.97381">
        <ele>1042.5760498047</ele>
        <time>2012-07-04T18:44:45Z</time>
      </trkpt>
      <trkpt lat="43.73852" lon="6.97381">
        <ele>1042.3308105469</ele>
        <time>2012-07-04T18:44:49Z</time>
      </trkpt>
      <trkpt lat="43.73851" lon="6.9738">
        <ele>1042.3759765625</ele>
        <time>2012-07-04T18:44:50Z</time>
      </trkpt>
      <trkpt lat="43.73848" lon="6.97378">
        <ele>1042.4171142578</ele>
        <time>2012-07-04T18:44:54Z</time>
      </trkpt>
      <trkpt lat="43.73844" lon="6.97383">
        <ele>1041.5166015625</ele>
        <time>2012-07-04T18:44:59Z</time>
      </trkpt>
      <trkpt lat="43.73835" lon="6.97391">
        <ele>1039.8861083984</ele>
        <time>2012-07-04T18:45:04Z</time>
      </trkpt>
      <trkpt lat="43.73826" lon="6.97405">
        <ele>1037.4722900391</ele>
        <time>2012-07-04T18:45:08Z</time>
      </trkpt>
      <trkpt lat="43.73815" lon="6.97413">
        <ele>1035.9213867188</ele>
        <time>2012-07-04T18:45:13Z</time>
      </trkpt>
      <trkpt lat="43.738" lon="6.97424">
        <ele>1034.0164794922</ele>
        <time>2012-07-04T18:45:18Z</time>
      </trkpt>
      <trkpt lat="43.7378" lon="6.97435">
        <ele>1032.1573486328</ele>
        <time>2012-07-04T18:45:24Z</time>
      </trkpt>
      <trkpt lat="43.73755" lon="6.97442">
        <ele>1030.5042724609</ele>
        <time>2012-07-04T18:45:31Z</time>
      </trkpt>
      <trkpt lat="43.73734" lon="6.97447">
        <ele>1029.1069335938</ele>
        <time>2012-07-04T18:45:36Z</time>
      </trkpt>
      <trkpt lat="43.73722" lon="6.97452">
        <ele>1028.1662597656</ele>
        <time>2012-07-04T18:45:39Z</time>
      </trkpt>
      <trkpt lat="43.73714" lon="6.97453">
        <ele>1028.083984375</ele>
        <time>2012-07-04T18:45:41Z</time>
      </trkpt>
      <trkpt lat="43.73695" lon="6.97456">
        <ele>1027.7131347656</ele>
        <time>2012-07-04T18:45:47Z</time>
      </trkpt>
      <trkpt lat="43.7368" lon="6.9746">
        <ele>1027.1030273438</ele>
        <time>2012-07-04T18:45:51Z</time>
      </trkpt>
      <trkpt lat="43.73662" lon="6.97467">
        <ele>1026.3833007812</ele>
        <time>2012-07-04T18:45:57Z</time>
      </trkpt>
      <trkpt lat="43.73641" lon="6.97473">
        <ele>1025.9558105469</ele>
        <time>2012-07-04T18:46:03Z</time>
      </trkpt>
      <trkpt lat="43.73628" lon="6.97473">
        <ele>1025.5877685547</ele>
        <time>2012-07-04T18:46:08Z</time>
      </trkpt>
      <trkpt lat="43.73616" lon="6.97469">
        <ele>1025.4265136719</ele>
        <time>2012-07-04T18:46:13Z</time>
      </trkpt>
      <trkpt lat="43.73601" lon="6.97464">
        <ele>1025.2376708984</ele>
        <time>2012-07-04T18:46:19Z</time>
      </trkpt>
      <trkpt lat="43.73583" lon="6.97457">
        <ele>1025.1224365234</ele>
        <time>2012-07-04T18:46:25Z</time>
      </trkpt>
      <trkpt lat="43.73561" lon="6.97442">
        <ele>1026.0826416016</ele>
        <time>2012-07-04T18:46:31Z</time>
      </trkpt>
      <trkpt lat="43.73545" lon="6.97424">
        <ele>1027.1053466797</ele>
        <time>2012-07-04T18:46:36Z</time>
      </trkpt>
      <trkpt lat="43.73535" lon="6.97398">
        <ele>1028.3996582031</ele>
        <time>2012-07-04T18:46:41Z</time>
      </trkpt>
      <trkpt lat="43.73526" lon="6.97374">
        <ele>1029.5841064453</ele>
        <time>2012-07-04T18:46:45Z</time>
      </trkpt>
      <trkpt lat="43.73521" lon="6.97362">
        <ele>1030.2261962891</ele>
        <time>2012-07-04T18:46:47Z</time>
      </trkpt>
      <trkpt lat="43.73507" lon="6.97351">
        <ele>1031.1102294922</ele>
        <time>2012-07-04T18:46:50Z</time>
      </trkpt>
      <trkpt lat="43.73499" lon="6.97346">
        <ele>1031.5346679688</ele>
        <time>2012-07-04T18:46:52Z</time>
      </trkpt>
      <trkpt lat="43.73492" lon="6.97343">
        <ele>1031.6428222656</ele>
        <time>2012-07-04T18:46:54Z</time>
      </trkpt>
      <trkpt lat="43.73486" lon="6.97342">
        <ele>1031.6926269531</ele>
        <time>2012-07-04T18:46:56Z</time>
      </trkpt>
      <trkpt lat="43.73478" lon="6.97338">
        <ele>1031.8179931641</ele>
        <time>2012-07-04T18:46:59Z</time>
      </trkpt>
      <trkpt lat="43.73458" lon="6.9733">
        <ele>1032.6961669922</ele>
        <time>2012-07-04T18:47:06Z</time>
      </trkpt>
      <trkpt lat="43.73436" lon="6.9732">
        <ele>1033.4754638672</ele>
        <time>2012-07-04T18:47:13Z</time>
      </trkpt>
      <trkpt lat="43.73422" lon="6.97314">
        <ele>1033.6848144531</ele>
        <time>2012-07-04T18:47:18Z</time>
      </trkpt>
      <trkpt lat="43.73407" lon="6.97308">
        <ele>1033.9285888672</ele>
        <time>2012-07-04T18:47:24Z</time>
      </trkpt>
      <trkpt lat="43.73389" lon="6.973">
        <ele>1034.2135009766</ele>
        <time>2012-07-04T18:47:30Z</time>
      </trkpt>
      <trkpt lat="43.73369" lon="6.9729">
        <ele>1034.8776855469</ele>
        <time>2012-07-04T18:47:37Z</time>
      </trkpt>
      <trkpt lat="43.73351" lon="6.97283">
        <ele>1035.2873535156</ele>
        <time>2012-07-04T18:47:42Z</time>
      </trkpt>
      <trkpt lat="43.73326" lon="6.97271">
        <ele>1036.0656738281</ele>
        <time>2012-07-04T18:47:49Z</time>
      </trkpt>
      <trkpt lat="43.73308" lon="6.97263">
        <ele>1036.486328125</ele>
        <time>2012-07-04T18:47:55Z</time>
      </trkpt>
      <trkpt lat="43.73294" lon="6.97258">
        <ele>1036.6949462891</ele>
        <time>2012-07-04T18:48:01Z</time>
      </trkpt>
      <trkpt lat="43.73281" lon="6.97253">
        <ele>1036.8924560547</ele>
        <time>2012-07-04T18:48:07Z</time>
      </trkpt>
      <trkpt lat="43.73262" lon="6.97245">
        <ele>1037</ele>
        <time>2012-07-04T18:48:16Z</time>
      </trkpt>
      <trkpt lat="43.73238" lon="6.97234">
        <ele>1036.8115234375</ele>
        <time>2012-07-04T18:48:27Z</time>
      </trkpt>
      <trkpt lat="43.73221" lon="6.97227">
        <ele>1036.8399658203</ele>
        <time>2012-07-04T18:48:34Z</time>
      </trkpt>
      <trkpt lat="43.73208" lon="6.97221">
        <ele>1037.0263671875</ele>
        <time>2012-07-04T18:48:40Z</time>
      </trkpt>
      <trkpt lat="43.7319" lon="6.97213">
        <ele>1037</ele>
        <time>2012-07-04T18:48:48Z</time>
      </trkpt>
      <trkpt lat="43.73174" lon="6.97205">
        <ele>1037</ele>
        <time>2012-07-04T18:48:54Z</time>
      </trkpt>
      <trkpt lat="43.73166" lon="6.97203">
        <ele>1037</ele>
        <time>2012-07-04T18:48:58Z</time>
      </trkpt>
      <trkpt lat="43.73164" lon="6.97204">
        <ele>1037</ele>
        <time>2012-07-04T18:48:59Z</time>
      </trkpt>
      <trkpt lat="43.73162" lon="6.97211">
        <ele>1037</ele>
        <time>2012-07-04T18:49:03Z</time>
      </trkpt>
      <trkpt lat="43.73163" lon="6.97215">
        <ele>1037</ele>
        <time>2012-07-04T18:49:05Z</time>
      </trkpt>
      <trkpt lat="43.73161" lon="6.9722">
        <ele>1037</ele>
        <time>2012-07-04T18:49:07Z</time>
      </trkpt>
      <trkpt lat="43.73154" lon="6.97236">
        <ele>1036.5172119141</ele>
        <time>2012-07-04T18:49:15Z</time>
      </trkpt>
      <trkpt lat="43.73151" lon="6.97241">
        <ele>1036.3266601562</ele>
        <time>2012-07-04T18:49:20Z</time>
      </trkpt>
      <trkpt lat="43.73152" lon="6.97241">
        <ele>1036.3387451172</ele>
        <time>2012-07-04T18:49:27Z</time>
      </trkpt>
      <trkpt lat="43.73152" lon="6.9724">
        <ele>1036.3662109375</ele>
        <time>2012-07-04T18:51:29Z</time>
      </trkpt>
      <trkpt lat="43.73152" lon="6.97241">
        <ele>1036.3078613281</ele>
        <time>2012-07-04T18:52:47Z</time>
      </trkpt>
      <trkpt lat="43.73151" lon="6.97243">
        <ele>1036.2512207031</ele>
        <time>2012-07-04T18:52:48Z</time>
      </trkpt>
      <trkpt lat="43.73146" lon="6.97252">
        <ele>1036</ele>
        <time>2012-07-04T18:52:51Z</time>
      </trkpt>
      <trkpt lat="43.73143" lon="6.9727">
        <ele>1036</ele>
        <time>2012-07-04T18:52:55Z</time>
      </trkpt>
      <trkpt lat="43.73137" lon="6.97285">
        <ele>1035.7559814453</ele>
        <time>2012-07-04T18:52:59Z</time>
      </trkpt>
      <trkpt lat="43.73136" lon="6.97292">
        <ele>1035.5428466797</ele>
        <time>2012-07-04T18:53:01Z</time>
      </trkpt>
      <trkpt lat="43.73137" lon="6.97296">
        <ele>1035.4140625</ele>
        <time>2012-07-04T18:53:02Z</time>
      </trkpt>
      <trkpt lat="43.73137" lon="6.97309">
        <ele>1035.0758056641</ele>
        <time>2012-07-04T18:53:05Z</time>
      </trkpt>
      <trkpt lat="43.73137" lon="6.97314">
        <ele>1035.0603027344</ele>
        <time>2012-07-04T18:53:06Z</time>
      </trkpt>
      <trkpt lat="43.73136" lon="6.97323">
        <ele>1035.0355224609</ele>
        <time>2012-07-04T18:53:08Z</time>
      </trkpt>
      <trkpt lat="43.73133" lon="6.97331">
        <ele>1035.0153808594</ele>
        <time>2012-07-04T18:53:10Z</time>
      </trkpt>
      <trkpt lat="43.73127" lon="6.97354">
        <ele>1034.5810546875</ele>
        <time>2012-07-04T18:53:15Z</time>
      </trkpt>
      <trkpt lat="43.73125" lon="6.97375">
        <ele>1034.2640380859</ele>
        <time>2012-07-04T18:53:19Z</time>
      </trkpt>
      <trkpt lat="43.73122" lon="6.97399">
        <ele>1033.8464355469</ele>
        <time>2012-07-04T18:53:24Z</time>
      </trkpt>
      <trkpt lat="43.73116" lon="6.97419">
        <ele>1033.7562255859</ele>
        <time>2012-07-04T18:53:29Z</time>
      </trkpt>
      <trkpt lat="43.73101" lon="6.97433">
        <ele>1033.6440429688</ele>
        <time>2012-07-04T18:53:34Z</time>
      </trkpt>
      <trkpt lat="43.73084" lon="6.97457">
        <ele>1033.5480957031</ele>
        <time>2012-07-04T18:53:40Z</time>
      </trkpt>
      <trkpt lat="43.7307" lon="6.97477">
        <ele>1033.4047851562</ele>
        <time>2012-07-04T18:53:45Z</time>
      </trkpt>
      <trkpt lat="43.73067" lon="6.97481">
        <ele>1033.4560546875</ele>
        <time>2012-07-04T18:53:46Z</time>
      </trkpt>
      <trkpt lat="43.73063" lon="6.97489">
        <ele>1033.5533447266</ele>
        <time>2012-07-04T18:53:49Z</time>
      </trkpt>
      <trkpt lat="43.73064" lon="6.97493">
        <ele>1033.4862060547</ele>
        <time>2012-07-04T18:53:51Z</time>
      </trkpt>
      <trkpt lat="43.73065" lon="6.97496">
        <ele>1033.3834228516</ele>
        <time>2012-07-04T18:53:53Z</time>
      </trkpt>
      <trkpt lat="43.73066" lon="6.97496">
        <ele>1033.328125</ele>
        <time>2012-07-04T18:53:54Z</time>
      </trkpt>
      <trkpt lat="43.73071" lon="6.97499">
        <ele>1032.9407958984</ele>
        <time>2012-07-04T18:54:00Z</time>
      </trkpt>
      <trkpt lat="43.73071" lon="6.97499">
        <ele>1032.9128417969</ele>
        <time>2012-07-04T18:54:01Z</time>
      </trkpt>
      <trkpt lat="43.73072" lon="6.97501">
        <ele>1032.7647705078</ele>
        <time>2012-07-04T18:54:05Z</time>
      </trkpt>
      <trkpt lat="43.73074" lon="6.97509">
        <ele>1032.5874023438</ele>
        <time>2012-07-04T18:54:08Z</time>
      </trkpt>
      <trkpt lat="43.73073" lon="6.97512">
        <ele>1032.5910644531</ele>
        <time>2012-07-04T18:54:09Z</time>
      </trkpt>
      <trkpt lat="43.73064" lon="6.97534">
        <ele>1032.7082519531</ele>
        <time>2012-07-04T18:54:16Z</time>
      </trkpt>
      <trkpt lat="43.73056" lon="6.97552">
        <ele>1032.9829101562</ele>
        <time>2012-07-04T18:54:23Z</time>
      </trkpt>
      <trkpt lat="43.73051" lon="6.97564">
        <ele>1032.5740966797</ele>
        <time>2012-07-04T18:54:28Z</time>
      </trkpt>
      <trkpt lat="43.73047" lon="6.97574">
        <ele>1032.2287597656</ele>
        <time>2012-07-04T18:54:33Z</time>
      </trkpt>
      <trkpt lat="43.73047" lon="6.97576">
        <ele>1032.1911621094</ele>
        <time>2012-07-04T18:54:34Z</time>
      </trkpt>
      <trkpt lat="43.73051" lon="6.97579">
        <ele>1032.14453125</ele>
        <time>2012-07-04T18:54:39Z</time>
      </trkpt>
      <trkpt lat="43.73055" lon="6.97581">
        <ele>1032.0863037109</ele>
        <time>2012-07-04T18:54:44Z</time>
      </trkpt>
      <trkpt lat="43.73061" lon="6.97586">
        <ele>1031.8044433594</ele>
        <time>2012-07-04T18:54:52Z</time>
      </trkpt>
      <trkpt lat="43.73062" lon="6.97588">
        <ele>1031.7768554688</ele>
        <time>2012-07-04T18:54:53Z</time>
      </trkpt>
      <trkpt lat="43.73062" lon="6.9759">
        <ele>1031.7768554688</ele>
        <time>2012-07-04T18:54:56Z</time>
      </trkpt>
      <trkpt lat="43.73062" lon="6.97595">
        <ele>1031.7631835938</ele>
        <time>2012-07-04T18:55:02Z</time>
      </trkpt>
      <trkpt lat="43.73061" lon="6.97599">
        <ele>1031.8044433594</ele>
        <time>2012-07-04T18:55:07Z</time>
      </trkpt>
      <trkpt lat="43.73059" lon="6.97603">
        <ele>1031.88671875</ele>
        <time>2012-07-04T18:55:13Z</time>
      </trkpt>
      <trkpt lat="43.73056" lon="6.97616">
        <ele>1031.8101806641</ele>
        <time>2012-07-04T18:55:19Z</time>
      </trkpt>
      <trkpt lat="43.73059" lon="6.97633">
        <ele>1031.0788574219</ele>
        <time>2012-07-04T18:55:25Z</time>
      </trkpt>
      <trkpt lat="43.73061" lon="6.97647">
        <ele>1030.7465820312</ele>
        <time>2012-07-04T18:55:30Z</time>
      </trkpt>
      <trkpt lat="43.7306" lon="6.97662">
        <ele>1030.6912841797</ele>
        <time>2012-07-04T18:55:35Z</time>
      </trkpt>
      <trkpt lat="43.73057" lon="6.97691">
        <ele>1030.9108886719</ele>
        <time>2012-07-04T18:55:40Z</time>
      </trkpt>
      <trkpt lat="43.73051" lon="6.97718">
        <ele>1029.96484375</ele>
        <time>2012-07-04T18:55:45Z</time>
      </trkpt>
      <trkpt lat="43.73045" lon="6.97738">
        <ele>1029.2556152344</ele>
        <time>2012-07-04T18:55:51Z</time>
      </trkpt>
      <trkpt lat="43.73042" lon="6.97757">
        <ele>1029</ele>
        <time>2012-07-04T18:55:56Z</time>
      </trkpt>
      <trkpt lat="43.73043" lon="6.97768">
        <ele>1029</ele>
        <time>2012-07-04T18:55:59Z</time>
      </trkpt>
      <trkpt lat="43.73045" lon="6.97769">
        <ele>1029</ele>
        <time>2012-07-04T18:56:00Z</time>
      </trkpt>
      <trkpt lat="43.73048" lon="6.97773">
        <ele>1029</ele>
        <time>2012-07-04T18:56:03Z</time>
      </trkpt>
      <trkpt lat="43.73048" lon="6.97772">
        <ele>1029</ele>
        <time>2012-07-04T18:56:04Z</time>
      </trkpt>
      <trkpt lat="43.73049" lon="6.97775">
        <ele>1029</ele>
        <time>2012-07-04T18:56:11Z</time>
      </trkpt>
      <trkpt lat="43.73049" lon="6.97784">
        <ele>1028.947265625</ele>
        <time>2012-07-04T18:56:17Z</time>
      </trkpt>
      <trkpt lat="43.73051" lon="6.97796">
        <ele>1028.8951416016</ele>
        <time>2012-07-04T18:56:23Z</time>
      </trkpt>
      <trkpt lat="43.73052" lon="6.97796">
        <ele>1028.9190673828</ele>
        <time>2012-07-04T18:56:24Z</time>
      </trkpt>
      <trkpt lat="43.73055" lon="6.97801">
        <ele>1028.9913330078</ele>
        <time>2012-07-04T18:56:28Z</time>
      </trkpt>
      <trkpt lat="43.73056" lon="6.97802">
        <ele>1028.9936523438</ele>
        <time>2012-07-04T18:56:29Z</time>
      </trkpt>
      <trkpt lat="43.73056" lon="6.97805">
        <ele>1028.9659423828</ele>
        <time>2012-07-04T18:56:31Z</time>
      </trkpt>
      <trkpt lat="43.73059" lon="6.97811">
        <ele>1028.5844726562</ele>
        <time>2012-07-04T18:56:37Z</time>
      </trkpt>
      <trkpt lat="43.7306" lon="6.97814">
        <ele>1028.3997802734</ele>
        <time>2012-07-04T18:56:40Z</time>
      </trkpt>
      <trkpt lat="43.73062" lon="6.97816">
        <ele>1028.2592773438</ele>
        <time>2012-07-04T18:56:43Z</time>
      </trkpt>
      <trkpt lat="43.73063" lon="6.9782">
        <ele>1028.1080322266</ele>
        <time>2012-07-04T18:56:48Z</time>
      </trkpt>
      <trkpt lat="43.73063" lon="6.97827">
        <ele>1027.9240722656</ele>
        <time>2012-07-04T18:56:54Z</time>
      </trkpt>
      <trkpt lat="43.73063" lon="6.97833">
        <ele>1027.7327880859</ele>
        <time>2012-07-04T18:57:03Z</time>
      </trkpt>
      <trkpt lat="43.73063" lon="6.97834">
        <ele>1027.7337646484</ele>
        <time>2012-07-04T18:57:09Z</time>
      </trkpt>
      <trkpt lat="43.73063" lon="6.97832">
        <ele>1027.7537841797</ele>
        <time>2012-07-04T18:57:22Z</time>
      </trkpt>
      <trkpt lat="43.73063" lon="6.97831">
        <ele>1027.7858886719</ele>
        <time>2012-07-04T18:57:34Z</time>
      </trkpt>
      <trkpt lat="43.73061" lon="6.97841">
        <ele>1027.765625</ele>
        <time>2012-07-04T18:58:15Z</time>
      </trkpt>
      <trkpt lat="43.73059" lon="6.97843">
        <ele>1027.8267822266</ele>
        <time>2012-07-04T18:58:16Z</time>
      </trkpt>
      <trkpt lat="43.73055" lon="6.97848">
        <ele>1027.9409179688</ele>
        <time>2012-07-04T18:58:19Z</time>
      </trkpt>
      <trkpt lat="43.73053" lon="6.9785">
        <ele>1027.8594970703</ele>
        <time>2012-07-04T18:58:20Z</time>
      </trkpt>
      <trkpt lat="43.73052" lon="6.97851">
        <ele>1027.7452392578</ele>
        <time>2012-07-04T18:58:21Z</time>
      </trkpt>
      <trkpt lat="43.73051" lon="6.97852">
        <ele>1027.6813964844</ele>
        <time>2012-07-04T18:58:23Z</time>
      </trkpt>
      <trkpt lat="43.73053" lon="6.97855">
        <ele>1027.8142089844</ele>
        <time>2012-07-04T18:58:27Z</time>
      </trkpt>
      <trkpt lat="43.73058" lon="6.97867">
        <ele>1027.6492919922</ele>
        <time>2012-07-04T18:58:32Z</time>
      </trkpt>
      <trkpt lat="43.73057" lon="6.97869">
        <ele>1027.630859375</ele>
        <time>2012-07-04T18:58:33Z</time>
      </trkpt>
      <trkpt lat="43.73054" lon="6.97873">
        <ele>1027.3038330078</ele>
        <time>2012-07-04T18:58:36Z</time>
      </trkpt>
      <trkpt lat="43.73058" lon="6.97885">
        <ele>1027.0726318359</ele>
        <time>2012-07-04T18:58:39Z</time>
      </trkpt>
      <trkpt lat="43.73058" lon="6.97889">
        <ele>1026.9079589844</ele>
        <time>2012-07-04T18:58:40Z</time>
      </trkpt>
      <trkpt lat="43.7306" lon="6.97895">
        <ele>1026.8137207031</ele>
        <time>2012-07-04T18:58:42Z</time>
      </trkpt>
      <trkpt lat="43.7306" lon="6.97898">
        <ele>1026.7954101562</ele>
        <time>2012-07-04T18:58:43Z</time>
      </trkpt>
      <trkpt lat="43.73057" lon="6.97908">
        <ele>1026.9012451172</ele>
        <time>2012-07-04T18:58:47Z</time>
      </trkpt>
      <trkpt lat="43.73056" lon="6.97907">
        <ele>1026.9716796875</ele>
        <time>2012-07-04T18:58:48Z</time>
      </trkpt>
      <trkpt lat="43.73053" lon="6.97901">
        <ele>1026.4542236328</ele>
        <time>2012-07-04T18:58:52Z</time>
      </trkpt>
      <trkpt lat="43.73053" lon="6.9791">
        <ele>1026.3942871094</ele>
        <time>2012-07-04T18:58:55Z</time>
      </trkpt>
      <trkpt lat="43.7305" lon="6.97923">
        <ele>1025.2446289062</ele>
        <time>2012-07-04T18:58:58Z</time>
      </trkpt>
      <trkpt lat="43.73047" lon="6.97931">
        <ele>1024.0895996094</ele>
        <time>2012-07-04T18:59:00Z</time>
      </trkpt>
      <trkpt lat="43.73045" lon="6.97936">
        <ele>1023.1348876953</ele>
        <time>2012-07-04T18:59:04Z</time>
      </trkpt>
      <trkpt lat="43.73043" lon="6.97942">
        <ele>1022.0061645508</ele>
        <time>2012-07-04T18:59:09Z</time>
      </trkpt>
      <trkpt lat="43.73043" lon="6.97943">
        <ele>1021.9532470703</ele>
        <time>2012-07-04T18:59:10Z</time>
      </trkpt>
      <trkpt lat="43.73042" lon="6.97945">
        <ele>1021.565246582</ele>
        <time>2012-07-04T18:59:13Z</time>
      </trkpt>
      <trkpt lat="43.73041" lon="6.97946">
        <ele>1021.1356201172</ele>
        <time>2012-07-04T18:59:14Z</time>
      </trkpt>
      <trkpt lat="43.7304" lon="6.97945">
        <ele>1020.7915649414</ele>
        <time>2012-07-04T18:59:17Z</time>
      </trkpt>
      <trkpt lat="43.73038" lon="6.97935">
        <ele>1021.2409057617</ele>
        <time>2012-07-04T18:59:25Z</time>
      </trkpt>
      <trkpt lat="43.73038" lon="6.97928">
        <ele>1021.6498413086</ele>
        <time>2012-07-04T18:59:28Z</time>
      </trkpt>
      <trkpt lat="43.73037" lon="6.97929">
        <ele>1021.4224853516</ele>
        <time>2012-07-04T18:59:29Z</time>
      </trkpt>
      <trkpt lat="43.73035" lon="6.97935">
        <ele>1020.1972045898</ele>
        <time>2012-07-04T18:59:33Z</time>
      </trkpt>
      <trkpt lat="43.73027" lon="6.9795">
        <ele>1015.6908569336</ele>
        <time>2012-07-04T18:59:38Z</time>
      </trkpt>
      <trkpt lat="43.73015" lon="6.9797">
        <ele>1007.60546875</ele>
        <time>2012-07-04T18:59:43Z</time>
      </trkpt>
      <trkpt lat="43.7301" lon="6.97975">
        <ele>1004.4838256836</ele>
        <time>2012-07-04T18:59:46Z</time>
      </trkpt>
      <trkpt lat="43.73009" lon="6.97974">
        <ele>1004.2967529297</ele>
        <time>2012-07-04T18:59:47Z</time>
      </trkpt>
      <trkpt lat="43.73012" lon="6.97963">
        <ele>1006.3659667969</ele>
        <time>2012-07-04T18:59:51Z</time>
      </trkpt>
      <trkpt lat="43.73013" lon="6.97955">
        <ele>1007.1480102539</ele>
        <time>2012-07-04T18:59:53Z</time>
      </trkpt>
      <trkpt lat="43.73014" lon="6.97946">
        <ele>1008.5366210938</ele>
        <time>2012-07-04T18:59:56Z</time>
      </trkpt>
      <trkpt lat="43.73016" lon="6.97925">
        <ele>1012.147277832</ele>
        <time>2012-07-04T19:00:02Z</time>
      </trkpt>
      <trkpt lat="43.73015" lon="6.97912">
        <ele>1012.673828125</ele>
        <time>2012-07-04T19:00:06Z</time>
      </trkpt>
      <trkpt lat="43.73012" lon="6.97915">
        <ele>1010.4481201172</ele>
        <time>2012-07-04T19:00:10Z</time>
      </trkpt>
      <trkpt lat="43.73006" lon="6.97933">
        <ele>1004.7401123047</ele>
        <time>2012-07-04T19:00:15Z</time>
      </trkpt>
      <trkpt lat="43.73004" lon="6.97934">
        <ele>1003.6311645508</ele>
        <time>2012-07-04T19:00:16Z</time>
      </trkpt>
      <trkpt lat="43.73003" lon="6.97932">
        <ele>1003.2346191406</ele>
        <time>2012-07-04T19:00:18Z</time>
      </trkpt>
      <trkpt lat="43.73002" lon="6.97917">
        <ele>1004.3332519531</ele>
        <time>2012-07-04T19:00:22Z</time>
      </trkpt>
      <trkpt lat="43.73002" lon="6.97913">
        <ele>1004.7846069336</ele>
        <time>2012-07-04T19:00:23Z</time>
      </trkpt>
      <trkpt lat="43.73001" lon="6.9791">
        <ele>1004.8985595703</ele>
        <time>2012-07-04T19:00:24Z</time>
      </trkpt>
      <trkpt lat="43.72996" lon="6.97899">
        <ele>1002.9287719727</ele>
        <time>2012-07-04T19:00:27Z</time>
      </trkpt>
      <trkpt lat="43.72989" lon="6.9789">
        <ele>999.38568115234</ele>
        <time>2012-07-04T19:00:31Z</time>
      </trkpt>
      <trkpt lat="43.7299" lon="6.97899">
        <ele>998.36602783203</ele>
        <time>2012-07-04T19:00:35Z</time>
      </trkpt>
      <trkpt lat="43.72988" lon="6.97916">
        <ele>994.06243896484</ele>
        <time>2012-07-04T19:00:39Z</time>
      </trkpt>
      <trkpt lat="43.7298" lon="6.97931">
        <ele>984.91973876953</ele>
        <time>2012-07-04T19:00:44Z</time>
      </trkpt>
      <trkpt lat="43.72977" lon="6.97935">
        <ele>980.5595703125</ele>
        <time>2012-07-04T19:00:47Z</time>
      </trkpt>
      <trkpt lat="43.72976" lon="6.97934">
        <ele>979.96325683594</ele>
        <time>2012-07-04T19:00:48Z</time>
      </trkpt>
      <trkpt lat="43.72975" lon="6.9792">
        <ele>983.35211181641</ele>
        <time>2012-07-04T19:00:52Z</time>
      </trkpt>
      <trkpt lat="43.72973" lon="6.97908">
        <ele>984.10607910156</ele>
        <time>2012-07-04T19:00:56Z</time>
      </trkpt>
      <trkpt lat="43.72972" lon="6.97905">
        <ele>983.83575439453</ele>
        <time>2012-07-04T19:00:57Z</time>
      </trkpt>
      <trkpt lat="43.72968" lon="6.97899">
        <ele>982.93426513672</ele>
        <time>2012-07-04T19:01:00Z</time>
      </trkpt>
      <trkpt lat="43.72968" lon="6.97898">
        <ele>982.68048095703</ele>
        <time>2012-07-04T19:01:05Z</time>
      </trkpt>
      <trkpt lat="43.72964" lon="6.97894">
        <ele>981.67419433594</ele>
        <time>2012-07-04T19:01:27Z</time>
      </trkpt>
      <trkpt lat="43.72961" lon="6.97897">
        <ele>979.10107421875</ele>
        <time>2012-07-04T19:01:31Z</time>
      </trkpt>
      <trkpt lat="43.72957" lon="6.97893">
        <ele>977.97149658203</ele>
        <time>2012-07-04T19:01:36Z</time>
      </trkpt>
      <trkpt lat="43.72956" lon="6.97892">
        <ele>977.74749755859</ele>
        <time>2012-07-04T19:01:37Z</time>
      </trkpt>
      <trkpt lat="43.72952" lon="6.97891">
        <ele>975.7724609375</ele>
        <time>2012-07-04T19:01:42Z</time>
      </trkpt>
      <trkpt lat="43.72943" lon="6.97882">
        <ele>973.22424316406</ele>
        <time>2012-07-04T19:01:47Z</time>
      </trkpt>
      <trkpt lat="43.72942" lon="6.97881">
        <ele>971.13311767578</ele>
        <time>2012-07-04T19:01:48Z</time>
      </trkpt>
      <trkpt lat="43.72941" lon="6.97883">
        <ele>969.52124023438</ele>
        <time>2012-07-04T19:01:50Z</time>
      </trkpt>
      <trkpt lat="43.7294" lon="6.97889">
        <ele>967.20776367188</ele>
        <time>2012-07-04T19:01:53Z</time>
      </trkpt>
      <trkpt lat="43.72939" lon="6.97889">
        <ele>965.1904296875</ele>
        <time>2012-07-04T19:01:59Z</time>
      </trkpt>
      <trkpt lat="43.72937" lon="6.97888">
        <ele>963.69470214844</ele>
        <time>2012-07-04T19:02:02Z</time>
      </trkpt>
      <trkpt lat="43.72933" lon="6.97883">
        <ele>959.16815185547</ele>
        <time>2012-07-04T19:02:05Z</time>
      </trkpt>
      <trkpt lat="43.72926" lon="6.97877">
        <ele>950.83587646484</ele>
        <time>2012-07-04T19:02:09Z</time>
      </trkpt>
      <trkpt lat="43.72926" lon="6.97886">
        <ele>949.84936523438</ele>
        <time>2012-07-04T19:02:12Z</time>
      </trkpt>
      <trkpt lat="43.72927" lon="6.97906">
        <ele>948.98754882812</ele>
        <time>2012-07-04T19:02:17Z</time>
      </trkpt>
      <trkpt lat="43.72924" lon="6.9791">
        <ele>944.67120361328</ele>
        <time>2012-07-04T19:02:20Z</time>
      </trkpt>
      <trkpt lat="43.72914" lon="6.97905">
        <ele>935.83862304688</ele>
        <time>2012-07-04T19:02:24Z</time>
      </trkpt>
      <trkpt lat="43.72912" lon="6.97907">
        <ele>934.93566894531</ele>
        <time>2012-07-04T19:02:27Z</time>
      </trkpt>
      <trkpt lat="43.72913" lon="6.97916">
        <ele>934.71942138672</ele>
        <time>2012-07-04T19:02:31Z</time>
      </trkpt>
      <trkpt lat="43.72906" lon="6.97915">
        <ele>931.78057861328</ele>
        <time>2012-07-04T19:02:34Z</time>
      </trkpt>
      <trkpt lat="43.72898" lon="6.97903">
        <ele>929.44940185547</ele>
        <time>2012-07-04T19:02:38Z</time>
      </trkpt>
      <trkpt lat="43.72889" lon="6.97887">
        <ele>927.41357421875</ele>
        <time>2012-07-04T19:02:43Z</time>
      </trkpt>
      <trkpt lat="43.72885" lon="6.9788">
        <ele>926.66192626953</ele>
        <time>2012-07-04T19:02:45Z</time>
      </trkpt>
      <trkpt lat="43.72882" lon="6.97879">
        <ele>925.92413330078</ele>
        <time>2012-07-04T19:02:46Z</time>
      </trkpt>
      <trkpt lat="43.7288" lon="6.97878">
        <ele>925.26788330078</ele>
        <time>2012-07-04T19:02:47Z</time>
      </trkpt>
      <trkpt lat="43.72879" lon="6.97878">
        <ele>924.72406005859</ele>
        <time>2012-07-04T19:02:48Z</time>
      </trkpt>
      <trkpt lat="43.72879" lon="6.97881">
        <ele>924.53070068359</ele>
        <time>2012-07-04T19:02:50Z</time>
      </trkpt>
      <trkpt lat="43.72882" lon="6.97894">
        <ele>924.58038330078</ele>
        <time>2012-07-04T19:02:53Z</time>
      </trkpt>
      <trkpt lat="43.72883" lon="6.97907">
        <ele>923.74267578125</ele>
        <time>2012-07-04T19:02:56Z</time>
      </trkpt>
      <trkpt lat="43.72886" lon="6.97918">
        <ele>923.86096191406</ele>
        <time>2012-07-04T19:02:59Z</time>
      </trkpt>
      <trkpt lat="43.72886" lon="6.97919">
        <ele>923.59729003906</ele>
        <time>2012-07-04T19:03:03Z</time>
      </trkpt>
      <trkpt lat="43.72883" lon="6.97919">
        <ele>922.8916015625</ele>
        <time>2012-07-04T19:03:08Z</time>
      </trkpt>
      <trkpt lat="43.72882" lon="6.97918">
        <ele>922.67883300781</ele>
        <time>2012-07-04T19:03:09Z</time>
      </trkpt>
      <trkpt lat="43.72873" lon="6.97904">
        <ele>920.84155273438</ele>
        <time>2012-07-04T19:03:14Z</time>
      </trkpt>
      <trkpt lat="43.72855" lon="6.97879">
        <ele>914.86145019531</ele>
        <time>2012-07-04T19:03:20Z</time>
      </trkpt>
      <trkpt lat="43.72842" lon="6.9786">
        <ele>906.69445800781</ele>
        <time>2012-07-04T19:03:25Z</time>
      </trkpt>
      <trkpt lat="43.72827" lon="6.97839">
        <ele>902.16162109375</ele>
        <time>2012-07-04T19:03:30Z</time>
      </trkpt>
      <trkpt lat="43.72812" lon="6.97825">
        <ele>897.60754394531</ele>
        <time>2012-07-04T19:03:34Z</time>
      </trkpt>
      <trkpt lat="43.72809" lon="6.97824">
        <ele>896.14624023438</ele>
        <time>2012-07-04T19:03:35Z</time>
      </trkpt>
      <trkpt lat="43.72802" lon="6.97822">
        <ele>893.63122558594</ele>
        <time>2012-07-04T19:03:37Z</time>
      </trkpt>
      <trkpt lat="43.72792" lon="6.97815">
        <ele>890.42413330078</ele>
        <time>2012-07-04T19:03:40Z</time>
      </trkpt>
      <trkpt lat="43.72777" lon="6.97802">
        <ele>886.07879638672</ele>
        <time>2012-07-04T19:03:45Z</time>
      </trkpt>
      <trkpt lat="43.72764" lon="6.9779">
        <ele>882.85333251953</ele>
        <time>2012-07-04T19:03:49Z</time>
      </trkpt>
      <trkpt lat="43.72749" lon="6.97773">
        <ele>878.16033935547</ele>
        <time>2012-07-04T19:03:54Z</time>
      </trkpt>
      <trkpt lat="43.72733" lon="6.97751">
        <ele>876.83221435547</ele>
        <time>2012-07-04T19:03:59Z</time>
      </trkpt>
      <trkpt lat="43.72729" lon="6.97746">
        <ele>876.58367919922</ele>
        <time>2012-07-04T19:04:00Z</time>
      </trkpt>
      <trkpt lat="43.72721" lon="6.9773">
        <ele>876.10113525391</ele>
        <time>2012-07-04T19:04:03Z</time>
      </trkpt>
      <trkpt lat="43.72715" lon="6.9772">
        <ele>875.38781738281</ele>
        <time>2012-07-04T19:04:05Z</time>
      </trkpt>
      <trkpt lat="43.72708" lon="6.9771">
        <ele>874.75958251953</ele>
        <time>2012-07-04T19:04:07Z</time>
      </trkpt>
      <trkpt lat="43.72705" lon="6.97707">
        <ele>874.33038330078</ele>
        <time>2012-07-04T19:04:08Z</time>
      </trkpt>
      <trkpt lat="43.72696" lon="6.97699">
        <ele>873.02575683594</ele>
        <time>2012-07-04T19:04:11Z</time>
      </trkpt>
      <trkpt lat="43.72692" lon="6.97694">
        <ele>872.30627441406</ele>
        <time>2012-07-04T19:04:12Z</time>
      </trkpt>
      <trkpt lat="43.72689" lon="6.9769">
        <ele>871.53234863281</ele>
        <time>2012-07-04T19:04:13Z</time>
      </trkpt>
      <trkpt lat="43.72684" lon="6.9768">
        <ele>870.47924804688</ele>
        <time>2012-07-04T19:04:15Z</time>
      </trkpt>
      <trkpt lat="43.72681" lon="6.97675">
        <ele>869.83569335938</ele>
        <time>2012-07-04T19:04:17Z</time>
      </trkpt>
      <trkpt lat="43.72681" lon="6.97673">
        <ele>870.13848876953</ele>
        <time>2012-07-04T19:04:21Z</time>
      </trkpt>
      <trkpt lat="43.72678" lon="6.97665">
        <ele>869.83978271484</ele>
        <time>2012-07-04T19:04:29Z</time>
      </trkpt>
      <trkpt lat="43.72668" lon="6.97649">
        <ele>867.34039306641</ele>
        <time>2012-07-04T19:04:34Z</time>
      </trkpt>
      <trkpt lat="43.72657" lon="6.97636">
        <ele>865.34045410156</ele>
        <time>2012-07-04T19:04:38Z</time>
      </trkpt>
      <trkpt lat="43.72656" lon="6.97645">
        <ele>864.39764404297</ele>
        <time>2012-07-04T19:04:41Z</time>
      </trkpt>
      <trkpt lat="43.72655" lon="6.97647">
        <ele>864.02264404297</ele>
        <time>2012-07-04T19:04:42Z</time>
      </trkpt>
      <trkpt lat="43.72651" lon="6.97645">
        <ele>862.96685791016</ele>
        <time>2012-07-04T19:04:44Z</time>
      </trkpt>
      <trkpt lat="43.72638" lon="6.97628">
        <ele>860.59765625</ele>
        <time>2012-07-04T19:04:48Z</time>
      </trkpt>
      <trkpt lat="43.72626" lon="6.9761">
        <ele>860.15100097656</ele>
        <time>2012-07-04T19:04:52Z</time>
      </trkpt>
      <trkpt lat="43.72625" lon="6.97604">
        <ele>860.37994384766</ele>
        <time>2012-07-04T19:04:53Z</time>
      </trkpt>
      <trkpt lat="43.7262" lon="6.97569">
        <ele>861.38006591797</ele>
        <time>2012-07-04T19:04:58Z</time>
      </trkpt>
      <trkpt lat="43.72619" lon="6.97561">
        <ele>861.40557861328</ele>
        <time>2012-07-04T19:04:59Z</time>
      </trkpt>
      <trkpt lat="43.72614" lon="6.97538">
        <ele>860.46697998047</ele>
        <time>2012-07-04T19:05:02Z</time>
      </trkpt>
      <trkpt lat="43.72609" lon="6.97523">
        <ele>859.61511230469</ele>
        <time>2012-07-04T19:05:05Z</time>
      </trkpt>
      <trkpt lat="43.72604" lon="6.97525">
        <ele>858.46154785156</ele>
        <time>2012-07-04T19:05:08Z</time>
      </trkpt>
      <trkpt lat="43.72598" lon="6.97516">
        <ele>857.2255859375</ele>
        <time>2012-07-04T19:05:11Z</time>
      </trkpt>
      <trkpt lat="43.72592" lon="6.97504">
        <ele>855.9072265625</ele>
        <time>2012-07-04T19:05:13Z</time>
      </trkpt>
      <trkpt lat="43.72584" lon="6.9749">
        <ele>854.17687988281</ele>
        <time>2012-07-04T19:05:15Z</time>
      </trkpt>
      <trkpt lat="43.72559" lon="6.97451">
        <ele>850.49243164062</ele>
        <time>2012-07-04T19:05:21Z</time>
      </trkpt>
      <trkpt lat="43.72545" lon="6.97431">
        <ele>847.95471191406</ele>
        <time>2012-07-04T19:05:25Z</time>
      </trkpt>
      <trkpt lat="43.72543" lon="6.97431">
        <ele>847.58093261719</ele>
        <time>2012-07-04T19:05:26Z</time>
      </trkpt>
      <trkpt lat="43.72541" lon="6.97432">
        <ele>847.18157958984</ele>
        <time>2012-07-04T19:05:28Z</time>
      </trkpt>
      <trkpt lat="43.72539" lon="6.97438">
        <ele>846.59509277344</ele>
        <time>2012-07-04T19:08:07Z</time>
      </trkpt>
      <trkpt lat="43.72541" lon="6.97437">
        <ele>847.01220703125</ele>
        <time>2012-07-04T19:13:15Z</time>
      </trkpt>
      <trkpt lat="43.7254" lon="6.97438">
        <ele>846.67224121094</ele>
        <time>2012-07-04T19:13:27Z</time>
      </trkpt>
      <trkpt lat="43.72539" lon="6.97439">
        <ele>846.49005126953</ele>
        <time>2012-07-04T19:13:28Z</time>
      </trkpt>
      <trkpt lat="43.72532" lon="6.9745">
        <ele>844.71600341797</ele>
        <time>2012-07-04T19:13:32Z</time>
      </trkpt>
      <trkpt lat="43.72521" lon="6.97473">
        <ele>842.00048828125</ele>
        <time>2012-07-04T19:13:37Z</time>
      </trkpt>
      <trkpt lat="43.72509" lon="6.97496">
        <ele>836.51226806641</ele>
        <time>2012-07-04T19:13:42Z</time>
      </trkpt>
      <trkpt lat="43.72497" lon="6.97521">
        <ele>829.53381347656</ele>
        <time>2012-07-04T19:13:47Z</time>
      </trkpt>
      <trkpt lat="43.72496" lon="6.97525">
        <ele>828.72595214844</ele>
        <time>2012-07-04T19:13:48Z</time>
      </trkpt>
      <trkpt lat="43.72498" lon="6.97528">
        <ele>828.89709472656</ele>
        <time>2012-07-04T19:13:50Z</time>
      </trkpt>
      <trkpt lat="43.72503" lon="6.97533">
        <ele>830.21466064453</ele>
        <time>2012-07-04T19:13:52Z</time>
      </trkpt>
      <trkpt lat="43.72511" lon="6.97539">
        <ele>832.44818115234</ele>
        <time>2012-07-04T19:13:54Z</time>
      </trkpt>
      <trkpt lat="43.72515" lon="6.97545">
        <ele>833.70782470703</ele>
        <time>2012-07-04T19:13:56Z</time>
      </trkpt>
      <trkpt lat="43.72514" lon="6.97549">
        <ele>833.09661865234</ele>
        <time>2012-07-04T19:13:57Z</time>
      </trkpt>
      <trkpt lat="43.72507" lon="6.97555">
        <ele>827.90240478516</ele>
        <time>2012-07-04T19:14:00Z</time>
      </trkpt>
      <trkpt lat="43.72495" lon="6.97565">
        <ele>821.68811035156</ele>
        <time>2012-07-04T19:14:03Z</time>
      </trkpt>
      <trkpt lat="43.7249" lon="6.97569">
        <ele>820.14953613281</ele>
        <time>2012-07-04T19:14:04Z</time>
      </trkpt>
      <trkpt lat="43.72479" lon="6.97577">
        <ele>817.54864501953</ele>
        <time>2012-07-04T19:14:06Z</time>
      </trkpt>
      <trkpt lat="43.7247" lon="6.97586">
        <ele>814.89306640625</ele>
        <time>2012-07-04T19:14:08Z</time>
      </trkpt>
      <trkpt lat="43.72453" lon="6.97601">
        <ele>807.30535888672</ele>
        <time>2012-07-04T19:14:12Z</time>
      </trkpt>
      <trkpt lat="43.72449" lon="6.97604">
        <ele>805.35333251953</ele>
        <time>2012-07-04T19:14:13Z</time>
      </trkpt>
      <trkpt lat="43.72442" lon="6.97607">
        <ele>802.42047119141</ele>
        <time>2012-07-04T19:14:15Z</time>
      </trkpt>
      <trkpt lat="43.72436" lon="6.97606">
        <ele>800.65270996094</ele>
        <time>2012-07-04T19:14:17Z</time>
      </trkpt>
      <trkpt lat="43.72429" lon="6.97592">
        <ele>798.80377197266</ele>
        <time>2012-07-04T19:14:21Z</time>
      </trkpt>
      <trkpt lat="43.7242" lon="6.97581">
        <ele>796.39721679688</ele>
        <time>2012-07-04T19:14:26Z</time>
      </trkpt>
      <trkpt lat="43.72419" lon="6.9759">
        <ele>795.55395507812</ele>
        <time>2012-07-04T19:14:29Z</time>
      </trkpt>
      <trkpt lat="43.72416" lon="6.97605">
        <ele>794.11920166016</ele>
        <time>2012-07-04T19:14:33Z</time>
      </trkpt>
      <trkpt lat="43.72416" lon="6.97618">
        <ele>793.28955078125</ele>
        <time>2012-07-04T19:14:37Z</time>
      </trkpt>
      <trkpt lat="43.72415" lon="6.97619">
        <ele>792.91534423828</ele>
        <time>2012-07-04T19:14:38Z</time>
      </trkpt>
      <trkpt lat="43.72414" lon="6.97616">
        <ele>792.89477539062</ele>
        <time>2012-07-04T19:14:40Z</time>
      </trkpt>
      <trkpt lat="43.72413" lon="6.97612">
        <ele>792.82611083984</ele>
        <time>2012-07-04T19:14:45Z</time>
      </trkpt>
      <trkpt lat="43.72412" lon="6.9761">
        <ele>792.74621582031</ele>
        <time>2012-07-04T19:16:36Z</time>
      </trkpt>
      <trkpt lat="43.72409" lon="6.97602">
        <ele>792.10186767578</ele>
        <time>2012-07-04T19:16:43Z</time>
      </trkpt>
      <trkpt lat="43.72401" lon="6.97583">
        <ele>791.06329345703</ele>
        <time>2012-07-04T19:16:46Z</time>
      </trkpt>
      <trkpt lat="43.72387" lon="6.97541">
        <ele>790.42492675781</ele>
        <time>2012-07-04T19:16:50Z</time>
      </trkpt>
      <trkpt lat="43.72378" lon="6.97522">
        <ele>787.33129882812</ele>
        <time>2012-07-04T19:16:52Z</time>
      </trkpt>
      <trkpt lat="43.72366" lon="6.97503">
        <ele>782.24652099609</ele>
        <time>2012-07-04T19:16:54Z</time>
      </trkpt>
      <trkpt lat="43.72346" lon="6.97477">
        <ele>775.62603759766</ele>
        <time>2012-07-04T19:16:58Z</time>
      </trkpt>
      <trkpt lat="43.72342" lon="6.97474">
        <ele>774.49572753906</ele>
        <time>2012-07-04T19:16:59Z</time>
      </trkpt>
      <trkpt lat="43.72332" lon="6.97479">
        <ele>770.82794189453</ele>
        <time>2012-07-04T19:17:01Z</time>
      </trkpt>
      <trkpt lat="43.72311" lon="6.97498">
        <ele>759.802734375</ele>
        <time>2012-07-04T19:17:04Z</time>
      </trkpt>
      <trkpt lat="43.72286" lon="6.97511">
        <ele>753.40356445312</ele>
        <time>2012-07-04T19:17:07Z</time>
      </trkpt>
      <trkpt lat="43.72267" lon="6.97504">
        <ele>750.01849365234</ele>
        <time>2012-07-04T19:17:10Z</time>
      </trkpt>
      <trkpt lat="43.72251" lon="6.97496">
        <ele>747.28125</ele>
        <time>2012-07-04T19:17:13Z</time>
      </trkpt>
      <trkpt lat="43.7223" lon="6.975">
        <ele>738.27160644531</ele>
        <time>2012-07-04T19:17:16Z</time>
      </trkpt>
      <trkpt lat="43.72211" lon="6.97488">
        <ele>733.41265869141</ele>
        <time>2012-07-04T19:17:19Z</time>
      </trkpt>
      <trkpt lat="43.72199" lon="6.97471">
        <ele>731.90643310547</ele>
        <time>2012-07-04T19:17:21Z</time>
      </trkpt>
      <trkpt lat="43.72193" lon="6.97463">
        <ele>730.79931640625</ele>
        <time>2012-07-04T19:17:22Z</time>
      </trkpt>
      <trkpt lat="43.72176" lon="6.97439">
        <ele>724.18798828125</ele>
        <time>2012-07-04T19:17:26Z</time>
      </trkpt>
      <trkpt lat="43.72174" lon="6.97436">
        <ele>723.19921875</ele>
        <time>2012-07-04T19:17:28Z</time>
      </trkpt>
      <trkpt lat="43.72174" lon="6.97436">
        <ele>723.03442382812</ele>
        <time>2012-07-04T19:17:29Z</time>
      </trkpt>
      <trkpt lat="43.72172" lon="6.9744">
        <ele>722.37524414062</ele>
        <time>2012-07-04T19:17:33Z</time>
      </trkpt>
      <trkpt lat="43.72172" lon="6.9744">
        <ele>722.37524414062</ele>
        <time>2012-07-04T19:17:34Z</time>
      </trkpt>
      <trkpt lat="43.72171" lon="6.97448">
        <ele>721.86206054688</ele>
        <time>2012-07-04T19:17:39Z</time>
      </trkpt>
      <trkpt lat="43.72169" lon="6.97469">
        <ele>721.13275146484</ele>
        <time>2012-07-04T19:17:43Z</time>
      </trkpt>
      <trkpt lat="43.72171" lon="6.97497">
        <ele>721.447265625</ele>
        <time>2012-07-04T19:17:47Z</time>
      </trkpt>
      <trkpt lat="43.72172" lon="6.97511">
        <ele>721.90197753906</ele>
        <time>2012-07-04T19:17:49Z</time>
      </trkpt>
      <trkpt lat="43.72173" lon="6.97528">
        <ele>722.02313232422</ele>
        <time>2012-07-04T19:17:52Z</time>
      </trkpt>
      <trkpt lat="43.72174" lon="6.97532">
        <ele>722.23358154297</ele>
        <time>2012-07-04T19:17:53Z</time>
      </trkpt>
      <trkpt lat="43.72178" lon="6.97542">
        <ele>723.54730224609</ele>
        <time>2012-07-04T19:17:56Z</time>
      </trkpt>
      <trkpt lat="43.72179" lon="6.97546">
        <ele>723.83654785156</ele>
        <time>2012-07-04T19:17:57Z</time>
      </trkpt>
      <trkpt lat="43.72182" lon="6.9756">
        <ele>724.24114990234</ele>
        <time>2012-07-04T19:18:01Z</time>
      </trkpt>
      <trkpt lat="43.72181" lon="6.97564">
        <ele>723.96154785156</ele>
        <time>2012-07-04T19:18:02Z</time>
      </trkpt>
      <trkpt lat="43.72179" lon="6.97569">
        <ele>723.24993896484</ele>
        <time>2012-07-04T19:18:04Z</time>
      </trkpt>
      <trkpt lat="43.72178" lon="6.97577">
        <ele>722.9189453125</ele>
        <time>2012-07-04T19:18:08Z</time>
      </trkpt>
      <trkpt lat="43.72178" lon="6.9758">
        <ele>722.86968994141</ele>
        <time>2012-07-04T19:18:09Z</time>
      </trkpt>
      <trkpt lat="43.72178" lon="6.97601">
        <ele>722.73138427734</ele>
        <time>2012-07-04T19:18:13Z</time>
      </trkpt>
      <trkpt lat="43.72172" lon="6.97629">
        <ele>721.25756835938</ele>
        <time>2012-07-04T19:18:17Z</time>
      </trkpt>
      <trkpt lat="43.72162" lon="6.97653">
        <ele>718.80572509766</ele>
        <time>2012-07-04T19:18:20Z</time>
      </trkpt>
      <trkpt lat="43.72157" lon="6.97662">
        <ele>717.47613525391</ele>
        <time>2012-07-04T19:18:21Z</time>
      </trkpt>
      <trkpt lat="43.72144" lon="6.97687">
        <ele>713.44354248047</ele>
        <time>2012-07-04T19:18:24Z</time>
      </trkpt>
      <trkpt lat="43.72139" lon="6.97693">
        <ele>712.08056640625</ele>
        <time>2012-07-04T19:18:25Z</time>
      </trkpt>
      <trkpt lat="43.72128" lon="6.97707">
        <ele>707.84539794922</ele>
        <time>2012-07-04T19:18:29Z</time>
      </trkpt>
      <trkpt lat="43.72128" lon="6.97708">
        <ele>707.52581787109</ele>
        <time>2012-07-04T19:18:30Z</time>
      </trkpt>
      <trkpt lat="43.72128" lon="6.97707">
        <ele>707.59411621094</ele>
        <time>2012-07-04T19:18:33Z</time>
      </trkpt>
      <trkpt lat="43.72128" lon="6.97709">
        <ele>707.47937011719</ele>
        <time>2012-07-04T19:18:48Z</time>
      </trkpt>
      <trkpt lat="43.72126" lon="6.97726">
        <ele>705.89361572266</ele>
        <time>2012-07-04T19:18:52Z</time>
      </trkpt>
      <trkpt lat="43.72118" lon="6.97748">
        <ele>702.14453125</ele>
        <time>2012-07-04T19:18:57Z</time>
      </trkpt>
      <trkpt lat="43.72106" lon="6.9777">
        <ele>697.26513671875</ele>
        <time>2012-07-04T19:19:04Z</time>
      </trkpt>
      <trkpt lat="43.72094" lon="6.9779">
        <ele>689.27850341797</ele>
        <time>2012-07-04T19:19:12Z</time>
      </trkpt>
      <trkpt lat="43.72078" lon="6.97806">
        <ele>678.44866943359</ele>
        <time>2012-07-04T19:19:20Z</time>
      </trkpt>
      <trkpt lat="43.72062" lon="6.97824">
        <ele>667.08367919922</ele>
        <time>2012-07-04T19:19:28Z</time>
      </trkpt>
      <trkpt lat="43.72044" lon="6.97842">
        <ele>655.22808837891</ele>
        <time>2012-07-04T19:19:37Z</time>
      </trkpt>
      <trkpt lat="43.72038" lon="6.97843">
        <ele>652.63708496094</ele>
        <time>2012-07-04T19:19:42Z</time>
      </trkpt>
      <trkpt lat="43.72042" lon="6.97855">
        <ele>651.744140625</ele>
        <time>2012-07-04T19:20:04Z</time>
      </trkpt>
      <trkpt lat="43.72043" lon="6.97876">
        <ele>648.36877441406</ele>
        <time>2012-07-04T19:20:08Z</time>
      </trkpt>
      <trkpt lat="43.7205" lon="6.97898">
        <ele>647.80438232422</ele>
        <time>2012-07-04T19:20:11Z</time>
      </trkpt>
      <trkpt lat="43.72056" lon="6.97926">
        <ele>646.28265380859</ele>
        <time>2012-07-04T19:20:15Z</time>
      </trkpt>
      <trkpt lat="43.72058" lon="6.97934">
        <ele>645.29205322266</ele>
        <time>2012-07-04T19:20:18Z</time>
      </trkpt>
      <trkpt lat="43.72058" lon="6.97935">
        <ele>645.12768554688</ele>
        <time>2012-07-04T19:20:19Z</time>
      </trkpt>
      <trkpt lat="43.72058" lon="6.97944">
        <ele>643.46759033203</ele>
        <time>2012-07-04T19:20:24Z</time>
      </trkpt>
      <trkpt lat="43.72057" lon="6.97947">
        <ele>642.01434326172</ele>
        <time>2012-07-04T19:20:28Z</time>
      </trkpt>
      <trkpt lat="43.72057" lon="6.97947">
        <ele>642.18786621094</ele>
        <time>2012-07-04T19:20:29Z</time>
      </trkpt>
      <trkpt lat="43.72062" lon="6.9795">
        <ele>643.95745849609</ele>
        <time>2012-07-04T19:20:33Z</time>
      </trkpt>
      <trkpt lat="43.72063" lon="6.97952">
        <ele>644.09387207031</ele>
        <time>2012-07-04T19:20:34Z</time>
      </trkpt>
      <trkpt lat="43.72072" lon="6.97954">
        <ele>646.92358398438</ele>
        <time>2012-07-04T19:20:39Z</time>
      </trkpt>
      <trkpt lat="43.7208" lon="6.97955">
        <ele>649.70184326172</ele>
        <time>2012-07-04T19:20:44Z</time>
      </trkpt>
      <trkpt lat="43.72081" lon="6.97958">
        <ele>649.07452392578</ele>
        <time>2012-07-04T19:20:48Z</time>
      </trkpt>
      <trkpt lat="43.72081" lon="6.97959">
        <ele>648.748046875</ele>
        <time>2012-07-04T19:20:49Z</time>
      </trkpt>
      <trkpt lat="43.72079" lon="6.97962">
        <ele>647.50903320312</ele>
        <time>2012-07-04T19:20:52Z</time>
      </trkpt>
      <trkpt lat="43.72079" lon="6.97962">
        <ele>647.52416992188</ele>
        <time>2012-07-04T19:20:54Z</time>
      </trkpt>
      <trkpt lat="43.72075" lon="6.97967">
        <ele>644.71087646484</ele>
        <time>2012-07-04T19:21:00Z</time>
      </trkpt>
      <trkpt lat="43.72063" lon="6.97963">
        <ele>641.72161865234</ele>
        <time>2012-07-04T19:21:04Z</time>
      </trkpt>
      <trkpt lat="43.72048" lon="6.97963">
        <ele>637.0654296875</ele>
        <time>2012-07-04T19:21:08Z</time>
      </trkpt>
      <trkpt lat="43.72031" lon="6.97956">
        <ele>632.79730224609</ele>
        <time>2012-07-04T19:21:12Z</time>
      </trkpt>
      <trkpt lat="43.72014" lon="6.97955">
        <ele>629.84967041016</ele>
        <time>2012-07-04T19:21:17Z</time>
      </trkpt>
      <trkpt lat="43.72005" lon="6.97958">
        <ele>627.85290527344</ele>
        <time>2012-07-04T19:21:22Z</time>
      </trkpt>
      <trkpt lat="43.71994" lon="6.97962">
        <ele>625.43682861328</ele>
        <time>2012-07-04T19:21:27Z</time>
      </trkpt>
      <trkpt lat="43.71982" lon="6.97968">
        <ele>622.44995117188</ele>
        <time>2012-07-04T19:21:31Z</time>
      </trkpt>
      <trkpt lat="43.71973" lon="6.9796">
        <ele>621.79760742188</ele>
        <time>2012-07-04T19:21:35Z</time>
      </trkpt>
      <trkpt lat="43.7197" lon="6.97957">
        <ele>621.82952880859</ele>
        <time>2012-07-04T19:21:37Z</time>
      </trkpt>
      <trkpt lat="43.71968" lon="6.97956">
        <ele>621.46478271484</ele>
        <time>2012-07-04T19:21:39Z</time>
      </trkpt>
      <trkpt lat="43.71965" lon="6.97954">
        <ele>621.06378173828</ele>
        <time>2012-07-04T19:21:41Z</time>
      </trkpt>
      <trkpt lat="43.71962" lon="6.97952">
        <ele>620.67883300781</ele>
        <time>2012-07-04T19:21:43Z</time>
      </trkpt>
      <trkpt lat="43.7196" lon="6.97952">
        <ele>620.51086425781</ele>
        <time>2012-07-04T19:21:47Z</time>
      </trkpt>
      <trkpt lat="43.71961" lon="6.97957">
        <ele>619.95489501953</ele>
        <time>2012-07-04T19:21:55Z</time>
      </trkpt>
      <trkpt lat="43.71968" lon="6.97965">
        <ele>620.22235107422</ele>
        <time>2012-07-04T19:21:59Z</time>
      </trkpt>
      <trkpt lat="43.71968" lon="6.97967">
        <ele>620.06860351562</ele>
        <time>2012-07-04T19:22:00Z</time>
      </trkpt>
      <trkpt lat="43.71967" lon="6.97967">
        <ele>619.64031982422</ele>
        <time>2012-07-04T19:22:02Z</time>
      </trkpt>
      <trkpt lat="43.71964" lon="6.97966">
        <ele>619.35424804688</ele>
        <time>2012-07-04T19:22:06Z</time>
      </trkpt>
      <trkpt lat="43.71963" lon="6.97965">
        <ele>619.19354248047</ele>
        <time>2012-07-04T19:22:08Z</time>
      </trkpt>
      <trkpt lat="43.7196" lon="6.97965">
        <ele>618.79321289062</ele>
        <time>2012-07-04T19:22:12Z</time>
      </trkpt>
      <trkpt lat="43.71951" lon="6.97966">
        <ele>617.00988769531</ele>
        <time>2012-07-04T19:22:16Z</time>
      </trkpt>
      <trkpt lat="43.71946" lon="6.97966">
        <ele>615.91345214844</ele>
        <time>2012-07-04T19:22:19Z</time>
      </trkpt>
      <trkpt lat="43.71947" lon="6.97969">
        <ele>615.85180664062</ele>
        <time>2012-07-04T19:22:21Z</time>
      </trkpt>
      <trkpt lat="43.71957" lon="6.97972">
        <ele>617.21441650391</ele>
        <time>2012-07-04T19:22:25Z</time>
      </trkpt>
      <trkpt lat="43.71959" lon="6.97975">
        <ele>617.31994628906</ele>
        <time>2012-07-04T19:22:28Z</time>
      </trkpt>
      <trkpt lat="43.71959" lon="6.97975">
        <ele>617.18432617188</ele>
        <time>2012-07-04T19:22:29Z</time>
      </trkpt>
      <trkpt lat="43.71957" lon="6.97976">
        <ele>616.81182861328</ele>
        <time>2012-07-04T19:22:31Z</time>
      </trkpt>
      <trkpt lat="43.71951" lon="6.97978">
        <ele>615.60162353516</ele>
        <time>2012-07-04T19:22:34Z</time>
      </trkpt>
      <trkpt lat="43.71948" lon="6.9798">
        <ele>614.86694335938</ele>
        <time>2012-07-04T19:22:36Z</time>
      </trkpt>
      <trkpt lat="43.71948" lon="6.97982">
        <ele>614.60424804688</ele>
        <time>2012-07-04T19:22:38Z</time>
      </trkpt>
      <trkpt lat="43.71952" lon="6.97982">
        <ele>615.29089355469</ele>
        <time>2012-07-04T19:22:42Z</time>
      </trkpt>
      <trkpt lat="43.71961" lon="6.97986">
        <ele>616.51489257812</ele>
        <time>2012-07-04T19:22:46Z</time>
      </trkpt>
      <trkpt lat="43.71961" lon="6.97987">
        <ele>616.47021484375</ele>
        <time>2012-07-04T19:22:47Z</time>
      </trkpt>
      <trkpt lat="43.71958" lon="6.97989">
        <ele>615.62567138672</ele>
        <time>2012-07-04T19:22:51Z</time>
      </trkpt>
      <trkpt lat="43.71952" lon="6.97988">
        <ele>614.65234375</ele>
        <time>2012-07-04T19:22:55Z</time>
      </trkpt>
      <trkpt lat="43.7195" lon="6.97991">
        <ele>613.95367431641</ele>
        <time>2012-07-04T19:22:59Z</time>
      </trkpt>
      <trkpt lat="43.71957" lon="6.97993">
        <ele>615.06604003906</ele>
        <time>2012-07-04T19:23:02Z</time>
      </trkpt>
      <trkpt lat="43.71959" lon="6.97994">
        <ele>615.28576660156</ele>
        <time>2012-07-04T19:23:03Z</time>
      </trkpt>
      <trkpt lat="43.7197" lon="6.98001">
        <ele>616.49029541016</ele>
        <time>2012-07-04T19:23:08Z</time>
      </trkpt>
      <trkpt lat="43.71976" lon="6.98007">
        <ele>616.71392822266</ele>
        <time>2012-07-04T19:23:12Z</time>
      </trkpt>
      <trkpt lat="43.71972" lon="6.98009">
        <ele>615.61920166016</ele>
        <time>2012-07-04T19:23:16Z</time>
      </trkpt>
      <trkpt lat="43.7197" lon="6.9801">
        <ele>615.16748046875</ele>
        <time>2012-07-04T19:23:17Z</time>
      </trkpt>
      <trkpt lat="43.71958" lon="6.98011">
        <ele>613.07379150391</ele>
        <time>2012-07-04T19:23:21Z</time>
      </trkpt>
      <trkpt lat="43.71937" lon="6.98013">
        <ele>609.80926513672</ele>
        <time>2012-07-04T19:23:26Z</time>
      </trkpt>
      <trkpt lat="43.71928" lon="6.98012">
        <ele>608.96984863281</ele>
        <time>2012-07-04T19:23:29Z</time>
      </trkpt>
      <trkpt lat="43.71928" lon="6.98013">
        <ele>608.83081054688</ele>
        <time>2012-07-04T19:23:36Z</time>
      </trkpt>
      <trkpt lat="43.71928" lon="6.98013">
        <ele>608.89776611328</ele>
        <time>2012-07-04T19:23:52Z</time>
      </trkpt>
      <trkpt lat="43.71927" lon="6.98014">
        <ele>608.54754638672</ele>
        <time>2012-07-04T19:24:28Z</time>
      </trkpt>
      <trkpt lat="43.71928" lon="6.98012">
        <ele>608.84625244141</ele>
        <time>2012-07-04T19:25:17Z</time>
      </trkpt>
      <trkpt lat="43.71923" lon="6.98012">
        <ele>608.42395019531</ele>
        <time>2012-07-04T19:25:42Z</time>
      </trkpt>
      <trkpt lat="43.71918" lon="6.98008">
        <ele>608.25915527344</ele>
        <time>2012-07-04T19:25:45Z</time>
      </trkpt>
      <trkpt lat="43.71915" lon="6.98004">
        <ele>608.28588867188</ele>
        <time>2012-07-04T19:25:47Z</time>
      </trkpt>
      <trkpt lat="43.71907" lon="6.98">
        <ele>607.00360107422</ele>
        <time>2012-07-04T19:25:52Z</time>
      </trkpt>
      <trkpt lat="43.71907" lon="6.97995">
        <ele>607.28173828125</ele>
        <time>2012-07-04T19:25:56Z</time>
      </trkpt>
      <trkpt lat="43.71908" lon="6.97995">
        <ele>607.47741699219</ele>
        <time>2012-07-04T19:25:58Z</time>
      </trkpt>
      <trkpt lat="43.71909" lon="6.97993">
        <ele>607.89282226562</ele>
        <time>2012-07-04T19:26:00Z</time>
      </trkpt>
      <trkpt lat="43.71909" lon="6.97992">
        <ele>607.90661621094</ele>
        <time>2012-07-04T19:26:01Z</time>
      </trkpt>
      <trkpt lat="43.71908" lon="6.97989">
        <ele>607.88598632812</ele>
        <time>2012-07-04T19:26:05Z</time>
      </trkpt>
      <trkpt lat="43.71906" lon="6.97986">
        <ele>607.63537597656</ele>
        <time>2012-07-04T19:26:07Z</time>
      </trkpt>
      <trkpt lat="43.71903" lon="6.97984">
        <ele>607.24053955078</ele>
        <time>2012-07-04T19:26:09Z</time>
      </trkpt>
      <trkpt lat="43.71901" lon="6.97988">
        <ele>606.46118164062</ele>
        <time>2012-07-04T19:26:12Z</time>
      </trkpt>
      <trkpt lat="43.71899" lon="6.97992">
        <ele>605.71276855469</ele>
        <time>2012-07-04T19:26:14Z</time>
      </trkpt>
      <trkpt lat="43.71895" lon="6.97994">
        <ele>604.79266357422</ele>
        <time>2012-07-04T19:26:17Z</time>
      </trkpt>
      <trkpt lat="43.71896" lon="6.97992">
        <ele>605.04669189453</ele>
        <time>2012-07-04T19:26:19Z</time>
      </trkpt>
      <trkpt lat="43.71898" lon="6.97987">
        <ele>605.80889892578</ele>
        <time>2012-07-04T19:26:23Z</time>
      </trkpt>
      <trkpt lat="43.71894" lon="6.97991">
        <ele>604.77203369141</ele>
        <time>2012-07-04T19:26:30Z</time>
      </trkpt>
      <trkpt lat="43.71889" lon="6.97993">
        <ele>603.56353759766</ele>
        <time>2012-07-04T19:26:35Z</time>
      </trkpt>
      <trkpt lat="43.71888" lon="6.97994">
        <ele>603.34136962891</ele>
        <time>2012-07-04T19:26:40Z</time>
      </trkpt>
      <trkpt lat="43.71886" lon="6.97987">
        <ele>603.37188720703</ele>
        <time>2012-07-04T19:26:45Z</time>
      </trkpt>
      <trkpt lat="43.71886" lon="6.97987">
        <ele>603.47198486328</ele>
        <time>2012-07-04T19:26:46Z</time>
      </trkpt>
      <trkpt lat="43.71888" lon="6.97987">
        <ele>603.71966552734</ele>
        <time>2012-07-04T19:26:50Z</time>
      </trkpt>
      <trkpt lat="43.71889" lon="6.97987">
        <ele>604.08538818359</ele>
        <time>2012-07-04T19:26:53Z</time>
      </trkpt>
      <trkpt lat="43.7189" lon="6.97981">
        <ele>604.56604003906</ele>
        <time>2012-07-04T19:26:56Z</time>
      </trkpt>
      <trkpt lat="43.71891" lon="6.97969">
        <ele>605.70648193359</ele>
        <time>2012-07-04T19:27:00Z</time>
      </trkpt>
      <trkpt lat="43.7189" lon="6.97967">
        <ele>605.85815429688</ele>
        <time>2012-07-04T19:27:01Z</time>
      </trkpt>
      <trkpt lat="43.71888" lon="6.97965">
        <ele>605.60107421875</ele>
        <time>2012-07-04T19:27:04Z</time>
      </trkpt>
      <trkpt lat="43.71888" lon="6.97966">
        <ele>605.43286132812</ele>
        <time>2012-07-04T19:27:05Z</time>
      </trkpt>
      <trkpt lat="43.71887" lon="6.9797">
        <ele>604.96252441406</ele>
        <time>2012-07-04T19:27:08Z</time>
      </trkpt>
      <trkpt lat="43.71886" lon="6.9797">
        <ele>604.76165771484</ele>
        <time>2012-07-04T19:27:11Z</time>
      </trkpt>
      <trkpt lat="43.71883" lon="6.97971">
        <ele>604.39086914062</ele>
        <time>2012-07-04T19:27:16Z</time>
      </trkpt>
      <trkpt lat="43.71883" lon="6.97966">
        <ele>604.84924316406</ele>
        <time>2012-07-04T19:27:20Z</time>
      </trkpt>
      <trkpt lat="43.71883" lon="6.97967">
        <ele>604.62091064453</ele>
        <time>2012-07-04T19:27:22Z</time>
      </trkpt>
      <trkpt lat="43.71882" lon="6.97975">
        <ele>603.71612548828</ele>
        <time>2012-07-04T19:27:28Z</time>
      </trkpt>
      <trkpt lat="43.71878" lon="6.97975">
        <ele>603.18505859375</ele>
        <time>2012-07-04T19:27:35Z</time>
      </trkpt>
      <trkpt lat="43.71878" lon="6.97968">
        <ele>603.79864501953</ele>
        <time>2012-07-04T19:27:46Z</time>
      </trkpt>
      <trkpt lat="43.71877" lon="6.97959">
        <ele>604.70672607422</ele>
        <time>2012-07-04T19:27:50Z</time>
      </trkpt>
      <trkpt lat="43.71877" lon="6.97959">
        <ele>604.69989013672</ele>
        <time>2012-07-04T19:27:51Z</time>
      </trkpt>
      <trkpt lat="43.71875" lon="6.9796">
        <ele>604.37542724609</ele>
        <time>2012-07-04T19:27:54Z</time>
      </trkpt>
      <trkpt lat="43.71872" lon="6.97965">
        <ele>603.28540039062</ele>
        <time>2012-07-04T19:27:58Z</time>
      </trkpt>
      <trkpt lat="43.71871" lon="6.97964">
        <ele>603.30944824219</ele>
        <time>2012-07-04T19:27:59Z</time>
      </trkpt>
      <trkpt lat="43.71872" lon="6.97956">
        <ele>604.35485839844</ele>
        <time>2012-07-04T19:28:03Z</time>
      </trkpt>
      <trkpt lat="43.71872" lon="6.97941">
        <ele>605.87078857422</ele>
        <time>2012-07-04T19:28:08Z</time>
      </trkpt>
      <trkpt lat="43.71869" lon="6.97932">
        <ele>606.09674072266</ele>
        <time>2012-07-04T19:28:11Z</time>
      </trkpt>
      <trkpt lat="43.71866" lon="6.97924">
        <ele>606.29071044922</ele>
        <time>2012-07-04T19:28:13Z</time>
      </trkpt>
      <trkpt lat="43.71859" lon="6.97909">
        <ele>605.98181152344</ele>
        <time>2012-07-04T19:28:18Z</time>
      </trkpt>
      <trkpt lat="43.71858" lon="6.97908">
        <ele>605.90460205078</ele>
        <time>2012-07-04T19:28:19Z</time>
      </trkpt>
      <trkpt lat="43.71857" lon="6.97909">
        <ele>605.76379394531</ele>
        <time>2012-07-04T19:28:22Z</time>
      </trkpt>
      <trkpt lat="43.71859" lon="6.97918">
        <ele>605.59790039062</ele>
        <time>2012-07-04T19:28:26Z</time>
      </trkpt>
      <trkpt lat="43.71858" lon="6.97933">
        <ele>604.337890625</ele>
        <time>2012-07-04T19:28:31Z</time>
      </trkpt>
      <trkpt lat="43.71853" lon="6.97952">
        <ele>601.35925292969</ele>
        <time>2012-07-04T19:28:36Z</time>
      </trkpt>
      <trkpt lat="43.71852" lon="6.97958">
        <ele>599.95635986328</ele>
        <time>2012-07-04T19:28:38Z</time>
      </trkpt>
      <trkpt lat="43.71851" lon="6.97958">
        <ele>599.65124511719</ele>
        <time>2012-07-04T19:28:40Z</time>
      </trkpt>
      <trkpt lat="43.7185" lon="6.97956">
        <ele>599.72271728516</ele>
        <time>2012-07-04T19:28:41Z</time>
      </trkpt>
      <trkpt lat="43.7185" lon="6.97953">
        <ele>600.55969238281</ele>
        <time>2012-07-04T19:28:43Z</time>
      </trkpt>
      <trkpt lat="43.71847" lon="6.97955">
        <ele>599.16748046875</ele>
        <time>2012-07-04T19:28:47Z</time>
      </trkpt>
      <trkpt lat="43.71846" lon="6.97962">
        <ele>597.26782226562</ele>
        <time>2012-07-04T19:28:51Z</time>
      </trkpt>
      <trkpt lat="43.71846" lon="6.97964">
        <ele>596.76440429688</ele>
        <time>2012-07-04T19:28:52Z</time>
      </trkpt>
      <trkpt lat="43.71841" lon="6.97968">
        <ele>593.65045166016</ele>
        <time>2012-07-04T19:28:55Z</time>
      </trkpt>
      <trkpt lat="43.71838" lon="6.97972">
        <ele>590.9912109375</ele>
        <time>2012-07-04T19:28:57Z</time>
      </trkpt>
      <trkpt lat="43.71828" lon="6.9798">
        <ele>582.48309326172</ele>
        <time>2012-07-04T19:29:01Z</time>
      </trkpt>
      <trkpt lat="43.71824" lon="6.97977">
        <ele>580.41473388672</ele>
        <time>2012-07-04T19:29:05Z</time>
      </trkpt>
      <trkpt lat="43.7183" lon="6.97962">
        <ele>590.03161621094</ele>
        <time>2012-07-04T19:29:08Z</time>
      </trkpt>
      <trkpt lat="43.71832" lon="6.97946">
        <ele>598.68933105469</ele>
        <time>2012-07-04T19:29:12Z</time>
      </trkpt>
      <trkpt lat="43.71828" lon="6.97951">
        <ele>593.55572509766</ele>
        <time>2012-07-04T19:29:15Z</time>
      </trkpt>
      <trkpt lat="43.71819" lon="6.9796">
        <ele>582.59411621094</ele>
        <time>2012-07-04T19:29:19Z</time>
      </trkpt>
      <trkpt lat="43.71804" lon="6.97971">
        <ele>567.29095458984</ele>
        <time>2012-07-04T19:29:25Z</time>
      </trkpt>
      <trkpt lat="43.71789" lon="6.97983">
        <ele>549.87243652344</ele>
        <time>2012-07-04T19:29:31Z</time>
      </trkpt>
      <trkpt lat="43.71787" lon="6.97982">
        <ele>548.56304931641</ele>
        <time>2012-07-04T19:29:32Z</time>
      </trkpt>
      <trkpt lat="43.71788" lon="6.97977">
        <ele>550.19152832031</ele>
        <time>2012-07-04T19:29:34Z</time>
      </trkpt>
      <trkpt lat="43.71793" lon="6.97967">
        <ele>558.22106933594</ele>
        <time>2012-07-04T19:29:37Z</time>
      </trkpt>
      <trkpt lat="43.71796" lon="6.97964">
        <ele>561.22235107422</ele>
        <time>2012-07-04T19:29:38Z</time>
      </trkpt>
      <trkpt lat="43.718" lon="6.97957">
        <ele>567.69262695312</ele>
        <time>2012-07-04T19:29:42Z</time>
      </trkpt>
      <trkpt lat="43.71799" lon="6.97957">
        <ele>567.32946777344</ele>
        <time>2012-07-04T19:29:43Z</time>
      </trkpt>
      <trkpt lat="43.71794" lon="6.97961">
        <ele>560.86169433594</ele>
        <time>2012-07-04T19:29:47Z</time>
      </trkpt>
      <trkpt lat="43.71788" lon="6.97964">
        <ele>554.37390136719</ele>
        <time>2012-07-04T19:29:50Z</time>
      </trkpt>
      <trkpt lat="43.71788" lon="6.97961">
        <ele>554.75604248047</ele>
        <time>2012-07-04T19:29:52Z</time>
      </trkpt>
      <trkpt lat="43.71795" lon="6.97951">
        <ele>565.20288085938</ele>
        <time>2012-07-04T19:29:57Z</time>
      </trkpt>
      <trkpt lat="43.718" lon="6.97948">
        <ele>570.99481201172</ele>
        <time>2012-07-04T19:29:59Z</time>
      </trkpt>
      <trkpt lat="43.718" lon="6.97947">
        <ele>571.15594482422</ele>
        <time>2012-07-04T19:30:00Z</time>
      </trkpt>
      <trkpt lat="43.71799" lon="6.97947">
        <ele>569.89337158203</ele>
        <time>2012-07-04T19:30:01Z</time>
      </trkpt>
      <trkpt lat="43.71792" lon="6.97951">
        <ele>561.91693115234</ele>
        <time>2012-07-04T19:30:04Z</time>
      </trkpt>
      <trkpt lat="43.7179" lon="6.97953">
        <ele>559.03332519531</ele>
        <time>2012-07-04T19:30:05Z</time>
      </trkpt>
      <trkpt lat="43.71782" lon="6.97955">
        <ele>550.0400390625</ele>
        <time>2012-07-04T19:30:09Z</time>
      </trkpt>
      <trkpt lat="43.71782" lon="6.97953">
        <ele>550.52319335938</ele>
        <time>2012-07-04T19:30:10Z</time>
      </trkpt>
      <trkpt lat="43.71788" lon="6.97945">
        <ele>559.02111816406</ele>
        <time>2012-07-04T19:30:14Z</time>
      </trkpt>
      <trkpt lat="43.71793" lon="6.97939">
        <ele>565.06616210938</ele>
        <time>2012-07-04T19:30:17Z</time>
      </trkpt>
      <trkpt lat="43.71791" lon="6.97936">
        <ele>564.16809082031</ele>
        <time>2012-07-04T19:30:19Z</time>
      </trkpt>
      <trkpt lat="43.71786" lon="6.9794">
        <ele>558.14361572266</ele>
        <time>2012-07-04T19:30:22Z</time>
      </trkpt>
      <trkpt lat="43.71782" lon="6.97944">
        <ele>553.78753662109</ele>
        <time>2012-07-04T19:30:24Z</time>
      </trkpt>
      <trkpt lat="43.71781" lon="6.97944">
        <ele>552.19537353516</ele>
        <time>2012-07-04T19:30:25Z</time>
      </trkpt>
      <trkpt lat="43.71781" lon="6.9794">
        <ele>552.47686767578</ele>
        <time>2012-07-04T19:30:27Z</time>
      </trkpt>
      <trkpt lat="43.71788" lon="6.97931">
        <ele>560.99456787109</ele>
        <time>2012-07-04T19:30:31Z</time>
      </trkpt>
      <trkpt lat="43.7179" lon="6.9793">
        <ele>562.81555175781</ele>
        <time>2012-07-04T19:30:32Z</time>
      </trkpt>
      <trkpt lat="43.7179" lon="6.97929">
        <ele>562.92309570312</ele>
        <time>2012-07-04T19:30:33Z</time>
      </trkpt>
      <trkpt lat="43.71787" lon="6.97929">
        <ele>560.38848876953</ele>
        <time>2012-07-04T19:30:35Z</time>
      </trkpt>
      <trkpt lat="43.71782" lon="6.97932">
        <ele>553.95239257812</ele>
        <time>2012-07-04T19:30:37Z</time>
      </trkpt>
      <trkpt lat="43.71777" lon="6.97934">
        <ele>548.77716064453</ele>
        <time>2012-07-04T19:30:39Z</time>
      </trkpt>
      <trkpt lat="43.71762" lon="6.97939">
        <ele>537.17651367188</ele>
        <time>2012-07-04T19:30:45Z</time>
      </trkpt>
      <trkpt lat="43.71754" lon="6.97936">
        <ele>530.57287597656</ele>
        <time>2012-07-04T19:30:50Z</time>
      </trkpt>
      <trkpt lat="43.71759" lon="6.97929">
        <ele>535.17785644531</ele>
        <time>2012-07-04T19:30:53Z</time>
      </trkpt>
      <trkpt lat="43.71774" lon="6.97916">
        <ele>547.49127197266</ele>
        <time>2012-07-04T19:30:58Z</time>
      </trkpt>
      <trkpt lat="43.71775" lon="6.97906">
        <ele>548.78540039062</ele>
        <time>2012-07-04T19:31:01Z</time>
      </trkpt>
      <trkpt lat="43.71776" lon="6.97895">
        <ele>550.11004638672</ele>
        <time>2012-07-04T19:31:04Z</time>
      </trkpt>
      <trkpt lat="43.71775" lon="6.97892">
        <ele>549.22912597656</ele>
        <time>2012-07-04T19:31:05Z</time>
      </trkpt>
      <trkpt lat="43.71773" lon="6.97891">
        <ele>547.61053466797</ele>
        <time>2012-07-04T19:31:06Z</time>
      </trkpt>
      <trkpt lat="43.71768" lon="6.97904">
        <ele>543.36279296875</ele>
        <time>2012-07-04T19:31:09Z</time>
      </trkpt>
      <trkpt lat="43.71763" lon="6.97914">
        <ele>538.99182128906</ele>
        <time>2012-07-04T19:31:12Z</time>
      </trkpt>
      <trkpt lat="43.71761" lon="6.97916">
        <ele>537.06506347656</ele>
        <time>2012-07-04T19:31:13Z</time>
      </trkpt>
      <trkpt lat="43.71757" lon="6.97913">
        <ele>533.61242675781</ele>
        <time>2012-07-04T19:31:17Z</time>
      </trkpt>
      <trkpt lat="43.71758" lon="6.97906">
        <ele>534.64227294922</ele>
        <time>2012-07-04T19:31:19Z</time>
      </trkpt>
      <trkpt lat="43.71759" lon="6.97897">
        <ele>535.38195800781</ele>
        <time>2012-07-04T19:31:21Z</time>
      </trkpt>
      <trkpt lat="43.71757" lon="6.97883">
        <ele>532.68603515625</ele>
        <time>2012-07-04T19:31:26Z</time>
      </trkpt>
      <trkpt lat="43.71754" lon="6.97872">
        <ele>528.1435546875</ele>
        <time>2012-07-04T19:31:33Z</time>
      </trkpt>
      <trkpt lat="43.71754" lon="6.97871">
        <ele>528.26177978516</ele>
        <time>2012-07-04T19:31:34Z</time>
      </trkpt>
      <trkpt lat="43.71754" lon="6.97871">
        <ele>527.95855712891</ele>
        <time>2012-07-04T19:31:37Z</time>
      </trkpt>
      <trkpt lat="43.71748" lon="6.97867">
        <ele>522.58563232422</ele>
        <time>2012-07-04T19:31:42Z</time>
      </trkpt>
      <trkpt lat="43.7174" lon="6.97863">
        <ele>517.43695068359</ele>
        <time>2012-07-04T19:31:46Z</time>
      </trkpt>
      <trkpt lat="43.71738" lon="6.97861">
        <ele>516.15478515625</ele>
        <time>2012-07-04T19:31:47Z</time>
      </trkpt>
      <trkpt lat="43.71737" lon="6.97858">
        <ele>514.99096679688</ele>
        <time>2012-07-04T19:31:49Z</time>
      </trkpt>
      <trkpt lat="43.71737" lon="6.97851">
        <ele>514.73760986328</ele>
        <time>2012-07-04T19:31:51Z</time>
      </trkpt>
      <trkpt lat="43.71735" lon="6.97832">
        <ele>512.21789550781</ele>
        <time>2012-07-04T19:31:56Z</time>
      </trkpt>
      <trkpt lat="43.71734" lon="6.97829">
        <ele>511.76705932617</ele>
        <time>2012-07-04T19:31:57Z</time>
      </trkpt>
      <trkpt lat="43.71728" lon="6.97821">
        <ele>508.44543457031</ele>
        <time>2012-07-04T19:32:01Z</time>
      </trkpt>
      <trkpt lat="43.71714" lon="6.97812">
        <ele>503.75729370117</ele>
        <time>2012-07-04T19:32:07Z</time>
      </trkpt>
      <trkpt lat="43.71706" lon="6.97801">
        <ele>501.88278198242</ele>
        <time>2012-07-04T19:32:12Z</time>
      </trkpt>
      <trkpt lat="43.71704" lon="6.97797">
        <ele>501.59582519531</ele>
        <time>2012-07-04T19:32:16Z</time>
      </trkpt>
      <trkpt lat="43.717" lon="6.97797">
        <ele>500.91864013672</ele>
        <time>2012-07-04T19:32:21Z</time>
      </trkpt>
      <trkpt lat="43.71703" lon="6.97808">
        <ele>501.56167602539</ele>
        <time>2012-07-04T19:32:26Z</time>
      </trkpt>
      <trkpt lat="43.71707" lon="6.97815">
        <ele>502.44769287109</ele>
        <time>2012-07-04T19:32:28Z</time>
      </trkpt>
      <trkpt lat="43.71716" lon="6.9783">
        <ele>504.45913696289</ele>
        <time>2012-07-04T19:32:32Z</time>
      </trkpt>
      <trkpt lat="43.71718" lon="6.9785">
        <ele>505.6330871582</ele>
        <time>2012-07-04T19:32:36Z</time>
      </trkpt>
      <trkpt lat="43.71721" lon="6.97873">
        <ele>507.37817382812</ele>
        <time>2012-07-04T19:32:40Z</time>
      </trkpt>
      <trkpt lat="43.7172" lon="6.97876">
        <ele>507.4040222168</ele>
        <time>2012-07-04T19:32:41Z</time>
      </trkpt>
      <trkpt lat="43.71716" lon="6.9788">
        <ele>506.60012817383</ele>
        <time>2012-07-04T19:32:43Z</time>
      </trkpt>
      <trkpt lat="43.71708" lon="6.97893">
        <ele>505.13772583008</ele>
        <time>2012-07-04T19:32:48Z</time>
      </trkpt>
      <trkpt lat="43.71707" lon="6.97888">
        <ele>504.52355957031</ele>
        <time>2012-07-04T19:32:51Z</time>
      </trkpt>
      <trkpt lat="43.71709" lon="6.97884">
        <ele>505.07403564453</ele>
        <time>2012-07-04T19:32:53Z</time>
      </trkpt>
      <trkpt lat="43.71712" lon="6.97875">
        <ele>505.40020751953</ele>
        <time>2012-07-04T19:32:55Z</time>
      </trkpt>
      <trkpt lat="43.71712" lon="6.97872">
        <ele>505.07510375977</ele>
        <time>2012-07-04T19:32:56Z</time>
      </trkpt>
      <trkpt lat="43.71709" lon="6.97865">
        <ele>503.88436889648</ele>
        <time>2012-07-04T19:32:58Z</time>
      </trkpt>
      <trkpt lat="43.71706" lon="6.97853">
        <ele>502.79470825195</ele>
        <time>2012-07-04T19:33:02Z</time>
      </trkpt>
      <trkpt lat="43.71706" lon="6.97849">
        <ele>502.73681640625</ele>
        <time>2012-07-04T19:33:07Z</time>
      </trkpt>
      <trkpt lat="43.71703" lon="6.97847">
        <ele>502.0751953125</ele>
        <time>2012-07-04T19:33:10Z</time>
      </trkpt>
      <trkpt lat="43.71702" lon="6.97844">
        <ele>501.69003295898</ele>
        <time>2012-07-04T19:33:12Z</time>
      </trkpt>
      <trkpt lat="43.71697" lon="6.97835">
        <ele>500.52578735352</ele>
        <time>2012-07-04T19:33:18Z</time>
      </trkpt>
      <trkpt lat="43.71697" lon="6.97836">
        <ele>500.52816772461</ele>
        <time>2012-07-04T19:33:20Z</time>
      </trkpt>
      <trkpt lat="43.71696" lon="6.9784">
        <ele>500.45520019531</ele>
        <time>2012-07-04T19:33:25Z</time>
      </trkpt>
      <trkpt lat="43.71696" lon="6.97841">
        <ele>500.45919799805</ele>
        <time>2012-07-04T19:33:33Z</time>
      </trkpt>
      <trkpt lat="43.71699" lon="6.97853">
        <ele>501.13360595703</ele>
        <time>2012-07-04T19:41:39Z</time>
      </trkpt>
      <trkpt lat="43.71702" lon="6.97864">
        <ele>501.96704101562</ele>
        <time>2012-07-04T19:41:45Z</time>
      </trkpt>
      <trkpt lat="43.71701" lon="6.97874">
        <ele>502.26110839844</ele>
        <time>2012-07-04T19:41:49Z</time>
      </trkpt>
      <trkpt lat="43.71698" lon="6.97878">
        <ele>501.4606628418</ele>
        <time>2012-07-04T19:41:51Z</time>
      </trkpt>
      <trkpt lat="43.71694" lon="6.97881">
        <ele>500.54946899414</ele>
        <time>2012-07-04T19:41:53Z</time>
      </trkpt>
      <trkpt lat="43.71695" lon="6.97883">
        <ele>500.81781005859</ele>
        <time>2012-07-04T19:41:54Z</time>
      </trkpt>
      <trkpt lat="43.71694" lon="6.97886">
        <ele>500.48770141602</ele>
        <time>2012-07-04T19:41:55Z</time>
      </trkpt>
      <trkpt lat="43.71693" lon="6.97892">
        <ele>500.00308227539</ele>
        <time>2012-07-04T19:41:58Z</time>
      </trkpt>
      <trkpt lat="43.71692" lon="6.97893">
        <ele>499.33682250977</ele>
        <time>2012-07-04T19:41:59Z</time>
      </trkpt>
      <trkpt lat="43.7169" lon="6.97895">
        <ele>498.70074462891</ele>
        <time>2012-07-04T19:42:00Z</time>
      </trkpt>
      <trkpt lat="43.71682" lon="6.97907">
        <ele>493.97747802734</ele>
        <time>2012-07-04T19:42:06Z</time>
      </trkpt>
      <trkpt lat="43.71676" lon="6.97919">
        <ele>490.12503051758</ele>
        <time>2012-07-04T19:42:12Z</time>
      </trkpt>
      <trkpt lat="43.71675" lon="6.97924">
        <ele>489.90985107422</ele>
        <time>2012-07-04T19:42:14Z</time>
      </trkpt>
      <trkpt lat="43.71673" lon="6.97931">
        <ele>488.93646240234</ele>
        <time>2012-07-04T19:42:17Z</time>
      </trkpt>
      <trkpt lat="43.71668" lon="6.97943">
        <ele>486.66473388672</ele>
        <time>2012-07-04T19:42:23Z</time>
      </trkpt>
      <trkpt lat="43.71665" lon="6.97941">
        <ele>484.57174682617</ele>
        <time>2012-07-04T19:42:27Z</time>
      </trkpt>
      <trkpt lat="43.71665" lon="6.97927">
        <ele>483.79132080078</ele>
        <time>2012-07-04T19:42:32Z</time>
      </trkpt>
      <trkpt lat="43.71666" lon="6.9791">
        <ele>483.56420898438</ele>
        <time>2012-07-04T19:42:37Z</time>
      </trkpt>
      <trkpt lat="43.71666" lon="6.97893">
        <ele>483.56420898438</ele>
        <time>2012-07-04T19:42:43Z</time>
      </trkpt>
      <trkpt lat="43.71666" lon="6.97889">
        <ele>483.78814697266</ele>
        <time>2012-07-04T19:42:45Z</time>
      </trkpt>
      <trkpt lat="43.71666" lon="6.9789">
        <ele>483.56420898438</ele>
        <time>2012-07-04T19:42:48Z</time>
      </trkpt>
      <trkpt lat="43.71664" lon="6.97892">
        <ele>482.63037109375</ele>
        <time>2012-07-04T19:42:53Z</time>
      </trkpt>
      <trkpt lat="43.71661" lon="6.97901">
        <ele>480.29577636719</ele>
        <time>2012-07-04T19:42:57Z</time>
      </trkpt>
      <trkpt lat="43.71661" lon="6.97903">
        <ele>480.29577636719</ele>
        <time>2012-07-04T19:42:58Z</time>
      </trkpt>
      <trkpt lat="43.71659" lon="6.97905">
        <ele>479.36193847656</ele>
        <time>2012-07-04T19:43:01Z</time>
      </trkpt>
      <trkpt lat="43.71657" lon="6.97903">
        <ele>478.19464111328</ele>
        <time>2012-07-04T19:43:06Z</time>
      </trkpt>
      <trkpt lat="43.71658" lon="6.979">
        <ele>478.42810058594</ele>
        <time>2012-07-04T19:43:07Z</time>
      </trkpt>
      <trkpt lat="43.71656" lon="6.97901">
        <ele>477.49426269531</ele>
        <time>2012-07-04T19:43:11Z</time>
      </trkpt>
      <trkpt lat="43.71656" lon="6.97901">
        <ele>477.49426269531</ele>
        <time>2012-07-04T19:43:12Z</time>
      </trkpt>
      <trkpt lat="43.71653" lon="6.97909">
        <ele>475.86004638672</ele>
        <time>2012-07-04T19:43:15Z</time>
      </trkpt>
      <trkpt lat="43.71646" lon="6.97926">
        <ele>472.10098266602</ele>
        <time>2012-07-04T19:43:21Z</time>
      </trkpt>
      <trkpt lat="43.71641" lon="6.97938">
        <ele>469.21133422852</ele>
        <time>2012-07-04T19:43:26Z</time>
      </trkpt>
      <trkpt lat="43.71637" lon="6.97952">
        <ele>467.22155761719</ele>
        <time>2012-07-04T19:43:31Z</time>
      </trkpt>
      <trkpt lat="43.7163" lon="6.97971">
        <ele>463.76086425781</ele>
        <time>2012-07-04T19:43:36Z</time>
      </trkpt>
      <trkpt lat="43.71627" lon="6.97993">
        <ele>459.03961181641</ele>
        <time>2012-07-04T19:43:41Z</time>
      </trkpt>
      <trkpt lat="43.71623" lon="6.98006">
        <ele>454.5556640625</ele>
        <time>2012-07-04T19:43:46Z</time>
      </trkpt>
      <trkpt lat="43.71619" lon="6.98017">
        <ele>450.45642089844</ele>
        <time>2012-07-04T19:43:50Z</time>
      </trkpt>
      <trkpt lat="43.71619" lon="6.98018">
        <ele>449.89678955078</ele>
        <time>2012-07-04T19:43:51Z</time>
      </trkpt>
      <trkpt lat="43.71618" lon="6.98017">
        <ele>449.95172119141</ele>
        <time>2012-07-04T19:43:53Z</time>
      </trkpt>
      <trkpt lat="43.71618" lon="6.98014">
        <ele>450.267578125</ele>
        <time>2012-07-04T19:43:55Z</time>
      </trkpt>
      <trkpt lat="43.71617" lon="6.98004">
        <ele>451.90179443359</ele>
        <time>2012-07-04T19:43:59Z</time>
      </trkpt>
      <trkpt lat="43.71615" lon="6.97997">
        <ele>452.47528076172</ele>
        <time>2012-07-04T19:44:02Z</time>
      </trkpt>
      <trkpt lat="43.71615" lon="6.97999">
        <ele>452.06329345703</ele>
        <time>2012-07-04T19:44:03Z</time>
      </trkpt>
      <trkpt lat="43.71612" lon="6.98011">
        <ele>448.03253173828</ele>
        <time>2012-07-04T19:44:07Z</time>
      </trkpt>
      <trkpt lat="43.71606" lon="6.98034">
        <ele>439.94696044922</ele>
        <time>2012-07-04T19:44:14Z</time>
      </trkpt>
      <trkpt lat="43.71604" lon="6.98043">
        <ele>437.32052612305</ele>
        <time>2012-07-04T19:44:18Z</time>
      </trkpt>
      <trkpt lat="43.71601" lon="6.98035">
        <ele>436.89309692383</ele>
        <time>2012-07-04T19:44:22Z</time>
      </trkpt>
      <trkpt lat="43.71597" lon="6.98019">
        <ele>437.81011962891</ele>
        <time>2012-07-04T19:44:27Z</time>
      </trkpt>
      <trkpt lat="43.71597" lon="6.98015">
        <ele>438.47131347656</ele>
        <time>2012-07-04T19:44:28Z</time>
      </trkpt>
      <trkpt lat="43.71597" lon="6.98008">
        <ele>439.71536254883</ele>
        <time>2012-07-04T19:44:31Z</time>
      </trkpt>
      <trkpt lat="43.71597" lon="6.98008">
        <ele>439.70593261719</ele>
        <time>2012-07-04T19:44:32Z</time>
      </trkpt>
      <trkpt lat="43.71596" lon="6.9801">
        <ele>438.6809387207</ele>
        <time>2012-07-04T19:44:33Z</time>
      </trkpt>
      <trkpt lat="43.71595" lon="6.98012">
        <ele>437.80505371094</ele>
        <time>2012-07-04T19:44:34Z</time>
      </trkpt>
      <trkpt lat="43.71589" lon="6.98023">
        <ele>432.18258666992</ele>
        <time>2012-07-04T19:44:38Z</time>
      </trkpt>
      <trkpt lat="43.71582" lon="6.98038">
        <ele>425.486328125</ele>
        <time>2012-07-04T19:44:44Z</time>
      </trkpt>
      <trkpt lat="43.71581" lon="6.98056">
        <ele>421.27911376953</ele>
        <time>2012-07-04T19:44:50Z</time>
      </trkpt>
      <trkpt lat="43.71581" lon="6.98057">
        <ele>421.15719604492</ele>
        <time>2012-07-04T19:44:54Z</time>
      </trkpt>
      <trkpt lat="43.71576" lon="6.98072">
        <ele>415.96658325195</ele>
        <time>2012-07-04T19:47:33Z</time>
      </trkpt>
      <trkpt lat="43.7158" lon="6.98086">
        <ele>417.27313232422</ele>
        <time>2012-07-04T19:47:38Z</time>
      </trkpt>
      <trkpt lat="43.71579" lon="6.981">
        <ele>414.24224853516</ele>
        <time>2012-07-04T19:47:42Z</time>
      </trkpt>
      <trkpt lat="43.71577" lon="6.98129">
        <ele>408.02496337891</ele>
        <time>2012-07-04T19:47:49Z</time>
      </trkpt>
      <trkpt lat="43.71575" lon="6.98154">
        <ele>403.62982177734</ele>
        <time>2012-07-04T19:47:54Z</time>
      </trkpt>
      <trkpt lat="43.71574" lon="6.98168">
        <ele>401.56805419922</ele>
        <time>2012-07-04T19:47:58Z</time>
      </trkpt>
      <trkpt lat="43.71574" lon="6.98176">
        <ele>399.90875244141</ele>
        <time>2012-07-04T19:48:01Z</time>
      </trkpt>
      <trkpt lat="43.71574" lon="6.98175">
        <ele>399.98858642578</ele>
        <time>2012-07-04T19:48:02Z</time>
      </trkpt>
      <trkpt lat="43.71574" lon="6.98183">
        <ele>398.86685180664</ele>
        <time>2012-07-04T19:48:09Z</time>
      </trkpt>
      <trkpt lat="43.71573" lon="6.98184">
        <ele>398.2685546875</ele>
        <time>2012-07-04T19:48:10Z</time>
      </trkpt>
      <trkpt lat="43.71572" lon="6.98182">
        <ele>397.73110961914</ele>
        <time>2012-07-04T19:48:13Z</time>
      </trkpt>
      <trkpt lat="43.71567" lon="6.98169">
        <ele>397.35620117188</ele>
        <time>2012-07-04T19:48:18Z</time>
      </trkpt>
      <trkpt lat="43.71562" lon="6.98155">
        <ele>396.12823486328</ele>
        <time>2012-07-04T19:48:22Z</time>
      </trkpt>
      <trkpt lat="43.71557" lon="6.98145">
        <ele>394.27084350586</ele>
        <time>2012-07-04T19:48:27Z</time>
      </trkpt>
      <trkpt lat="43.71555" lon="6.98144">
        <ele>393.09124755859</ele>
        <time>2012-07-04T19:48:29Z</time>
      </trkpt>
      <trkpt lat="43.71553" lon="6.98152">
        <ele>391.76257324219</ele>
        <time>2012-07-04T19:48:32Z</time>
      </trkpt>
      <trkpt lat="43.71553" lon="6.98156">
        <ele>390.99694824219</ele>
        <time>2012-07-04T19:48:33Z</time>
      </trkpt>
      <trkpt lat="43.71552" lon="6.98171">
        <ele>388.7106628418</ele>
        <time>2012-07-04T19:48:37Z</time>
      </trkpt>
      <trkpt lat="43.71552" lon="6.98185">
        <ele>386.61846923828</ele>
        <time>2012-07-04T19:48:42Z</time>
      </trkpt>
      <trkpt lat="43.71552" lon="6.98185">
        <ele>386.94610595703</ele>
        <time>2012-07-04T19:48:43Z</time>
      </trkpt>
      <trkpt lat="43.71552" lon="6.98187">
        <ele>386.75524902344</ele>
        <time>2012-07-04T19:48:46Z</time>
      </trkpt>
      <trkpt lat="43.71552" lon="6.9819">
        <ele>385.84280395508</ele>
        <time>2012-07-04T19:48:56Z</time>
      </trkpt>
      <trkpt lat="43.7155" lon="6.98202">
        <ele>383.76187133789</ele>
        <time>2012-07-04T19:48:59Z</time>
      </trkpt>
      <trkpt lat="43.7155" lon="6.98205">
        <ele>383.22079467773</ele>
        <time>2012-07-04T19:49:00Z</time>
      </trkpt>
      <trkpt lat="43.71552" lon="6.98216">
        <ele>382.63912963867</ele>
        <time>2012-07-04T19:49:03Z</time>
      </trkpt>
      <trkpt lat="43.71553" lon="6.98218">
        <ele>382.88632202148</ele>
        <time>2012-07-04T19:49:04Z</time>
      </trkpt>
      <trkpt lat="43.71559" lon="6.98236">
        <ele>383.74160766602</ele>
        <time>2012-07-04T19:49:09Z</time>
      </trkpt>
      <trkpt lat="43.71568" lon="6.98255">
        <ele>383.55368041992</ele>
        <time>2012-07-04T19:49:14Z</time>
      </trkpt>
      <trkpt lat="43.71573" lon="6.98275">
        <ele>380.7287902832</ele>
        <time>2012-07-04T19:49:19Z</time>
      </trkpt>
      <trkpt lat="43.71576" lon="6.98292">
        <ele>379.69854736328</ele>
        <time>2012-07-04T19:49:23Z</time>
      </trkpt>
      <trkpt lat="43.7158" lon="6.98318">
        <ele>376.74035644531</ele>
        <time>2012-07-04T19:49:29Z</time>
      </trkpt>
      <trkpt lat="43.71582" lon="6.98337">
        <ele>373.16519165039</ele>
        <time>2012-07-04T19:49:33Z</time>
      </trkpt>
      <trkpt lat="43.71583" lon="6.98343">
        <ele>371.68380737305</ele>
        <time>2012-07-04T19:49:35Z</time>
      </trkpt>
      <trkpt lat="43.71586" lon="6.98354">
        <ele>370.0231628418</ele>
        <time>2012-07-04T19:49:38Z</time>
      </trkpt>
      <trkpt lat="43.71588" lon="6.98373">
        <ele>366.36779785156</ele>
        <time>2012-07-04T19:49:43Z</time>
      </trkpt>
      <trkpt lat="43.71591" lon="6.98398">
        <ele>363.69897460938</ele>
        <time>2012-07-04T19:49:49Z</time>
      </trkpt>
      <trkpt lat="43.71597" lon="6.98426">
        <ele>360.00387573242</ele>
        <time>2012-07-04T19:49:55Z</time>
      </trkpt>
      <trkpt lat="43.71605" lon="6.9845">
        <ele>357.63793945312</ele>
        <time>2012-07-04T19:50:00Z</time>
      </trkpt>
      <trkpt lat="43.71605" lon="6.98458">
        <ele>356.14007568359</ele>
        <time>2012-07-04T19:50:02Z</time>
      </trkpt>
      <trkpt lat="43.71602" lon="6.98461">
        <ele>353.41354370117</ele>
        <time>2012-07-04T19:50:03Z</time>
      </trkpt>
      <trkpt lat="43.71589" lon="6.98478">
        <ele>339.39776611328</ele>
        <time>2012-07-04T19:50:07Z</time>
      </trkpt>
      <trkpt lat="43.7157" lon="6.98499">
        <ele>321.01708984375</ele>
        <time>2012-07-04T19:50:13Z</time>
      </trkpt>
      <trkpt lat="43.71562" lon="6.98502">
        <ele>316.38027954102</ele>
        <time>2012-07-04T19:50:17Z</time>
      </trkpt>
      <trkpt lat="43.71556" lon="6.98494">
        <ele>316.19104003906</ele>
        <time>2012-07-04T19:50:20Z</time>
      </trkpt>
      <trkpt lat="43.71554" lon="6.98491">
        <ele>316.31192016602</ele>
        <time>2012-07-04T19:50:21Z</time>
      </trkpt>
      <trkpt lat="43.71547" lon="6.98483">
        <ele>316.43106079102</ele>
        <time>2012-07-04T19:50:26Z</time>
      </trkpt>
      <trkpt lat="43.71547" lon="6.98482">
        <ele>316.82635498047</ele>
        <time>2012-07-04T19:51:34Z</time>
      </trkpt>
      <trkpt lat="43.71544" lon="6.98483">
        <ele>315.77880859375</ele>
        <time>2012-07-04T19:52:31Z</time>
      </trkpt>
      <trkpt lat="43.71545" lon="6.98477">
        <ele>317.42425537109</ele>
        <time>2012-07-04T19:52:42Z</time>
      </trkpt>
      <trkpt lat="43.71543" lon="6.98469">
        <ele>318.91201782227</ele>
        <time>2012-07-04T19:52:44Z</time>
      </trkpt>
      <trkpt lat="43.71532" lon="6.9845">
        <ele>318.67315673828</ele>
        <time>2012-07-04T19:52:48Z</time>
      </trkpt>
      <trkpt lat="43.71524" lon="6.98434">
        <ele>317.81826782227</ele>
        <time>2012-07-04T19:52:52Z</time>
      </trkpt>
      <trkpt lat="43.71514" lon="6.98414">
        <ele>315.96752929688</ele>
        <time>2012-07-04T19:52:56Z</time>
      </trkpt>
      <trkpt lat="43.71503" lon="6.984">
        <ele>311.47515869141</ele>
        <time>2012-07-04T19:52:59Z</time>
      </trkpt>
      <trkpt lat="43.71498" lon="6.98394">
        <ele>310.14730834961</ele>
        <time>2012-07-04T19:53:00Z</time>
      </trkpt>
      <trkpt lat="43.71478" lon="6.98372">
        <ele>305.04327392578</ele>
        <time>2012-07-04T19:53:04Z</time>
      </trkpt>
      <trkpt lat="43.71466" lon="6.98357">
        <ele>302.76177978516</ele>
        <time>2012-07-04T19:53:07Z</time>
      </trkpt>
      <trkpt lat="43.71458" lon="6.98346">
        <ele>302.31201171875</ele>
        <time>2012-07-04T19:53:09Z</time>
      </trkpt>
      <trkpt lat="43.71443" lon="6.98323">
        <ele>299.39764404297</ele>
        <time>2012-07-04T19:53:13Z</time>
      </trkpt>
      <trkpt lat="43.71437" lon="6.98316">
        <ele>296.84719848633</ele>
        <time>2012-07-04T19:53:14Z</time>
      </trkpt>
      <trkpt lat="43.7141" lon="6.98279">
        <ele>288.80673217773</ele>
        <time>2012-07-04T19:53:20Z</time>
      </trkpt>
      <trkpt lat="43.71401" lon="6.98277">
        <ele>283.72448730469</ele>
        <time>2012-07-04T19:53:23Z</time>
      </trkpt>
      <trkpt lat="43.714" lon="6.98277">
        <ele>283.01724243164</ele>
        <time>2012-07-04T19:53:24Z</time>
      </trkpt>
      <trkpt lat="43.71398" lon="6.98275">
        <ele>281.81561279297</ele>
        <time>2012-07-04T19:53:26Z</time>
      </trkpt>
      <trkpt lat="43.71397" lon="6.98274">
        <ele>281.53408813477</ele>
        <time>2012-07-04T19:53:27Z</time>
      </trkpt>
      <trkpt lat="43.71394" lon="6.98267">
        <ele>280.38052368164</ele>
        <time>2012-07-04T19:53:31Z</time>
      </trkpt>
      <trkpt lat="43.71389" lon="6.98263">
        <ele>278.17929077148</ele>
        <time>2012-07-04T19:53:33Z</time>
      </trkpt>
      <trkpt lat="43.71371" lon="6.98254">
        <ele>278.64050292969</ele>
        <time>2012-07-04T19:53:38Z</time>
      </trkpt>
      <trkpt lat="43.71359" lon="6.98242">
        <ele>281.44747924805</ele>
        <time>2012-07-04T19:53:42Z</time>
      </trkpt>
      <trkpt lat="43.7135" lon="6.98236">
        <ele>284.12194824219</ele>
        <time>2012-07-04T19:53:46Z</time>
      </trkpt>
      <trkpt lat="43.71346" lon="6.98234">
        <ele>285.32186889648</ele>
        <time>2012-07-04T19:53:50Z</time>
      </trkpt>
      <trkpt lat="43.71344" lon="6.98235">
        <ele>285.32015991211</ele>
        <time>2012-07-04T19:53:54Z</time>
      </trkpt>
      <trkpt lat="43.7134" lon="6.98233">
        <ele>286.39303588867</ele>
        <time>2012-07-04T19:53:57Z</time>
      </trkpt>
      <trkpt lat="43.71334" lon="6.98218">
        <ele>290.56869506836</ele>
        <time>2012-07-04T19:54:02Z</time>
      </trkpt>
      <trkpt lat="43.71327" lon="6.98219">
        <ele>291.06692504883</ele>
        <time>2012-07-04T19:54:06Z</time>
      </trkpt>
      <trkpt lat="43.71323" lon="6.98223">
        <ele>290.43075561523</ele>
        <time>2012-07-04T19:54:08Z</time>
      </trkpt>
      <trkpt lat="43.71322" lon="6.98221">
        <ele>291.03253173828</ele>
        <time>2012-07-04T19:54:11Z</time>
      </trkpt>
      <trkpt lat="43.71327" lon="6.9821">
        <ele>292.46990966797</ele>
        <time>2012-07-04T19:54:15Z</time>
      </trkpt>
      <trkpt lat="43.71328" lon="6.9821">
        <ele>292.58340454102</ele>
        <time>2012-07-04T19:54:19Z</time>
      </trkpt>
      <trkpt lat="43.71326" lon="6.98203">
        <ele>293.78921508789</ele>
        <time>2012-07-04T19:54:26Z</time>
      </trkpt>
      <trkpt lat="43.71325" lon="6.98202">
        <ele>294.08334350586</ele>
        <time>2012-07-04T19:54:29Z</time>
      </trkpt>
      <trkpt lat="43.71325" lon="6.98202">
        <ele>294.09945678711</ele>
        <time>2012-07-04T19:54:30Z</time>
      </trkpt>
      <trkpt lat="43.71324" lon="6.98198">
        <ele>294.79861450195</ele>
        <time>2012-07-04T19:54:35Z</time>
      </trkpt>
      <trkpt lat="43.71322" lon="6.98197">
        <ele>295.02584838867</ele>
        <time>2012-07-04T19:54:42Z</time>
      </trkpt>
      <trkpt lat="43.71316" lon="6.98202">
        <ele>294.43103027344</ele>
        <time>2012-07-04T19:54:47Z</time>
      </trkpt>
      <trkpt lat="43.71308" lon="6.98206">
        <ele>294.21917724609</ele>
        <time>2012-07-04T19:54:51Z</time>
      </trkpt>
      <trkpt lat="43.71305" lon="6.98208">
        <ele>294.06158447266</ele>
        <time>2012-07-04T19:54:52Z</time>
      </trkpt>
      <trkpt lat="43.71293" lon="6.98219">
        <ele>293.42300415039</ele>
        <time>2012-07-04T19:54:57Z</time>
      </trkpt>
      <trkpt lat="43.71283" lon="6.98236">
        <ele>290.09774780273</ele>
        <time>2012-07-04T19:55:02Z</time>
      </trkpt>
      <trkpt lat="43.71274" lon="6.9825">
        <ele>287.85534667969</ele>
        <time>2012-07-04T19:55:06Z</time>
      </trkpt>
      <trkpt lat="43.71265" lon="6.98264">
        <ele>286.76187133789</ele>
        <time>2012-07-04T19:55:11Z</time>
      </trkpt>
      <trkpt lat="43.71255" lon="6.98283">
        <ele>285.11364746094</ele>
        <time>2012-07-04T19:55:17Z</time>
      </trkpt>
      <trkpt lat="43.71252" lon="6.98293">
        <ele>284.39434814453</ele>
        <time>2012-07-04T19:55:22Z</time>
      </trkpt>
      <trkpt lat="43.71251" lon="6.98296">
        <ele>284.19613647461</ele>
        <time>2012-07-04T19:55:31Z</time>
      </trkpt>
      <trkpt lat="43.71252" lon="6.98312">
        <ele>281.12219238281</ele>
        <time>2012-07-04T19:55:59Z</time>
      </trkpt>
      <trkpt lat="43.71253" lon="6.98333">
        <ele>276.59814453125</ele>
        <time>2012-07-04T19:56:04Z</time>
      </trkpt>
      <trkpt lat="43.71241" lon="6.98347">
        <ele>275.99108886719</ele>
        <time>2012-07-04T19:56:09Z</time>
      </trkpt>
      <trkpt lat="43.71229" lon="6.98365">
        <ele>274.90960693359</ele>
        <time>2012-07-04T19:56:13Z</time>
      </trkpt>
      <trkpt lat="43.71221" lon="6.98378">
        <ele>274.54937744141</ele>
        <time>2012-07-04T19:56:17Z</time>
      </trkpt>
      <trkpt lat="43.71212" lon="6.98408">
        <ele>271.98986816406</ele>
        <time>2012-07-04T19:56:23Z</time>
      </trkpt>
      <trkpt lat="43.71207" lon="6.98444">
        <ele>267.2783203125</ele>
        <time>2012-07-04T19:56:29Z</time>
      </trkpt>
      <trkpt lat="43.71206" lon="6.98459">
        <ele>265.85513305664</ele>
        <time>2012-07-04T19:56:32Z</time>
      </trkpt>
      <trkpt lat="43.71206" lon="6.98463">
        <ele>265.12329101562</ele>
        <time>2012-07-04T19:56:33Z</time>
      </trkpt>
      <trkpt lat="43.71207" lon="6.98484">
        <ele>261.66220092773</ele>
        <time>2012-07-04T19:56:37Z</time>
      </trkpt>
      <trkpt lat="43.71208" lon="6.98487">
        <ele>260.70748901367</ele>
        <time>2012-07-04T19:56:39Z</time>
      </trkpt>
      <trkpt lat="43.71212" lon="6.98486">
        <ele>259.97189331055</ele>
        <time>2012-07-04T19:56:41Z</time>
      </trkpt>
      <trkpt lat="43.71214" lon="6.98483">
        <ele>259.97207641602</ele>
        <time>2012-07-04T19:56:45Z</time>
      </trkpt>
      <trkpt lat="43.71214" lon="6.98483">
        <ele>259.75311279297</ele>
        <time>2012-07-04T19:56:46Z</time>
      </trkpt>
      <trkpt lat="43.71219" lon="6.98481">
        <ele>258.89865112305</ele>
        <time>2012-07-04T19:57:04Z</time>
      </trkpt>
      <trkpt lat="43.71225" lon="6.98478">
        <ele>258.44323730469</ele>
        <time>2012-07-04T19:57:07Z</time>
      </trkpt>
      <trkpt lat="43.71241" lon="6.9847">
        <ele>257.60659790039</ele>
        <time>2012-07-04T19:57:14Z</time>
      </trkpt>
      <trkpt lat="43.71262" lon="6.98466">
        <ele>253.94891357422</ele>
        <time>2012-07-04T19:57:21Z</time>
      </trkpt>
      <trkpt lat="43.71291" lon="6.98468">
        <ele>246.81216430664</ele>
        <time>2012-07-04T19:57:29Z</time>
      </trkpt>
      <trkpt lat="43.71328" lon="6.98484">
        <ele>238.78051757812</ele>
        <time>2012-07-04T19:57:39Z</time>
      </trkpt>
      <trkpt lat="43.71354" lon="6.98506">
        <ele>235.76139831543</ele>
        <time>2012-07-04T19:57:46Z</time>
      </trkpt>
      <trkpt lat="43.71379" lon="6.98542">
        <ele>235.06315612793</ele>
        <time>2012-07-04T19:57:54Z</time>
      </trkpt>
      <trkpt lat="43.71396" lon="6.98586">
        <ele>231.61016845703</ele>
        <time>2012-07-04T19:58:01Z</time>
      </trkpt>
      <trkpt lat="43.7141" lon="6.98631">
        <ele>226.74415588379</ele>
        <time>2012-07-04T19:58:08Z</time>
      </trkpt>
      <trkpt lat="43.71431" lon="6.98686">
        <ele>222.45141601562</ele>
        <time>2012-07-04T19:58:17Z</time>
      </trkpt>
      <trkpt lat="43.71458" lon="6.98724">
        <ele>220.59271240234</ele>
        <time>2012-07-04T19:58:24Z</time>
      </trkpt>
      <trkpt lat="43.71485" lon="6.98745">
        <ele>219.54179382324</ele>
        <time>2012-07-04T19:58:30Z</time>
      </trkpt>
      <trkpt lat="43.71522" lon="6.98766">
        <ele>222.97442626953</ele>
        <time>2012-07-04T19:58:38Z</time>
      </trkpt>
      <trkpt lat="43.71562" lon="6.98786">
        <ele>228.28666687012</ele>
        <time>2012-07-04T19:58:46Z</time>
      </trkpt>
      <trkpt lat="43.71603" lon="6.98806">
        <ele>229.20779418945</ele>
        <time>2012-07-04T19:58:54Z</time>
      </trkpt>
      <trkpt lat="43.71644" lon="6.98828">
        <ele>230.98106384277</ele>
        <time>2012-07-04T19:59:02Z</time>
      </trkpt>
      <trkpt lat="43.71679" lon="6.98843">
        <ele>232.232421875</ele>
        <time>2012-07-04T19:59:08Z</time>
      </trkpt>
      <trkpt lat="43.71717" lon="6.98862">
        <ele>232.06573486328</ele>
        <time>2012-07-04T19:59:15Z</time>
      </trkpt>
      <trkpt lat="43.71758" lon="6.98875">
        <ele>229.62565612793</ele>
        <time>2012-07-04T19:59:22Z</time>
      </trkpt>
      <trkpt lat="43.71798" lon="6.98879">
        <ele>222.33207702637</ele>
        <time>2012-07-04T19:59:29Z</time>
      </trkpt>
      <trkpt lat="43.71811" lon="6.98882">
        <ele>217.71214294434</ele>
        <time>2012-07-04T19:59:33Z</time>
      </trkpt>
    </trkseg>
  </trk>
</gpx>